GFSSGP_con_3kmhel_000.txt.gz
Helicity
25 26 51 89 95 94 121 70 55 91 106 64 97 103 118 45 115 101 25 69 13 1 13 52 54 57 89 93 99 96 85 77 64 61 45 34 34 34 27 24 24 29 34 32 23 22 24 24 25
44 60 91 126 49 43 163 21 28 38 -13 59 106 158 234 68 32 28 92 99 54 31 48 40 41 75 84 87 90 89 78 69 61 48 28 25 20 17 16 13 11 9 13 20 26 32 31 33 32
59 72 94 82 54 -14 95 64 153 100 50 -38 10 119 40 8 -2 58 67 113 64 46 8 22 58 70 76 83 86 76 67 64 48 26 20 14 4 5 3 2 0 5 9 14 23 30 33 33 32
54 99 99 89 -11 32 110 63 170 19 54 52 69 -30 43 -4 27 22 82 66 58 -5 2 36 58 63 78 76 72 70 61 52 34 19 13 5 0 -2 -7 -13 -9 2 4 6 11 16 20 20 20
115 104 108 43 67 26 57 86 71 115 13 61 -5 5 -25 32 51 81 71 36 23 -13 23 30 54 62 63 65 60 59 54 35 14 10 3 -3 -6 -17 -25 -18 -12 -9 -6 -6 -9 -4 -1 -4 -5
104 96 74 54 73 68 136 113 72 41 12 60 64 48 47 64 84 40 23 -2 -5 19 11 20 31 46 49 46 54 42 26 9 11 0 -7 -13 -27 -32 -28 -22 -16 -12 -18 -24 -24 -24 -18 -11 -9
86 93 68 121 58 152 172 30 24 90 21 10 63 58 55 57 43 17 -1 -10 -2 0 6 6 20 37 44 38 28 18 14 0 -4 -15 -23 -34 -37 -35 -31 -21 -18 -21 -31 -43 -42 -37 -31 -20 -17
92 100 79 156 199 126 120 42 17 97 5 70 68 31 20 19 27 17 -9 -20 -25 -17 -4 11 16 13 16 5 10 10 1 -16 -24 -30 -32 -28 -20 -23 -26 -17 -18 -24 -29 -36 -41 -40 -38 -36 -31
67 114 80 128 100 219 67 9 58 102 121 93 37 19 28 101 41 9 -20 -26 -19 -17 -6 -2 6 0 -17 -22 -15 -11 -12 -19 -21 -22 -16 -12 -15 -11 -4 -6 -13 -24 -19 -20 -44 -50 -46 -48 -52
26 81 20 -1 17 67 40 11 121 102 114 52 52 102 128 96 57 24 16 7 5 -5 -20 -11 -14 -23 -32 -32 -32 -37 -33 -29 -26 -18 -14 -12 1 10 15 14 -6 -11 -5 -10 -33 -34 -32 -23 -7
10 70 52 56 -6 6 89 106 73 135 14 -4 80 101 70 39 22 57 24 24 10 -4 -16 -39 -27 -30 -32 -38 -46 -50 -35 -27 -22 -24 -14 -3 8 26 32 37 28 18 25 26 17 21 24 20 20
28 53 -41 -33 -28 69 125 99 68 39 -16 8 65 103 35 36 30 58 56 11 37 7 -10 -18 -18 -23 -33 -32 -25 -23 -21 -13 -12 -20 14 35 43 54 60 62 46 37 48 49 45 46 45 56 79
18 -15 17 49 63 80 89 52 7 -18 17 64 65 57 57 66 61 53 83 21 28 17 -14 -29 -12 -13 -1 10 5 -8 -5 7 4 13 49 71 67 73 74 72 83 100 95 91 79 83 86 112 124
0 0 41 42 94 103 83 51 9 -19 10 80 88 60 59 118 106 18 29 -1 18 19 22 18 25 59 48 20 3 -2 -10 11 19 47 74 82 78 91 98 136 173 153 136 109 97 97 128 160 158
51 65 85 114 107 92 50 25 -5 12 29 74 59 18 2 24 -19 20 33 36 51 52 94 110 155 150 122 78 37 7 -21 -10 47 71 92 101 144 175 200 216 187 155 147 135 139 156 173 202 227
65 53 48 31 61 57 26 14 82 44 71 47 56 47 57 73 36 -17 -15 16 65 136 202 243 296 291 289 116 55 63 -93 101 88 176 174 185 195 170 171 163 157 137 147 166 163 190 197 243 257
62 29 37 -21 28 18 29 15 94 61 62 94 110 111 107 117 126 115 62 70 150 176 281 369 423 397 301 176 164 160 150 178 159 154 129 145 128 118 125 111 116 76 138 176 150 168 183 200 205
18 -36 1 -12 19 78 46 47 95 132 88 109 142 165 174 173 149 148 151 166 245 339 397 456 416 323 215 158 160 139 153 137 124 85 99 132 146 160 125 113 151 138 129 169 155 163 148 126 160
18 18 28 46 44 112 68 90 122 165 183 152 181 227 245 252 215 195 198 182 251 299 311 234 229 130 58 62 87 119 110 96 90 94 115 141 138 165 168 153 148 158 170 160 166 150 186 156 159
47 55 67 99 173 124 122 155 168 189 143 133 158 200 231 217 222 216 182 161 139 63 39 16 14 -43 -2 44 55 59 73 69 115 120 156 183 157 156 151 161 172 170 151 206 192 170 143 105 81
61 52 30 100 183 139 150 150 178 191 167 164 150 99 91 76 87 71 76 23 -9 -11 -12 25 31 35 62 84 91 92 82 88 102 122 142 171 197 198 211 246 218 212 163 165 99 114 145 164 99
65 64 83 106 160 118 106 117 148 146 161 143 102 102 88 92 65 78 45 45 59 77 66 61 78 81 68 58 92 89 85 94 89 95 143 183 201 195 192 213 179 141 154 177 152 160 111 96 189
64 93 92 122 159 160 178 158 186 187 158 152 91 81 65 25 -49 23 36 38 127 94 58 52 66 79 84 104 128 132 145 147 156 181 177 160 157 176 193 184 183 201 125 183 202 152 136 106 109
63 115 150 137 133 134 144 187 151 193 170 199 145 57 20 22 45 127 53 53 73 99 104 103 131 133 126 159 185 199 212 197 214 198 194 242 226 194 171 156 180 236 236 198 129 157 157 89 97
88 109 107 110 130 113 164 188 126 70 133 123 46 -7 32 70 87 72 94 160 120 158 156 164 181 223 243 269 264 250 217 210 221 227 234 226 204 195 163 231 280 314 291 269 224 239 90 104 152
93 84 89 -6 8 31 160 56 117 51 74 61 -5 19 78 60 92 149 165 226 240 280 238 222 212 211 214 246 256 210 189 179 186 196 190 178 174 160 210 263 278 308 203 92 137 19 87 134 101
58 76 58 57 -2 33 59 91 85 85 71 115 110 125 147 147 217 255 270 314 336 326 276 215 183 183 184 181 180 181 168 160 138 143 137 144 153 196 232 348 366 178 257 229 220 88 104 111 108
40 38 41 75 46 44 47 65 88 101 83 100 155 149 175 218 291 323 379 385 379 318 217 214 136 171 139 186 155 127 125 119 104 78 84 105 134 189 266 329 274 283 138 78 67 91 95 96 106
62 41 53 39 39 20 10 17 46 84 122 207 187 192 266 320 363 467 488 438 361 288 229 123 227 156 187 138 104 115 94 71 68 68 70 75 102 177 281 297 234 121 98 84 94 92 70 95 118
40 23 37 35 18 54 56 46 38 26 124 278 236 275 325 352 461 499 409 341 267 160 150 196 107 128 135 99 82 75 65 57 51 52 50 59 135 188 197 196 141 128 109 83 85 80 94 113 106

GFSSGP_con_3kmhel_003.txt.gz
Helicity
40 23 15 60 69 85 129 120 48 109 133 120 120 218 249 229 174 160 -11 6 88 26 1 -4 35 65 82 78 100 109 94 80 50 39 37 43 35 18 9 7 3 9 17 22 23 26 23 25 30
35 29 56 73 71 82 95 94 104 95 59 111 109 121 168 230 122 110 -8 28 72 43 10 11 25 59 69 88 91 80 67 45 36 41 39 25 9 4 0 -7 -7 4 8 14 18 18 16 16 15
44 60 89 79 62 41 45 66 158 132 66 14 12 29 27 123 65 -53 -1 65 59 36 14 25 33 51 75 75 60 53 44 35 45 37 17 4 3 -1 -8 -13 -9 0 3 4 5 5 6 5 3
67 77 85 77 15 32 71 90 173 148 180 91 -45 -27 -45 -21 -38 -17 68 33 42 14 10 29 30 57 58 53 47 48 32 36 31 12 1 1 -2 -10 -18 -12 -12 -5 -4 -5 -3 -6 -7 -10 -9
96 86 89 52 17 91 69 81 63 114 103 34 22 37 -8 -87 11 101 62 21 37 1 3 17 36 38 38 44 42 36 31 24 6 -2 -4 -5 -13 -17 -21 -18 -12 -8 -5 -11 -16 -22 -25 -23 -21
102 90 72 62 69 60 84 82 169 133 -52 -43 -29 59 48 101 72 73 39 -3 -1 13 -5 3 19 29 41 42 40 30 13 1 -3 -6 -9 -12 -17 -18 -11 -16 -13 -16 -8 -9 -13 -23 -32 -38 -36
94 77 57 96 78 83 117 131 170 1 -8 -10 55 64 58 106 63 25 -13 -26 -25 -5 -5 3 15 27 43 32 16 -2 -10 -10 -11 -11 -14 -10 -9 -8 -12 -8 -13 -15 -15 -15 -33 -45 -44 -36 -34
82 72 65 79 90 218 76 185 71 -64 -16 24 45 2 31 80 4 -12 -14 -17 -22 -15 -4 2 12 16 7 -3 -9 -15 -21 -19 -23 -20 -14 -2 -3 -5 0 -8 -15 -16 -11 -28 -52 -56 -44 -40 -41
55 82 63 96 130 171 179 128 19 12 41 51 33 15 22 104 36 -1 -15 -24 -16 -14 4 7 1 -15 -29 -35 -28 -29 -33 -28 -35 -24 -13 -3 -3 6 6 0 -14 -27 -31 -28 -30 -31 -37 -35 -34
63 75 27 59 83 55 -50 14 19 63 62 22 59 72 123 70 16 -7 -32 -31 -19 -7 -3 -12 -25 -33 -40 -41 -45 -52 -41 -35 -31 -21 -8 -6 -1 8 7 5 -9 -28 -20 -7 3 14 6 8 14
7 78 47 13 2 49 123 45 34 54 -5 -1 41 99 79 25 -11 -7 -18 -20 -12 -10 -38 -46 -35 -25 -28 -29 -32 -20 -14 -20 -15 -11 -1 6 14 7 16 26 28 32 30 44 48 60 56 56 51
23 34 -21 23 -37 16 77 61 23 28 27 2 67 138 69 17 1 7 14 -2 -10 -19 -29 -25 -13 -6 -6 2 7 6 10 0 -5 10 18 22 32 32 42 69 74 75 62 76 90 90 68 79 88
68 68 -5 -22 -30 59 46 42 3 -12 8 34 44 44 46 0 -18 -39 -31 -33 -20 -6 -4 5 20 16 28 47 31 26 17 6 8 16 18 29 32 47 72 96 98 96 102 110 117 115 100 118 145
7 -6 18 52 89 37 48 27 -4 -22 -13 14 38 40 14 18 3 -44 -33 -16 -2 2 29 44 52 70 72 64 48 31 20 -22 23 42 52 58 26 81 113 113 123 120 118 138 120 123 136 154 158
14 49 62 102 70 47 52 20 -9 55 -41 -10 -7 -7 -16 -17 -15 -22 -42 -8 9 41 79 99 122 121 140 115 76 86 42 8 -46 68 120 122 113 112 104 103 115 140 142 144 116 114 152 166 169
42 54 67 74 66 42 -5 10 56 88 -23 19 31 8 18 19 18 34 29 23 62 92 126 146 166 232 231 155 67 64 -31 -37 40 -25 24 48 43 60 82 135 145 151 132 108 121 141 140 144 154
89 50 49 66 88 16 19 19 89 78 37 50 63 68 57 61 78 75 70 63 104 153 201 270 303 274 181 60 61 -53 -7 43 35 37 33 76 86 109 127 153 147 138 151 168 156 162 159 169 165
41 51 23 32 56 85 45 31 97 76 32 45 71 108 129 119 107 115 144 123 155 233 288 287 192 188 178 100 58 64 60 55 72 93 115 113 140 150 153 159 153 154 167 167 159 159 148 144 127
34 64 48 57 24 53 46 53 77 75 72 59 71 107 148 172 135 152 167 144 151 152 177 180 163 131 85 51 -10 -1 42 83 121 143 157 148 145 167 155 170 188 189 192 182 176 152 157 159 160
48 31 44 84 78 60 56 84 74 96 81 59 54 90 135 178 160 128 106 96 75 75 77 59 55 41 24 -33 -13 34 73 102 120 128 158 179 196 214 210 200 187 181 171 179 174 160 157 142 136
62 15 7 41 147 131 59 53 68 107 106 100 108 118 128 109 104 49 19 -19 -38 -27 6 3 4 -22 -43 -7 58 106 130 132 127 152 173 183 187 192 188 176 168 161 139 164 180 185 190 184 162
36 18 56 92 105 78 59 36 71 94 124 126 127 141 125 105 63 58 22 21 -17 1 19 26 36 68 83 74 91 133 143 158 175 184 178 212 225 196 165 141 122 122 164 211 195 197 225 197 216
29 58 94 73 70 63 102 66 98 146 131 136 135 155 117 92 94 62 23 -25 -25 43 124 136 155 141 141 161 162 175 201 207 199 184 196 183 168 142 118 118 138 162 212 226 213 200 186 164 196
20 117 134 114 102 83 97 106 96 174 159 161 175 156 102 96 52 32 65 71 118 178 147 200 211 223 233 235 263 252 239 209 176 170 161 153 142 143 152 142 162 202 246 246 246 189 143 146 155
94 112 86 72 102 73 116 124 115 119 118 160 135 114 96 42 39 41 58 83 144 206 232 284 273 240 202 192 178 176 175 189 177 145 121 114 125 127 134 157 226 301 298 245 207 157 147 111 125
91 85 91 48 68 65 94 58 84 73 85 103 80 73 65 21 26 64 96 124 203 286 317 308 273 240 185 146 161 157 184 155 111 87 79 91 109 111 111 169 287 343 261 223 108 73 95 117 103
74 91 99 96 42 -4 -9 25 -5 85 121 146 221 236 165 88 81 119 177 232 306 328 287 262 265 217 169 103 118 138 108 73 52 55 65 75 78 87 111 179 246 260 228 126 106 126 142 120 101
60 69 46 43 1 26 56 99 87 57 85 108 178 196 161 145 166 212 268 328 355 310 259 250 242 139 114 81 118 100 68 49 64 71 70 66 78 89 113 187 213 192 120 101 116 111 95 92 93
65 63 81 63 53 7 -14 -4 24 0 47 72 94 141 165 172 213 278 351 408 370 291 214 191 105 108 136 104 132 100 86 79 64 65 73 83 87 106 122 151 170 138 107 94 105 92 76 82 86
60 46 40 18 14 49 41 14 25 -23 -26 13 76 148 179 214 298 350 399 392 362 237 172 121 114 153 123 150 117 115 100 70 60 63 71 81 91 122 155 155 143 95 92 96 99 78 73 77 70

GFSSGP_con_3kmhel_006.txt.gz
Helicity
24 21 27 39 51 54 55 60 147 108 155 151 165 207 295 344 280 216 42 73 49 44 34 21 25 39 39 53 73 67 61 70 71 48 29 27 19 19 20 12 0 -3 -4 1 5 8 12 14 15
41 46 40 60 53 37 35 92 67 189 124 175 177 159 244 230 115 96 48 12 9 34 41 32 26 36 48 54 60 53 66 67 57 44 36 22 16 13 9 4 -9 -9 -10 -7 -4 2 4 0 2
38 33 56 47 11 2 46 73 145 81 93 115 191 134 112 102 37 24 52 35 42 33 39 67 30 36 40 46 46 54 61 60 61 41 24 14 8 10 -1 -5 -8 -13 -13 -14 -9 -1 0 -4 -5
50 59 56 22 -1 39 54 117 84 96 121 79 65 147 -4 -91 -23 -29 -46 24 18 26 40 52 35 32 26 37 40 56 62 64 45 25 15 10 8 0 0 -8 -16 -15 -12 -13 -5 -4 -4 -7 -10
54 62 23 13 28 70 46 96 61 96 63 45 -32 -3 -36 -85 -117 -44 31 24 38 25 20 44 48 24 21 26 45 56 59 40 25 18 18 13 1 5 1 -3 -8 -5 -4 -5 -8 -9 -1 -3 -7
46 67 27 -5 43 49 23 59 43 50 79 57 -32 21 57 16 5 14 25 64 10 42 17 17 14 20 23 34 47 49 38 20 17 19 9 3 8 8 5 6 1 -4 -1 -9 -8 -5 -1 0 -7
46 24 27 46 39 56 61 61 102 163 85 -37 1 1 54 62 30 30 27 48 21 15 11 19 8 21 41 41 42 33 28 18 8 3 -3 4 9 6 11 6 -4 -4 -4 -6 -19 -18 -16 -15 -9
78 57 35 28 24 94 79 133 91 148 89 -43 0 -21 30 64 34 -7 -21 -15 -17 -27 7 2 8 18 17 15 27 26 19 2 -8 -9 0 5 4 8 16 6 5 -3 -5 2 -10 -16 -10 -7 -13
81 31 15 42 60 103 84 42 22 37 -41 -2 15 32 81 103 35 2 -21 -12 -13 -9 15 20 25 17 21 18 19 6 -3 -16 -21 -9 2 -2 5 10 9 27 6 10 12 3 1 -1 3 12 7
60 29 17 47 59 21 23 15 57 -2 -13 0 80 75 110 48 14 0 -11 -13 -8 6 12 11 7 15 19 3 1 -4 -10 -16 -9 -2 1 4 14 18 7 8 19 22 19 10 22 27 15 21 51
25 28 60 51 10 -44 -29 24 9 -21 -49 12 84 85 68 -4 -27 -20 -16 -15 -13 -4 9 21 10 -1 -11 -9 -7 -4 -5 0 6 13 17 27 21 24 10 12 26 39 51 40 40 56 80 74 50
18 53 77 24 1 -4 6 22 -3 15 76 26 79 75 40 -10 -24 -19 -7 -1 14 11 14 -8 -5 3 7 7 20 18 19 15 24 39 54 67 73 59 21 21 37 35 58 56 58 77 90 85 72
64 28 -27 15 -6 21 25 34 41 62 38 54 51 6 3 -8 -4 -1 -4 12 21 18 11 15 21 25 32 38 32 27 29 21 34 71 100 104 127 126 61 27 50 58 64 69 76 98 95 99 101
42 17 26 -1 22 53 42 50 -26 35 29 25 24 -8 -15 -3 10 18 -2 1 4 12 5 22 35 50 81 99 78 60 33 -4 36 94 103 152 154 160 -1 32 62 72 82 100 122 123 114 114 97
16 16 33 20 47 64 12 65 28 41 -28 12 10 -18 -39 -37 -31 -13 2 9 14 18 34 53 89 113 127 128 106 60 -8 -11 32 66 142 98 92 97 34 40 62 99 131 121 118 96 82 91 98
3 2 35 77 15 3 -66 52 38 41 -34 -1 26 11 -3 -12 -20 -15 5 19 28 52 61 84 97 126 140 154 88 50 44 -8 -129 -15 41 45 61 33 26 86 135 148 142 135 110 101 94 92 80
7 6 59 75 41 -1 -14 38 46 27 -14 15 29 27 20 16 -1 1 21 35 53 61 80 106 110 97 95 92 80 43 54 23 42 48 51 62 86 103 122 139 136 126 135 130 120 111 103 87 84
-18 24 4 34 41 -1 4 39 52 33 6 25 48 51 47 44 35 30 41 72 84 102 105 102 78 85 78 30 30 36 43 55 48 66 87 102 116 120 110 125 125 122 122 118 154 135 143 100 107
43 41 48 30 25 26 31 46 56 46 20 22 47 55 68 78 74 79 106 113 116 105 101 81 75 66 28 36 47 27 25 49 62 98 106 100 111 121 129 131 124 124 145 163 147 144 132 145 203
42 34 32 42 18 34 11 36 51 57 64 42 34 36 68 98 109 106 101 109 100 68 50 42 55 41 38 41 40 15 27 70 113 119 122 131 140 162 157 156 150 166 144 143 150 140 134 135 178
41 24 17 10 73 53 24 37 52 69 79 86 81 65 74 92 110 102 68 68 55 41 37 54 78 64 60 36 26 40 85 103 118 143 164 186 174 171 151 137 134 131 121 132 167 159 140 148 141
14 30 -6 1 18 1 20 28 58 75 91 102 103 101 113 136 143 122 72 82 65 60 79 122 125 105 73 68 115 136 119 144 138 150 167 151 144 131 124 122 123 124 126 137 149 161 153 172 200
45 15 14 1 9 27 38 22 112 95 103 148 163 161 169 169 129 76 106 58 61 101 133 132 156 155 153 157 138 148 137 129 135 153 141 118 111 105 106 108 118 122 140 166 172 185 204 192 200
40 44 55 49 41 0 76 38 57 66 85 168 170 163 181 177 149 139 100 81 92 130 136 137 178 195 186 172 179 162 143 140 172 174 135 125 110 97 90 102 113 128 157 187 206 215 203 179 144
8 9 -18 -12 24 3 79 45 9 65 76 147 174 173 181 175 153 117 94 79 125 136 173 185 200 224 208 187 163 138 151 138 149 131 109 94 97 97 93 96 104 137 188 250 261 238 116 91 142
-61 -28 12 24 34 31 67 30 55 80 111 116 104 144 157 153 117 94 87 97 151 193 223 206 198 215 239 215 176 109 122 143 121 87 84 82 92 90 83 83 101 165 199 267 203 81 124 145 113
59 22 110 82 68 8 25 29 2 86 88 125 180 230 194 140 119 117 131 132 191 257 264 232 245 272 289 254 138 182 151 108 60 52 77 95 87 84 87 88 109 168 185 119 108 139 133 127 92
84 93 16 12 -12 -8 14 46 11 37 103 130 210 217 179 157 155 164 177 202 234 302 305 268 266 223 226 143 103 133 117 76 74 91 88 77 80 82 83 90 121 158 120 121 129 112 116 104 70
65 21 51 41 37 5 -11 10 32 19 52 92 138 163 166 170 165 185 220 255 298 340 319 297 220 191 74 102 89 138 110 105 103 84 77 74 67 74 73 90 126 102 109 88 81 102 92 74 61
60 36 35 -11 -23 34 23 -11 37 17 19 44 67 116 140 155 180 226 276 324 370 357 324 273 169 109 128 124 156 131 132 115 95 80 67 71 64 73 78 90 97 80 83 71 101 87 65 76 84

GFSSGP_con_3kmhel_009.txt.gz
Helicity
3 11 20 25 44 45 13 -10 79 84 148 194 143 155 281 262 281 178 186 185 138 66 63 34 27 48 44 21 28 52 66 65 65 69 62 40 23 17 19 13 3 -2 -1 0 2 5 7 8 6
-7 27 30 15 60 -3 8 34 92 212 124 121 166 197 312 273 156 86 123 57 82 59 43 34 54 66 33 19 38 55 62 73 66 70 56 34 23 20 16 7 -4 -7 -9 -7 -1 8 16 13 11
22 20 39 33 13 -6 19 113 181 115 46 61 138 208 222 258 96 76 52 56 58 38 12 59 68 55 18 25 46 55 68 83 75 63 41 31 23 17 14 4 -5 -3 -6 -4 5 8 9 9 7
14 34 46 37 -20 -13 47 120 101 43 90 84 77 97 57 2 37 33 44 54 57 56 78 92 56 29 22 30 51 65 89 96 78 55 39 30 23 17 8 7 8 9 9 10 7 2 0 0 -4
12 10 10 3 -19 32 29 140 -11 60 39 80 46 38 9 -23 55 76 74 90 98 137 93 68 45 32 45 45 56 83 107 94 58 51 35 26 17 10 14 14 18 16 9 2 1 -3 4 4 0
12 -2 -4 -18 -6 55 13 80 135 128 160 -7 27 24 -2 -13 -5 4 74 155 143 78 28 49 12 11 54 46 86 95 93 69 49 34 24 22 17 14 18 16 14 12 15 8 -3 3 10 12 5
-9 0 -16 -12 40 48 10 91 114 59 7 41 38 36 32 40 33 46 123 124 2 -25 27 27 25 29 51 58 82 92 60 47 37 24 22 13 13 13 15 11 17 23 31 19 7 1 1 6 -3
13 27 8 14 -1 94 25 40 114 43 94 -13 -3 45 -9 65 80 65 40 13 -9 -13 -9 20 31 22 29 63 78 53 44 29 21 14 7 -2 -5 -2 6 12 28 29 29 14 10 2 -5 -11 -11
47 17 -9 -17 71 8 20 48 42 64 36 45 33 14 103 116 70 65 57 48 41 44 27 35 21 35 34 36 17 22 22 9 -4 -5 -1 2 -9 6 19 34 29 31 25 20 19 14 1 -17 9
19 -13 16 92 95 132 72 38 44 7 58 -42 0 92 94 70 54 51 31 37 35 54 53 49 57 62 16 13 7 26 21 -1 1 8 13 6 18 26 9 21 30 30 28 23 19 16 -1 15 55
38 54 43 45 30 -31 -22 3 5 128 -17 33 78 73 66 69 6 17 16 13 46 59 74 52 39 22 -2 16 6 10 -1 -3 8 23 21 56 39 70 56 48 23 31 41 10 42 48 60 71 56
64 29 46 57 23 6 -22 20 95 119 -31 221 100 61 44 31 7 4 4 23 26 28 39 7 14 31 38 5 5 6 10 8 7 22 18 47 60 82 105 172 132 28 34 48 40 58 78 74 61
41 18 40 32 8 -7 14 -3 61 26 37 79 117 27 12 20 5 10 3 20 23 37 22 17 24 27 21 40 35 42 30 44 23 32 79 83 102 91 99 159 246 127 43 41 39 66 126 88 77
-7 24 11 15 30 12 5 41 38 39 60 79 61 34 24 17 21 15 19 36 27 54 38 25 33 25 51 101 104 77 68 37 35 43 68 83 77 88 82 68 79 35 38 54 111 141 109 98 123
34 9 14 51 -5 -1 30 24 106 25 40 31 25 34 29 30 40 39 44 44 53 33 32 45 53 86 87 99 81 55 33 45 68 25 23 66 88 97 120 60 20 62 133 91 100 142 122 118 79
49 -11 22 22 -8 13 -30 109 31 9 27 18 25 25 20 26 35 40 43 40 55 57 49 53 64 78 109 117 76 69 66 12 23 104 44 64 86 95 113 69 75 90 105 119 140 99 102 104 123
18 -10 50 24 -24 13 15 110 21 0 12 38 26 22 31 39 33 52 38 50 61 74 89 73 55 70 85 99 77 76 67 68 62 38 39 54 68 70 77 107 117 92 81 98 80 131 92 107 91
30 5 15 35 22 -34 -13 86 47 -1 -4 25 34 38 51 54 47 43 44 59 72 90 76 71 52 70 66 65 53 46 59 45 37 53 53 55 74 82 84 109 99 56 77 108 167 125 124 112 106
45 -21 -3 58 24 -29 15 41 52 22 8 21 13 50 61 53 72 55 36 72 94 115 91 64 72 55 47 68 72 62 56 56 51 71 77 80 99 94 85 110 113 113 124 136 117 117 129 113 110
4 -4 55 34 16 15 5 47 53 47 25 30 41 47 58 91 84 97 108 95 110 108 94 63 82 68 77 67 85 70 64 85 96 97 88 122 121 132 114 143 120 147 135 117 110 139 146 114 113
-2 -6 27 26 12 35 13 78 41 41 54 29 30 38 62 104 102 122 117 123 141 124 90 76 82 115 126 95 63 86 97 64 69 107 123 162 119 118 125 128 128 120 103 111 137 131 185 145 164
6 44 -25 0 35 26 8 4 26 88 76 64 65 77 87 92 117 133 127 109 90 92 60 77 115 135 94 113 156 164 171 191 158 123 164 120 152 126 109 104 98 106 108 112 118 140 280 161 184
70 -32 32 -1 15 -9 9 -6 151 -9 84 96 114 115 117 129 133 143 137 112 87 84 76 141 131 130 152 201 170 194 194 149 126 148 132 159 169 128 112 114 125 134 123 127 153 197 195 201 199
28 34 16 15 10 -5 14 -5 112 71 59 95 118 154 161 159 166 196 187 158 153 120 142 150 141 165 196 232 260 257 221 164 146 186 169 167 107 100 113 123 114 107 110 117 156 267 243 308 231
-13 -2 0 -5 -7 -22 38 42 10 25 69 95 134 126 147 169 187 235 263 163 132 143 149 169 217 207 224 267 298 291 217 173 159 153 167 115 100 110 127 110 105 106 119 209 295 298 234 153 184
-16 16 7 0 27 22 82 52 40 127 105 47 155 107 114 130 170 195 173 139 145 153 173 203 219 249 285 316 348 314 174 227 165 177 124 98 111 125 112 99 89 97 170 216 192 103 80 71 87
12 13 53 45 56 35 17 14 85 89 83 55 129 129 147 146 172 159 151 159 153 156 195 228 244 302 331 321 250 200 142 108 175 120 94 119 116 101 103 75 81 195 118 109 69 123 82 101 147
61 76 39 53 9 -2 26 5 19 58 36 39 127 152 148 138 152 145 153 188 186 152 213 256 305 338 321 263 221 106 102 135 130 118 126 111 92 80 83 80 78 126 132 106 81 80 107 83 115
48 21 45 67 46 -20 -17 15 100 46 24 51 72 132 134 118 137 145 207 206 207 215 254 297 348 396 280 215 183 118 108 147 111 124 113 101 79 74 83 97 99 99 111 63 77 87 53 81 115
103 28 34 -6 -35 41 45 -4 45 54 15 28 42 97 111 101 119 143 206 220 232 263 306 332 429 368 239 219 145 91 161 126 128 122 107 95 66 80 88 101 107 84 87 79 101 70 64 62 71

GFSSGP_con_3kmhel_012.txt.gz
Helicity
14 -6 23 41 54 52 39 12 37 128 171 173 158 201 135 209 191 198 97 87 201 135 116 94 75 57 50 59 54 56 63 63 61 61 57 34 26 35 47 38 26 12 5 5 7 11 14 13 9
-15 9 31 63 71 62 21 23 231 193 262 185 254 164 202 197 159 126 120 103 126 138 93 87 79 51 58 47 41 40 64 66 70 72 53 35 38 42 42 29 11 6 9 10 12 11 7 5 3
-14 33 69 56 33 29 21 89 99 23 44 122 171 191 154 132 72 118 137 177 142 95 115 90 70 51 48 61 49 74 78 81 85 75 48 42 42 41 32 13 11 16 20 20 17 10 4 -0 -6
21 49 61 106 58 -20 -13 1 121 87 92 109 51 69 84 152 150 50 92 102 123 160 113 68 46 37 50 55 76 87 89 96 99 63 41 39 38 29 20 17 25 32 33 34 23 13 6 -4 -6
38 77 75 31 10 59 27 165 194 291 141 283 171 53 64 101 81 103 201 118 196 212 203 152 78 68 108 52 86 86 97 96 74 46 36 37 32 24 22 27 37 48 42 27 19 18 1 -14 -20
34 32 88 25 -37 62 28 237 220 185 86 49 35 91 38 40 109 185 193 192 137 162 186 175 58 39 9 49 106 99 94 78 50 33 33 30 28 19 17 26 40 48 40 20 15 8 -4 -16 -30
47 13 42 21 39 52 45 163 96 66 -9 -32 130 252 -7 18 225 140 163 118 156 237 139 120 -14 9 64 99 110 78 74 44 39 29 22 9 5 5 11 23 36 48 38 25 16 9 -1 -11 -23
52 82 49 28 12 42 240 134 65 119 48 87 65 101 16 132 180 88 68 103 168 118 40 -54 71 20 32 49 50 49 47 40 21 5 -7 -15 -19 -11 1 24 50 49 44 35 26 14 -4 -13 -7
8 68 88 35 21 158 254 310 -0 4 18 103 139 139 61 212 138 57 49 127 69 22 -74 -18 -35 2 -15 -15 19 37 21 5 -0 -12 -7 -9 -8 -1 11 29 50 56 51 36 28 8 -7 21 36
46 21 39 58 81 25 13 28 32 74 214 50 27 13 -30 214 61 47 29 63 -143 -172 -11 40 19 -14 -33 11 -31 -10 -0 -20 -19 -6 13 -15 30 44 43 44 45 47 27 22 31 -4 11 40 58
38 66 3 76 35 195 22 41 14 48 125 134 132 -50 124 51 28 35 22 27 27 49 42 32 30 -0 -18 -32 -69 -32 -11 7 4 -9 10 48 60 59 64 60 78 55 62 60 47 43 39 50 59
53 39 7 -45 4 147 53 113 71 16 19 16 21 33 81 38 3 -0 43 82 49 43 49 35 42 114 50 -31 -8 -18 -3 -5 -8 16 27 42 83 90 79 88 114 125 138 139 90 54 77 171 140
67 60 25 17 -35 23 151 22 -11 -87 -88 13 47 40 69 1 15 40 78 39 30 57 60 71 73 39 35 71 103 107 44 57 50 60 63 94 61 53 76 92 58 98 156 163 104 100 111 108 105
34 39 27 2 -6 120 37 -18 2 -56 -61 27 30 20 64 15 36 -4 56 36 80 63 98 65 34 22 76 131 106 53 56 36 100 59 52 36 76 81 112 91 107 119 103 76 71 93 96 107 126
19 40 39 26 13 14 -99 -45 67 91 61 23 34 22 12 16 54 26 128 77 146 103 51 31 -6 52 112 73 53 62 37 62 40 52 115 111 132 81 85 95 71 71 70 61 48 67 95 101 91
15 -1 26 60 33 10 -24 96 36 97 35 13 44 44 29 53 68 80 102 63 99 74 37 10 74 90 109 106 65 71 51 121 77 109 91 82 67 57 69 74 73 69 92 99 88 66 146 115 109
69 4 22 -2 90 27 -40 112 81 42 35 45 63 38 59 32 37 70 64 75 133 98 70 77 80 121 90 75 143 90 74 56 55 44 53 33 53 56 59 66 79 70 91 119 145 164 128 88 86
52 55 45 -35 -3 5 15 134 68 25 297 -32 46 41 75 33 72 93 59 83 142 136 89 115 118 109 61 63 101 55 49 48 66 88 59 89 48 76 77 114 97 45 77 157 171 140 122 115 148
40 60 38 13 25 -32 67 55 64 10 77 25 61 66 96 70 75 107 63 110 215 217 136 114 124 74 25 88 65 55 70 104 107 82 68 91 93 99 71 128 153 170 191 183 160 147 170 174 164
37 58 12 22 26 -40 10 51 77 2 8 51 54 114 118 80 109 123 80 160 188 221 137 104 105 53 18 126 187 147 188 169 117 50 51 105 112 142 181 174 150 157 156 137 145 159 157 191 217
63 25 -5 39 11 -24 49 31 24 32 -3 3 25 23 80 106 231 152 140 185 181 240 233 134 133 39 150 232 168 188 158 98 82 108 130 157 137 132 137 155 159 151 127 140 141 143 156 237 245
42 170 24 41 -45 40 105 91 134 158 17 54 33 12 37 88 227 185 172 177 266 278 232 134 92 232 180 150 232 243 281 357 269 264 221 180 218 197 184 184 175 144 157 168 163 174 202 238 271
-4 78 -21 -9 1 40 109 30 79 63 -13 30 24 66 107 206 219 222 147 242 297 235 138 170 315 215 169 272 249 307 326 374 330 272 202 152 166 196 176 168 140 128 139 147 157 174 302 336 347
-8 -13 39 20 16 49 20 103 19 119 6 59 61 42 91 210 260 201 298 206 143 142 252 314 301 222 247 348 422 455 428 435 346 253 230 153 169 168 165 154 124 130 144 166 220 307 351 353 325
1 -23 -24 25 22 -10 21 60 -2 90 45 202 23 115 149 198 166 147 228 137 304 395 325 304 292 304 298 332 372 393 367 324 305 250 207 131 175 159 155 130 142 148 157 213 218 255 282 229 214
-34 -4 22 14 -26 28 53 25 7 48 -9 238 -70 167 206 139 183 213 276 409 373 309 257 229 326 314 326 366 381 344 307 279 295 218 201 152 196 147 126 143 135 124 201 186 231 229 210 170 136
29 8 19 2 81 7 41 -0 -5 144 119 72 154 242 203 139 157 169 264 332 324 231 199 236 309 342 377 374 399 343 284 344 273 197 195 212 166 118 148 143 120 112 200 215 193 176 174 166 143
23 52 34 32 9 12 20 14 26 56 81 41 153 227 200 159 135 158 245 293 312 239 234 242 273 407 407 439 382 324 294 208 195 165 205 190 140 128 124 123 116 116 167 201 181 174 163 178 155
24 14 45 51 34 36 17 35 58 77 75 78 34 183 215 228 167 189 211 256 298 315 301 275 282 467 467 484 372 353 257 183 154 159 205 169 133 107 110 112 125 129 133 133 157 161 121 181 118
84 49 38 75 15 55 50 -13 37 45 55 45 45 83 237 295 261 238 234 231 375 410 353 322 335 454 525 450 400 352 249 158 142 174 199 168 123 111 106 110 110 89 106 206 154 151 137 157 190

GFSSGP_con_3kmhel_015.txt.gz
Helicity
15 6 40 69 93 98 48 52 39 48 149 141 141 122 188 166 109 137 101 117 174 166 49 88 117 101 81 79 78 74 69 65 64 62 62 50 55 46 33 22 15 18 21 15 7 2 -3 -3 -12
12 33 69 96 80 45 78 36 136 100 128 214 318 155 172 146 94 103 155 113 118 211 111 101 125 90 73 66 67 63 62 57 58 60 54 51 46 38 33 24 23 23 22 18 12 8 3 0 -2
13 37 93 88 64 47 22 17 101 95 132 124 111 165 110 109 64 17 146 120 195 190 137 109 128 99 74 74 72 63 51 55 52 54 48 49 42 39 35 34 33 23 19 7 2 0 -3 -2 17
37 85 100 64 -6 13 104 35 194 263 222 195 70 117 115 186 72 94 212 126 230 183 114 112 102 83 84 75 55 52 52 56 52 47 44 41 42 42 46 49 47 37 20 17 13 4 -4 -9 7
48 85 79 63 28 66 29 152 149 195 150 152 64 92 141 108 175 153 215 349 392 294 182 164 118 99 96 85 44 26 58 49 49 45 50 41 42 44 48 52 44 32 28 26 20 14 -2 -11 -10
66 59 81 17 17 69 80 317 371 262 129 113 132 201 136 149 203 167 207 227 280 259 330 238 161 112 93 3 -14 41 42 55 42 39 34 29 30 26 34 41 46 42 38 33 30 19 8 -8 -20
53 42 45 43 52 -2 80 91 65 84 48 82 181 200 146 201 148 149 121 111 176 267 211 175 108 84 -44 -54 12 35 59 33 11 18 13 8 4 11 26 36 52 61 49 51 38 18 15 20 -7
92 53 147 110 49 49 82 97 34 11 -4 65 59 83 119 94 148 238 215 205 192 176 200 381 97 8 -111 -5 19 41 29 3 -2 -8 -10 -8 8 17 23 38 55 54 52 45 30 30 45 54 43
23 81 108 58 -45 28 23 93 -34 52 96 215 66 170 219 143 208 201 165 98 51 79 71 -64 -131 -39 -23 19 -12 -23 -13 -7 -12 -5 2 3 -8 -7 12 27 40 35 26 27 28 26 45 41 46
9 19 64 -28 -89 -22 22 49 177 85 206 138 173 162 33 10 144 119 21 -54 -7 -60 -123 -70 -19 -44 -10 -31 -47 -36 -23 -35 -24 -17 -22 -16 -20 -29 16 36 45 48 43 25 22 76 54 76 58
82 63 -2 -16 -72 50 69 133 18 47 99 217 214 91 -7 -3 83 3 -30 -72 -164 -126 -60 -28 -15 -15 -53 -24 -24 -40 -36 -37 -20 7 -21 17 77 101 85 73 76 110 123 134 191 198 207 176 135
45 127 69 -18 37 -17 12 -34 35 -48 34 31 53 -13 -43 41 99 33 -31 -72 -108 -130 -22 5 14 -19 -58 -63 -64 -45 -38 -21 14 71 77 93 83 83 81 70 96 133 146 178 200 185 173 130 125
-14 44 -4 -15 63 -6 -43 -93 -49 -41 -33 2 -20 -39 -5 24 34 -20 -100 -60 -11 50 52 28 11 -39 -10 -5 11 35 40 33 61 77 73 67 73 91 105 142 152 160 132 131 119 92 75 80 102
10 22 -21 -1 59 31 20 -82 36 -39 -16 -14 -26 -68 20 22 20 32 36 50 57 57 60 28 30 51 100 121 83 52 53 98 106 99 90 137 132 136 135 135 114 107 58 59 53 62 88 105 111
25 31 15 35 71 81 51 6 27 24 -1 -9 -46 -79 28 -21 97 64 87 46 79 108 60 15 79 106 118 87 73 79 135 141 143 105 70 95 119 84 103 98 101 89 94 94 85 128 150 153 142
36 60 36 61 42 -32 40 18 49 25 31 15 7 10 52 2 150 125 155 150 163 102 22 4 65 103 99 92 88 125 112 76 70 97 104 101 101 91 91 91 87 99 124 140 162 125 105 110 116
4 21 48 69 16 10 36 117 88 21 38 56 101 56 72 98 138 159 208 209 158 77 31 78 94 118 114 134 116 99 82 83 79 88 86 98 113 116 92 74 63 69 114 134 133 136 129 112 112
53 57 -13 32 35 -11 2 102 55 55 184 147 30 48 81 68 91 118 180 200 175 82 90 167 134 128 150 152 90 110 104 141 83 130 111 93 71 91 125 130 133 133 133 158 162 154 135 125 125
93 -10 34 31 32 18 51 146 169 207 197 131 85 50 -15 80 131 125 227 248 204 129 184 212 164 126 172 126 148 112 197 157 142 133 126 118 100 110 134 139 154 158 142 127 125 126 125 117 153
54 47 -5 1 -4 -11 51 87 151 194 131 83 201 157 -76 133 196 161 300 334 321 236 197 213 146 93 94 96 97 106 140 127 143 155 117 105 125 132 134 133 170 163 133 124 126 132 128 153 187
-5 42 46 102 13 0 -1 81 153 13 28 62 172 89 -22 292 238 177 245 372 331 324 247 176 97 67 96 252 224 245 264 245 215 223 196 159 178 171 158 193 191 167 143 139 140 146 171 169 187
38 13 55 43 54 14 18 67 52 80 36 80 201 83 173 184 286 347 251 373 384 302 247 221 122 203 240 295 325 354 324 399 373 356 249 245 223 204 202 183 195 158 122 138 152 175 196 216 253
-5 -6 34 51 21 141 -9 47 75 150 28 -39 -6 72 131 238 358 432 329 381 334 316 315 241 344 389 301 302 351 409 512 521 483 416 361 275 246 189 231 196 193 141 131 136 183 220 228 227 221
-5 15 3 11 30 82 48 161 123 237 54 49 39 -33 80 232 356 346 364 368 314 310 360 404 488 475 390 399 396 490 550 523 471 399 338 264 188 223 240 207 165 130 149 160 174 182 204 212 223
25 29 62 75 93 25 37 54 28 118 133 90 21 81 111 195 299 411 421 360 298 290 416 501 563 451 444 466 491 502 483 459 413 326 281 252 219 240 225 188 165 138 138 161 161 149 148 178 206
32 2 37 49 36 -53 -30 39 -8 128 107 79 28 59 67 159 273 318 295 248 397 465 490 459 449 455 439 426 423 419 433 399 352 308 267 220 199 195 217 203 178 151 132 183 155 130 142 154 159
39 47 20 104 39 45 18 9 72 92 34 6 73 116 146 209 282 242 276 370 530 533 505 464 463 423 412 391 401 417 422 401 367 323 295 268 241 157 170 156 152 134 166 165 161 133 125 140 151
41 21 85 98 18 1 8 29 42 70 42 52 65 146 213 315 246 243 327 473 548 522 450 410 411 429 401 380 383 384 389 367 334 311 298 257 227 201 141 146 132 121 139 152 156 154 145 159 160
41 57 64 66 75 39 37 60 25 36 54 59 50 181 343 388 357 331 400 451 479 452 382 331 407 457 432 432 402 378 345 311 277 265 212 209 211 186 158 139 110 109 102 118 138 146 146 220 228
43 32 57 102 63 83 57 35 25 46 28 37 51 173 255 337 370 384 446 496 497 511 496 455 471 504 505 500 412 342 306 272 257 266 265 192 155 159 138 105 91 85 105 123 111 110 143 192 179

GFSSGP_con_3kmhel_021.txt.gz
Helicity
45 42 53 114 121 134 115 83 39 81 43 48 45 66 69 114 148 116 73 116 158 184 145 156 165 166 177 177 164 92 89 94 77 94 83 72 65 52 35 39 44 50 53 64 65 87 99 105 92
32 33 82 101 124 119 88 32 84 48 47 27 90 86 127 110 90 83 150 112 176 168 150 146 162 183 187 153 142 125 75 63 66 70 58 65 53 42 38 37 38 37 35 38 49 97 118 117 96
38 54 79 108 99 44 50 43 20 51 60 37 40 86 65 63 39 18 80 184 228 159 152 156 182 195 172 125 126 85 65 46 61 47 54 52 50 33 31 29 32 33 52 57 60 84 104 106 82
47 76 77 95 80 5 8 65 53 74 60 112 71 94 59 92 4 47 110 165 242 238 165 154 185 162 138 106 87 66 43 35 56 29 38 36 44 23 27 44 53 56 60 67 80 83 91 79 80
73 56 73 81 52 33 24 38 23 99 98 140 68 47 66 52 100 140 192 270 267 185 144 136 135 105 96 91 75 38 12 19 25 24 37 40 35 39 59 56 47 53 53 41 41 43 53 83 96
75 36 68 37 37 42 24 29 54 87 53 42 74 69 51 102 172 167 246 391 451 356 290 147 179 183 161 135 44 16 2 -9 -0 34 26 41 57 69 55 48 38 38 48 31 29 28 57 78 98
49 34 29 57 104 38 35 1 25 77 45 38 69 77 90 181 165 153 311 460 329 188 254 396 420 347 359 136 56 7 -42 -10 41 40 51 54 55 49 37 25 45 54 51 66 60 71 71 96 87
39 36 51 87 104 50 -25 -16 -11 38 69 81 83 58 105 120 140 133 193 253 313 263 198 177 376 387 320 87 86 56 36 47 51 46 14 26 39 36 71 78 72 82 124 112 103 96 124 149 139
41 31 45 76 109 34 7 -7 12 71 96 75 91 97 140 107 82 75 177 252 309 171 38 -45 106 137 206 233 89 9 18 36 44 23 13 36 51 72 81 84 98 122 108 107 113 143 155 169 153
25 12 21 41 63 37 2 1 -2 52 107 127 150 162 183 129 31 43 50 138 195 122 -10 -9 -127 -230 -286 -144 -38 -11 9 38 15 -31 -20 74 62 62 80 99 93 103 131 157 194 206 200 156 114
5 28 35 39 49 -9 7 18 27 83 44 37 108 131 197 130 54 34 -10 52 17 -20 -95 -209 -203 -135 -149 6 -7 -7 -29 -41 -35 22 31 22 40 63 87 101 110 138 143 156 180 185 171 161 132
41 105 100 43 16 8 -40 -40 -9 8 23 147 97 87 19 157 30 -59 -33 -51 -55 -52 -97 -96 -80 -55 -30 -24 -13 -12 -20 28 6 -18 -6 28 61 88 101 133 134 157 154 190 175 155 153 173 192
99 125 31 68 19 11 -7 -10 -20 51 151 212 102 44 -73 -26 -79 -85 -100 -73 -35 -88 -69 -23 3 12 10 -6 -15 6 -30 -27 -44 -24 25 70 79 97 132 178 183 170 143 130 125 138 153 169 174
126 93 40 1 15 1 9 4 -6 37 132 125 69 6 -61 -47 -74 -89 -71 15 -50 -25 -16 -11 -6 -13 -23 -22 -27 -37 -44 -28 22 57 69 95 145 159 176 155 143 134 112 109 128 139 154 168 150
86 68 9 21 -3 17 31 -44 25 55 90 63 42 -4 -39 15 5 20 1 24 29 -1 9 -22 -33 -44 -56 -47 -49 -23 1 32 85 91 125 174 156 147 147 135 122 103 107 124 128 138 143 139 112
55 54 64 -28 -26 -1 10 -4 13 73 107 71 42 16 -31 -12 16 -8 -2 20 -2 -40 -42 -52 -69 -59 -49 -27 -21 42 67 92 106 140 161 138 135 140 154 136 117 105 117 119 113 109 129 129 119
101 19 -0 -4 -37 9 23 4 4 72 37 60 57 51 10 -36 -40 -20 12 24 15 -18 -25 -27 -33 -10 12 44 43 96 114 136 150 165 144 131 141 133 143 118 89 86 110 102 85 99 95 85 78
75 53 38 5 -15 42 34 65 112 51 20 42 54 29 70 72 49 20 25 13 9 -0 15 33 30 74 118 145 134 151 146 163 150 161 138 143 143 146 135 107 110 85 99 81 58 87 113 94 78
123 76 3 2 -11 18 57 126 198 46 29 49 49 69 89 120 79 83 54 25 9 3 62 60 96 132 196 208 204 167 164 173 193 169 153 168 168 136 140 124 94 115 119 92 104 91 108 123 96
56 67 44 49 5 -0 -7 75 83 119 73 98 123 127 109 95 91 99 89 86 79 80 116 142 166 185 180 212 190 143 180 181 185 173 162 168 158 148 167 140 124 139 133 156 138 125 112 120 125
63 46 93 112 45 69 102 124 58 44 34 48 75 129 128 168 192 154 167 178 138 133 166 192 224 214 193 230 297 308 267 251 229 206 201 173 180 201 198 177 172 168 150 140 151 176 174 197 172
29 14 41 65 33 53 75 35 2 14 36 28 102 105 135 184 198 208 177 219 242 212 143 188 264 264 251 319 337 334 295 278 202 215 214 226 210 209 203 202 198 191 160 163 157 212 204 224 198
75 77 52 32 29 61 72 82 61 55 8 42 105 157 175 177 269 326 248 248 268 245 184 169 217 296 304 317 305 367 354 239 275 290 299 283 283 284 257 221 224 209 185 211 173 277 266 197 209
24 29 94 77 51 60 58 65 30 132 161 181 100 127 148 225 236 309 318 296 234 284 251 212 270 281 307 291 242 402 397 342 359 355 346 345 353 319 300 276 243 230 217 183 222 265 220 170 181
29 58 44 66 91 24 87 62 10 29 119 208 226 149 88 245 244 360 353 349 288 336 295 286 316 310 319 256 297 368 416 438 405 417 410 389 364 337 354 302 281 231 154 234 218 302 243 139 162
4 12 38 32 46 64 89 28 9 32 -1 -18 17 52 49 103 191 291 364 321 344 297 277 314 326 290 367 308 368 394 459 491 500 494 459 436 435 382 332 342 270 128 196 263 174 203 197 171 140
41 53 26 67 75 89 59 35 16 7 7 43 25 49 56 99 152 243 353 362 347 291 311 334 317 373 334 353 442 472 484 522 576 563 552 525 454 411 361 294 179 246 207 228 235 195 167 165 150
49 54 74 79 92 67 35 49 23 17 49 41 13 10 2 63 125 171 238 291 302 295 335 386 411 408 443 516 530 503 492 539 576 636 611 521 530 482 391 252 281 255 220 288 215 152 161 176 145
107 130 168 115 125 90 62 39 24 25 82 47 23 34 41 47 86 137 189 214 276 313 363 447 487 498 509 511 561 602 580 589 590 566 496 508 455 381 332 281 239 240 225 204 138 184 181 191 121
92 113 172 129 125 119 89 42 43 27 43 46 26 33 33 60 78 129 199 302 332 321 361 403 431 459 515 554 562 544 538 526 536 480 433 452 384 351 301 290 298 237 239 135 152 185 186 156 121

GFSSGP_con_3kmhel_024.txt.gz
Helicity
37 36 43 69 108 92 61 66 39 77 62 29 53 45 69 131 78 77 29 100 185 233 236 165 150 157 183 181 154 142 150 117 93 103 79 60 64 50 52 60 57 64 65 66 57 48 43 47 36
26 32 62 59 122 105 51 29 81 57 93 95 53 29 71 86 77 51 76 92 170 204 227 188 177 186 187 167 139 119 140 86 121 96 69 67 58 47 59 69 73 74 69 62 56 43 34 37 32
29 49 54 68 89 65 39 54 79 58 55 66 53 75 54 64 50 45 73 129 175 205 241 182 183 187 185 157 141 100 104 107 99 85 54 73 60 54 76 69 66 59 39 32 32 37 31 25 35
32 52 58 90 56 26 21 69 61 70 66 71 30 66 32 53 -3 63 125 192 236 198 180 164 149 133 147 146 121 92 64 126 90 70 54 45 66 69 73 64 50 40 27 12 27 39 47 45 53
51 46 65 60 44 41 22 58 37 48 67 70 46 62 48 44 88 149 218 200 244 267 215 87 90 137 132 133 95 50 125 79 59 47 53 55 59 56 57 52 38 22 21 34 31 42 45 36 57
48 31 41 3 35 34 34 17 14 33 55 38 77 71 50 68 126 165 232 308 358 382 316 219 151 164 123 114 58 98 24 71 38 43 64 60 51 51 50 45 36 34 46 56 57 40 58 53 47
23 9 5 52 112 71 6 -5 17 2 46 73 51 82 51 120 118 156 206 249 394 369 302 299 380 378 290 123 69 39 63 15 47 37 54 47 36 52 68 58 54 62 69 74 98 86 86 90 85
32 22 44 66 92 52 5 10 18 32 85 85 96 35 13 110 142 187 236 234 229 240 220 380 330 380 485 164 108 115 40 29 19 43 55 47 93 90 76 92 75 86 65 85 105 119 99 105 98
23 25 13 54 46 34 11 22 23 56 87 77 54 18 42 107 178 211 262 296 284 247 249 475 433 580 469 197 130 67 -18 6 47 79 92 93 60 69 96 91 94 75 81 98 112 135 130 126 122
11 2 2 42 18 -5 -0 12 17 15 55 81 66 92 111 131 159 172 198 185 172 123 113 18 59 140 190 351 176 -34 11 71 58 62 60 63 75 90 92 96 83 100 141 158 169 163 148 119 90
15 54 17 64 69 32 2 -6 -3 23 29 -3 55 67 117 164 146 143 93 79 80 -29 32 101 80 31 40 -45 -13 -13 32 74 4 -9 -11 37 68 76 84 82 107 146 160 152 153 143 125 129 115
78 108 80 51 21 13 -32 -20 -19 -14 11 41 27 47 132 142 108 27 65 -10 -66 -169 -190 -139 -129 -106 -22 29 29 35 -13 -13 -20 -23 26 37 52 75 98 129 136 154 132 125 124 136 145 161 166
64 68 44 41 20 12 -8 -0 -1 41 105 72 40 38 22 -23 24 -8 47 7 -81 -104 -87 -68 -85 -76 -46 -50 -33 -4 13 -4 16 -22 -7 30 75 104 113 142 156 125 106 108 124 137 150 160 173
44 60 29 17 4 -13 21 -12 -22 -1 60 27 19 -39 -117 -101 -73 -143 -23 -5 -19 -32 -54 -45 -39 -10 -8 -9 -16 -74 -29 8 -28 -28 32 75 97 115 123 126 121 118 103 102 119 130 133 147 161
95 17 -1 19 -13 -1 33 -13 -23 54 38 35 9 -54 -137 -127 -59 -51 2 1 -11 -38 -45 -14 -0 13 -9 -31 -44 -46 -50 -11 -32 30 74 107 118 124 135 129 112 93 92 117 130 133 128 133 154
63 53 40 6 -18 11 -3 -2 6 54 46 33 9 -0 -53 -58 -5 16 17 -0 -24 1 13 9 -0 -17 -48 -68 -57 -59 -43 11 53 87 119 141 132 126 135 121 97 86 124 126 132 110 111 104 132
73 49 51 16 -33 3 -19 -10 60 83 38 41 33 -12 -34 -39 -0 38 46 18 -0 7 3 3 -15 -35 -51 -63 -56 -28 -5 42 83 125 151 141 137 131 133 118 122 126 118 106 101 102 89 101 99
45 47 19 6 -30 11 -12 23 83 135 76 73 37 23 -4 -20 -2 19 46 32 -3 -21 -27 -14 -19 -25 -17 -7 -7 42 45 61 102 130 141 149 151 139 146 146 143 119 121 139 118 94 101 85 93
68 57 14 -3 -14 76 35 28 106 117 69 45 30 17 11 8 -41 -24 10 19 -8 -14 -14 17 29 38 60 73 85 92 96 80 109 142 141 138 147 155 168 158 153 156 154 119 85 63 76 102 87
46 38 49 -8 24 30 24 56 79 114 62 51 96 53 15 -27 -43 -1 -2 21 39 55 41 43 53 106 120 150 161 142 134 132 162 159 154 144 166 181 182 182 185 173 135 116 90 79 108 120 141
53 67 29 24 15 64 68 74 59 30 -1 -11 -0 49 53 61 30 11 48 32 33 72 94 108 113 150 186 217 291 277 286 255 233 220 213 187 186 195 223 204 176 154 140 133 106 98 85 135 141
82 -6 -9 38 42 17 50 21 25 44 42 23 70 49 48 46 53 74 119 78 54 74 81 96 150 213 230 278 310 328 325 321 223 238 239 224 213 231 232 227 204 183 158 139 121 95 87 192 201
-15 -9 10 38 53 77 55 50 17 95 72 56 69 143 139 94 136 156 141 151 171 115 112 155 190 222 280 310 316 322 311 329 309 300 285 267 256 251 264 242 234 221 192 206 214 211 132 175 253
62 33 82 69 69 62 51 57 10 56 152 129 81 107 166 176 171 160 167 203 190 196 189 181 240 235 285 293 302 312 351 368 387 349 316 314 324 315 284 257 251 245 254 248 255 99 267 205 258
66 107 75 67 83 20 62 66 -23 -37 17 60 104 163 252 285 293 280 284 306 285 266 240 256 270 261 298 278 290 289 357 426 370 393 405 377 371 361 332 362 316 152 208 207 177 270 211 207 231
45 49 70 26 40 45 66 25 17 14 10 -4 -12 40 110 130 286 331 327 369 313 312 278 285 317 347 307 228 260 354 308 366 403 451 469 441 443 447 462 446 383 312 236 251 253 223 194 236 203
36 67 39 89 76 71 67 71 44 37 12 10 22 10 33 86 123 167 277 330 306 292 307 324 359 358 331 273 378 450 407 422 452 459 475 508 489 485 415 447 387 361 308 234 155 237 242 190 172
57 45 87 93 72 52 69 67 14 30 27 45 54 17 -10 2 32 61 110 211 275 276 273 307 330 372 355 357 340 349 392 452 498 567 548 519 536 513 466 311 352 344 221 201 258 233 144 173 179
92 97 110 99 109 71 47 47 57 13 17 30 35 26 8 1 22 44 60 93 174 198 209 261 296 350 371 387 363 341 379 436 470 498 503 532 536 437 396 371 379 262 247 279 328 176 134 170 175
67 61 107 129 121 152 98 82 69 38 17 40 55 14 29 28 26 35 39 37 73 103 109 128 213 309 335 349 403 378 408 414 431 451 463 468 428 419 391 357 294 331 309 344 236 107 146 200 199

GFSSGP_con_3kmhel_027.txt.gz
Helicity
35 28 29 51 48 88 97 59 44 73 66 93 64 73 133 192 169 80 31 82 205 237 174 118 122 134 155 171 159 136 110 104 124 142 99 105 95 70 55 32 22 11 4 6 8 6 5 11 21
27 29 43 51 69 80 55 49 48 44 73 74 81 42 87 120 100 53 30 61 185 232 186 151 166 158 140 133 116 98 85 111 127 131 135 102 105 68 59 26 13 7 7 1 2 9 19 28 27
27 34 36 54 77 52 48 57 116 76 52 41 52 104 91 84 69 42 48 91 219 231 186 169 187 158 126 116 106 97 107 96 159 114 144 104 77 70 46 14 7 13 18 7 -4 7 15 29 32
26 33 41 28 4 18 29 77 74 88 40 38 38 64 57 100 22 29 64 99 222 189 172 170 169 152 132 127 122 118 133 121 105 119 124 73 78 61 44 26 24 18 8 12 4 2 1 15 25
31 27 21 12 -1 35 42 44 30 33 52 57 36 69 49 40 97 99 120 151 183 199 151 135 172 187 137 152 120 125 122 116 87 165 113 75 74 43 45 33 32 17 7 12 19 19 6 37 45
12 6 -3 -24 40 39 39 19 40 23 32 50 75 77 51 19 103 126 187 192 203 303 293 208 251 235 153 131 92 111 78 98 119 117 60 77 51 43 58 61 46 35 22 16 39 45 33 43 62
-6 -6 -2 28 86 83 36 7 45 46 42 68 77 68 42 49 102 163 228 261 254 294 401 416 329 373 256 137 120 94 63 102 103 58 52 101 57 75 71 75 71 58 43 44 60 63 55 74 83
4 -2 15 24 71 60 33 17 25 54 49 57 61 35 58 79 174 183 222 254 341 388 431 484 445 420 276 232 64 36 89 79 84 39 84 102 76 78 85 79 82 78 74 78 74 106 117 102 88
-3 -11 26 29 35 56 34 35 30 39 56 47 61 74 108 139 191 223 232 219 231 224 242 238 339 405 610 392 33 62 83 65 13 81 112 100 74 74 76 71 68 73 107 100 127 129 118 111 100
-6 -8 34 11 11 5 25 12 17 25 31 58 62 103 153 127 165 198 191 194 206 223 207 324 485 569 556 556 224 123 47 52 18 68 91 106 87 82 62 72 83 118 140 146 142 137 107 75 59
-4 9 13 63 60 10 31 -12 8 22 14 7 33 89 144 162 160 159 131 134 120 149 174 336 558 689 531 641 439 287 18 -10 15 86 99 83 75 73 77 66 86 102 116 104 102 90 86 93 91
60 71 85 26 1 -17 23 27 29 5 21 10 29 92 181 178 82 61 41 48 8 48 87 111 96 128 85 -33 -60 -111 14 30 38 43 23 51 74 77 75 96 101 97 96 99 88 89 103 124 121
58 60 6 14 -2 14 12 9 12 41 71 64 35 60 71 45 85 9 -38 -72 -102 -116 -53 12 -33 -47 -27 -24 53 18 20 20 17 25 46 44 51 72 91 96 97 95 79 80 80 95 104 113 124
19 44 27 3 23 20 2 -2 1 -4 16 11 -10 -5 -80 -55 -38 -34 -45 -48 -108 -120 -32 -22 15 23 20 -9 -25 -30 -40 -21 13 32 20 21 51 87 91 90 83 82 74 71 86 98 113 124 120
53 29 18 15 3 -12 20 -7 -37 -9 -5 2 -29 -66 -111 -55 -11 3 11 18 49 14 4 -7 -17 -16 -20 -24 -34 -18 36 28 20 15 21 49 71 74 86 82 79 74 79 107 102 114 124 120 120
37 19 5 12 -2 -0 -14 -13 -26 6 15 21 -11 -64 -55 -49 -1 7 38 47 31 37 13 -2 -2 13 -1 -14 -1 15 4 11 6 11 39 55 54 78 80 72 81 88 97 88 90 102 104 105 105
57 44 15 9 -23 3 -11 -13 31 15 -8 27 13 -4 -18 -16 -3 13 39 39 39 36 11 11 5 -8 -34 -71 -74 -30 -11 2 18 46 63 69 78 77 75 84 100 112 118 122 106 88 81 86 87
25 41 26 2 4 26 -1 -2 57 30 55 33 31 16 6 15 24 27 42 19 12 21 16 13 6 -4 -20 -70 -35 -14 -17 14 41 56 69 96 97 101 100 121 141 145 147 132 111 114 102 77 71
39 33 35 17 -1 18 22 23 81 58 52 53 49 54 42 29 39 31 27 27 17 6 7 5 -10 -27 -41 -42 -42 -34 -12 37 46 61 87 115 120 117 137 160 173 163 146 144 139 128 103 77 48
34 27 40 18 15 16 22 47 27 95 58 60 52 40 41 23 -12 -5 10 4 22 37 34 29 34 43 45 27 26 42 74 94 102 122 130 137 148 151 162 177 180 168 178 169 144 122 114 94 35
28 26 17 5 5 43 22 34 32 58 19 8 23 28 16 23 13 -9 -1 25 10 7 13 5 6 32 47 74 112 131 175 145 152 170 169 178 182 199 193 183 184 191 183 167 140 109 92 91 145
45 48 -19 -0 17 34 37 53 17 79 50 23 4 7 21 15 12 7 34 48 64 54 19 30 53 90 90 125 143 176 179 189 170 173 196 224 212 235 243 225 221 206 180 168 151 109 66 88 110
39 51 -8 -4 31 46 33 14 14 25 46 106 94 56 20 8 20 39 40 32 44 51 59 60 73 105 133 155 164 174 175 209 202 243 293 267 254 232 250 257 250 237 237 254 268 195 80 78 132
30 33 20 36 50 42 48 41 5 15 29 51 110 97 85 65 55 36 30 60 73 79 77 81 97 105 142 174 212 190 226 271 273 304 345 312 297 285 271 275 278 284 311 303 200 191 115 88 158
93 98 65 42 75 43 62 58 5 -28 -18 -17 6 81 104 119 95 102 114 113 114 135 143 145 132 152 188 209 257 242 238 313 322 383 406 403 367 314 328 329 316 307 290 199 173 182 125 160 166
104 65 40 11 51 66 66 26 27 18 16 -11 -3 9 6 33 80 119 116 138 153 176 163 187 192 182 226 263 241 273 258 311 331 328 354 405 386 340 350 333 325 370 260 148 174 177 136 181 193
62 74 70 91 76 50 60 34 2 22 21 27 37 25 25 -5 17 63 72 97 141 176 187 220 212 183 208 257 247 228 270 289 345 347 370 396 387 380 378 364 378 367 177 220 173 116 196 176 182
66 76 91 92 47 26 41 50 41 10 15 35 27 35 26 29 10 31 35 60 100 170 142 135 150 195 211 207 230 258 270 274 356 349 337 372 388 377 378 364 379 171 246 181 227 257 218 220 144
84 82 101 94 94 45 46 61 47 37 31 16 29 9 -21 -21 -18 -0 37 60 82 111 156 149 119 114 140 194 226 290 312 281 309 322 340 374 409 442 365 435 231 268 287 284 282 262 208 132 114
98 88 91 100 46 89 85 80 90 38 20 19 17 22 1 -0 -16 -2 33 35 7 21 40 38 53 86 137 212 216 225 258 277 284 309 348 411 403 386 357 344 370 397 373 359 366 330 142 74 113

GFSSGP_con_3kmhel_030.txt.gz
Helicity
32 10 3 4 19 48 17 28 48 54 89 91 52 84 59 210 113 110 76 65 128 179 122 110 151 147 170 190 188 166 145 138 124 123 103 90 56 45 2 2 -7 -15 -9 -5 0 5 6 10 12
23 12 4 20 5 19 5 68 51 70 81 70 72 62 98 145 202 151 68 10 115 161 172 118 179 188 186 184 169 151 140 128 106 123 121 87 62 42 9 9 0 -5 -8 0 4 1 8 17 18
17 1 -5 4 3 -3 50 70 70 87 40 71 67 92 101 157 120 75 35 54 103 156 193 161 179 178 168 165 154 144 128 110 116 112 116 77 67 43 23 6 9 -2 -3 3 4 -3 6 13 19
15 16 3 -24 -5 37 71 59 75 79 30 56 41 47 37 -133 37 47 30 109 139 180 192 187 193 183 180 162 135 115 105 116 104 105 90 101 87 27 25 22 19 16 0 1 2 5 13 19 23
6 -2 -19 -10 16 40 45 46 40 53 54 44 50 34 57 26 59 7 32 140 201 189 205 180 195 199 166 130 106 79 105 120 94 103 86 94 79 54 22 29 22 26 27 16 15 18 24 27 25
18 -15 -20 -2 15 32 30 20 36 36 33 36 49 61 75 25 37 61 110 141 175 188 188 209 212 177 211 183 141 104 114 112 94 99 71 103 88 66 50 35 40 40 46 41 38 31 30 37 45
-14 -8 18 27 39 35 45 17 29 45 27 50 52 71 67 66 70 97 160 190 219 282 348 465 468 341 257 203 163 117 114 97 68 97 103 117 121 77 74 45 44 47 54 65 63 47 47 49 56
6 62 30 12 41 41 54 28 17 30 50 41 74 47 48 54 99 145 203 263 299 348 429 491 367 291 220 304 78 88 120 28 113 108 144 130 120 88 60 54 54 50 68 77 78 68 66 74 52
14 43 10 24 57 53 39 38 27 32 34 63 67 73 96 105 122 131 216 268 426 417 527 612 557 491 454 356 301 57 41 56 107 121 92 59 76 57 20 94 67 85 88 99 92 87 77 59 57
6 -6 13 8 6 28 31 54 39 19 34 65 84 97 128 92 95 116 129 188 180 280 327 453 503 422 334 209 148 0 43 31 74 94 81 72 81 77 72 77 94 99 119 99 102 76 31 -8 23
-48 45 24 15 3 -9 29 86 3 18 30 55 42 77 116 108 121 121 139 207 195 214 220 293 404 414 364 219 83 110 47 102 80 40 65 34 79 59 55 58 52 55 59 56 45 21 27 34 32
7 26 36 21 15 -17 3 24 9 6 46 48 77 84 77 82 76 87 112 173 198 204 202 240 342 540 628 787 517 199 161 109 -4 60 15 36 65 55 45 42 48 52 46 54 36 36 50 59 62
46 35 22 13 -8 -18 10 8 38 67 70 61 52 56 88 56 27 51 83 49 88 149 157 156 266 399 217 131 113 38 -29 -2 35 14 25 22 41 48 53 51 49 50 42 41 42 47 57 69 59
24 45 29 -7 11 1 6 21 45 34 41 26 23 27 65 97 -59 -12 -8 -16 5 5 -6 22 68 38 -38 -87 -53 56 24 9 25 7 4 30 47 47 54 59 55 44 37 36 43 52 63 57 51
51 29 -17 25 -2 -23 50 52 28 30 31 19 3 -2 -23 -57 -95 -72 -35 -17 -14 -17 62 26 7 0 -23 0 21 5 5 1 2 17 21 36 31 43 50 45 43 43 49 66 55 52 53 48 52
-45 -15 4 22 -6 -11 44 6 46 21 25 20 21 24 -9 -6 2 30 11 43 27 31 17 14 10 5 -3 -7 -39 -34 -43 -34 -39 33 28 15 33 39 32 36 46 57 62 56 64 58 66 57 50
-8 10 24 35 -19 -2 37 4 64 37 8 17 15 19 21 14 -2 6 25 53 34 9 2 11 2 5 4 -15 -35 -49 -57 -59 -6 -7 11 22 26 35 29 41 65 61 75 77 79 82 70 67 68
11 -3 2 3 24 3 -4 5 47 53 17 11 23 26 22 18 24 33 27 20 41 39 35 26 12 6 -26 -58 -84 -83 -56 -37 -2 -1 9 34 40 44 44 56 72 77 87 88 102 105 102 94 75
4 10 18 29 25 13 20 4 18 71 26 34 27 23 17 15 3 1 12 10 14 15 19 25 16 -6 -35 -51 -50 -35 -33 -13 -10 16 31 56 57 58 69 76 90 89 91 119 124 135 123 120 99
-13 -3 24 31 27 22 21 8 6 78 57 29 26 6 10 5 11 4 -8 -6 -1 11 13 10 8 3 -14 -34 -38 -31 -15 8 21 42 58 72 82 75 99 112 110 112 141 147 157 145 144 146 99
-10 -1 43 42 18 8 33 19 5 50 38 20 3 -21 -17 4 11 4 -4 8 12 13 11 1 -4 -12 -18 -16 -7 3 49 65 70 86 106 90 106 112 117 134 162 174 157 163 155 147 162 169 146
-5 8 42 25 5 3 23 5 12 31 53 38 26 19 -20 -9 6 15 27 22 30 28 12 5 6 13 15 13 35 58 68 69 77 90 101 133 131 137 135 148 178 196 196 190 184 197 172 70 95
16 47 47 25 33 22 19 28 66 10 15 51 56 62 33 9 -4 -12 -9 2 13 24 33 21 16 18 40 58 62 66 55 72 108 100 114 142 161 175 166 182 195 207 215 212 211 177 132 80 81
30 60 46 14 36 17 34 25 19 25 -10 -3 17 49 49 36 36 9 2 -1 1 20 30 37 35 35 42 62 68 72 64 86 154 159 183 202 234 254 228 238 237 228 217 217 222 192 153 62 106
-1 25 14 17 46 18 59 29 7 24 23 3 11 12 25 24 23 33 35 32 34 57 64 67 70 75 84 103 89 107 107 163 138 195 223 254 256 308 285 279 277 290 248 275 250 214 173 129 90
37 21 60 57 38 43 51 31 27 47 36 8 19 9 19 22 17 28 37 45 63 66 87 94 99 93 117 132 138 154 143 198 178 192 299 305 330 415 369 382 227 253 350 263 262 161 179 120 142
53 33 85 73 84 51 33 18 10 19 19 2 14 25 27 29 23 45 22 34 29 49 84 99 115 130 140 168 148 178 168 200 271 237 287 294 321 321 413 363 285 357 282 280 232 193 161 168 162
12 79 90 92 72 52 41 37 28 20 40 29 30 30 34 29 29 22 31 54 50 29 42 48 61 82 111 127 122 129 157 149 213 188 261 304 303 286 318 348 343 400 281 337 162 202 228 180 238
59 53 95 86 96 75 62 41 43 15 35 28 25 33 33 34 34 23 18 46 50 49 48 55 56 34 55 70 87 104 120 222 226 238 211 189 192 248 362 496 554 312 253 181 275 201 248 234 144
-29 -3 48 80 68 104 80 36 28 21 19 18 18 32 36 25 43 48 48 63 75 71 57 61 57 57 59 62 68 83 142 142 153 153 168 170 199 315 408 393 284 281 191 298 293 251 318 329 113

GFSSGP_con_3kmhel_033.txt.gz
Helicity
14 32 28 -3 6 26 -25 7 51 70 46 88 139 66 33 201 154 94 78 124 130 199 175 152 173 164 154 150 162 140 121 105 102 88 62 37 37 27 7 -11 -23 -12 -7 3 5 12 16 13 6
-21 -1 12 -27 2 -28 40 2 37 15 89 72 70 119 85 128 236 110 92 113 219 199 171 180 186 176 160 153 152 139 122 108 99 80 49 36 40 42 33 7 -3 -1 -2 3 6 13 10 7 2
-2 -3 -22 22 20 -31 45 77 82 57 66 24 44 72 131 174 197 240 37 64 193 136 114 238 203 187 155 156 150 140 123 113 89 73 48 38 48 65 44 31 11 8 6 10 7 9 3 1 -8
8 38 30 -2 -35 -3 54 55 28 4 26 21 54 23 30 44 24 69 144 22 159 223 209 165 260 185 186 178 157 136 120 112 88 71 52 44 57 77 64 39 16 18 16 15 12 10 10 4 -7
18 0 -7 27 -1 44 30 28 19 36 46 76 33 73 99 -18 -52 53 48 13 139 159 131 161 176 190 190 164 151 144 138 101 88 76 64 65 61 70 71 52 33 29 27 16 14 12 9 2 -6
0 13 5 27 50 37 12 45 26 38 39 31 1 92 53 79 9 10 20 68 128 169 169 229 193 220 191 169 167 153 130 112 87 76 90 75 83 82 78 62 53 45 37 29 18 10 14 13 -8
0 -11 7 6 18 123 42 36 17 38 35 46 48 61 56 73 53 58 158 193 229 277 364 367 242 199 286 248 175 156 145 103 89 79 108 103 102 92 48 71 67 65 58 37 30 24 30 15 -2
-42 -8 15 -2 8 -21 49 16 31 12 61 58 74 32 53 89 94 175 222 277 294 308 351 430 413 318 260 202 227 208 200 130 119 77 108 107 84 92 59 71 74 71 60 50 38 37 31 17 20
-4 -5 -2 30 42 46 26 51 50 49 24 55 136 116 105 125 126 173 203 269 358 324 401 459 471 438 269 229 122 145 135 118 126 90 69 55 74 43 48 86 68 76 61 65 53 38 22 28 0
-8 15 14 28 19 14 44 23 63 17 45 45 86 94 102 122 106 104 132 209 245 336 406 407 467 547 699 518 469 265 171 181 1 40 73 34 51 27 60 80 81 72 78 70 45 6 -1 -3 8
11 -25 40 35 27 3 27 20 33 52 84 54 49 55 95 89 122 126 147 126 136 322 486 648 777 1014 498 880 442 463 86 -42 36 46 61 54 93 77 59 40 42 35 43 31 10 -4 -13 21 20
-7 10 6 11 9 0 23 13 5 80 9 2 54 47 46 43 69 118 170 175 195 216 342 385 321 374 307 314 135 20 -24 5 70 49 -27 61 55 22 16 -31 37 29 12 30 13 26 26 26 40
-4 2 -1 -2 9 21 15 63 58 76 91 128 43 22 33 76 99 116 147 203 209 305 305 263 332 281 252 241 193 140 264 191 10 -47 -2 10 -2 11 -15 27 36 31 53 24 21 26 25 29 28
38 -4 11 -12 30 53 9 56 56 82 95 22 43 41 30 88 74 35 83 106 128 171 258 274 249 299 418 330 399 357 205 26 -64 -13 23 33 19 2 16 34 41 56 30 28 22 35 28 29 39
-2 22 36 27 46 30 34 25 51 65 80 42 42 -13 -62 -54 -40 -7 16 7 39 48 99 92 77 64 112 248 65 55 61 41 20 -16 -44 -2 5 -6 31 43 60 46 50 50 70 44 50 40 35
11 20 32 71 28 28 184 33 62 44 58 63 62 48 1 -47 -15 38 8 24 -5 -5 -18 -42 -4 -25 -37 -79 21 -31 -8 -9 -35 -23 -15 -1 -17 4 41 46 43 55 54 45 51 51 50 51 50
30 -8 98 35 10 23 143 107 26 45 44 60 75 49 33 78 105 32 10 32 64 29 -17 -6 -6 -5 -29 -6 -30 -59 -59 -65 -37 -29 -36 -14 -8 38 40 38 53 57 48 59 58 65 67 87 75
-20 42 24 72 34 -14 5 42 55 27 33 73 69 55 48 53 40 32 26 44 28 32 16 8 2 4 -9 -29 -29 -41 -42 -37 -21 -8 -39 -8 5 39 35 54 65 43 61 73 68 91 91 97 109
27 21 -28 53 -35 7 -6 126 -12 43 28 48 30 75 42 38 41 -3 13 60 33 50 46 26 13 5 -4 -20 -25 -30 -33 -38 -37 -25 -18 43 23 43 46 60 66 58 78 85 124 120 116 118 122
-18 -19 -26 34 41 9 -7 -10 47 62 34 54 39 59 35 46 39 26 9 17 46 37 31 26 25 7 -6 -10 -15 -33 -28 -18 11 -6 4 49 54 67 65 73 81 76 109 167 144 127 121 126 127
-16 -20 48 4 9 -2 -1 3 48 48 51 41 26 35 37 46 66 48 23 27 24 25 46 30 26 29 13 -13 -9 -18 -24 -33 11 25 42 58 58 75 84 83 98 111 132 163 154 141 136 150 129
1 -17 16 24 27 24 -6 44 20 62 50 58 59 36 46 38 40 54 44 35 39 25 25 13 14 14 20 -1 -4 17 25 43 45 55 72 97 87 90 93 112 110 150 145 170 167 161 163 185 182
-40 -12 28 8 21 22 21 6 64 12 53 47 50 69 42 46 37 42 63 59 64 54 43 36 17 20 16 45 8 45 38 49 47 76 89 84 118 107 144 153 151 180 175 186 196 204 194 193 195
-18 12 12 -10 -7 16 30 -32 57 25 2 35 51 63 60 56 38 31 39 50 41 48 56 48 32 32 31 53 69 44 99 52 70 180 118 89 193 179 185 193 235 247 191 245 160 222 198 211 158
-5 -2 1 -8 6 16 21 35 15 20 23 33 21 24 76 66 32 27 28 36 31 63 62 54 50 43 53 54 71 88 91 75 65 153 237 158 176 266 221 200 246 303 321 439 484 273 252 234 156
52 -18 -21 -29 -28 19 61 33 7 30 73 45 18 20 16 37 56 27 25 47 45 63 95 81 68 61 74 80 109 79 98 91 117 213 238 299 259 220 166 286 393 426 473 442 370 345 221 175 64
-18 32 -22 -46 34 39 -10 12 38 16 21 18 12 26 17 25 12 40 33 32 41 64 102 139 70 75 71 100 145 114 141 169 156 205 227 254 312 385 308 298 378 468 444 454 418 307 187 147 131
-38 25 -7 -17 -16 14 14 8 35 39 0 44 1 18 32 41 49 41 32 41 38 36 75 142 96 56 76 101 212 200 146 127 158 228 237 261 255 262 301 352 358 411 466 521 356 272 197 106 269
62 1 -7 -6 -21 5 11 16 63 58 19 27 26 44 29 45 48 37 32 29 45 87 83 112 101 54 67 80 118 176 137 157 197 271 191 181 228 236 269 308 331 471 558 484 310 269 148 262 312
-3 18 40 22 7 12 32 35 17 21 19 56 14 52 56 44 44 46 48 50 57 64 72 80 72 65 113 140 86 153 188 256 265 244 168 188 188 169 231 298 365 447 468 317 221 292 226 264 391

GFSSGP_con_3kmhel_036.txt.gz
Helicity
2 24 27 30 -1 41 1 21 45 30 46 77 106 -4 92 308 110 93 -16 -16 -1 21 118 180 194 197 161 137 111 92 82 82 81 83 76 66 50 54 48 24 17 18 14 16 14 10 8 0 -16
-8 -49 9 -28 -11 -60 21 66 44 79 64 12 41 33 119 196 78 44 88 -22 3 134 91 166 235 217 178 141 106 89 84 85 91 87 79 68 45 45 34 22 17 15 6 14 12 11 6 -7 -21
-10 -7 -17 45 8 23 22 1 55 62 48 50 0 172 158 108 140 37 109 243 240 167 119 139 244 223 186 146 113 95 93 97 100 89 93 83 55 46 39 24 15 10 3 8 10 6 -7 -23 -27
15 53 65 -9 9 -16 18 28 48 25 -5 22 91 144 68 31 86 175 168 175 216 146 137 176 196 216 193 150 120 108 105 106 105 101 102 86 62 57 47 26 24 8 6 9 6 -1 -12 -25 -28
56 19 30 39 59 14 46 40 41 14 37 48 19 152 62 67 49 117 139 100 160 8 166 200 188 231 264 146 131 119 119 122 113 107 95 89 73 76 63 36 25 19 13 6 3 -2 -12 -15 -3
-31 37 17 46 18 136 169 131 8 2 35 31 190 127 75 76 71 95 78 32 173 440 180 229 187 216 200 142 136 150 160 140 138 124 92 90 85 86 64 51 40 25 17 6 -1 -5 -7 -5 -4
13 -18 -10 12 22 20 -2 -34 50 33 31 103 27 94 58 48 70 103 109 98 107 119 272 250 254 208 178 175 160 162 166 177 153 144 95 86 82 86 74 56 43 39 25 19 12 1 1 -4 -14
12 -20 20 -3 6 67 67 124 81 81 49 -76 49 49 39 54 109 168 201 224 313 134 192 254 209 170 237 196 198 212 199 162 170 153 94 95 97 95 87 57 42 38 34 25 15 13 6 -11 -30
-1 -4 25 21 41 67 24 34 58 -12 127 119 99 55 58 111 119 161 201 299 308 365 484 383 389 198 186 128 170 185 195 183 195 100 45 70 69 66 48 38 44 46 34 27 13 7 -3 -28 -54
25 15 -21 18 65 66 15 44 50 95 80 92 96 24 44 48 99 110 132 178 245 339 337 405 389 309 401 260 333 199 78 151 135 77 55 118 43 32 53 58 67 52 30 11 2 1 1 0 -46
19 29 -2 19 78 0 11 32 10 42 8 -113 58 53 32 92 90 98 122 169 220 372 419 390 417 450 521 580 566 435 198 208 178 103 145 36 36 44 69 61 46 37 11 -9 -12 -12 6 -4 55
-7 24 0 -17 -9 -13 25 40 59 76 95 49 75 36 26 68 78 88 117 130 195 343 506 474 607 726 634 861 537 719 591 417 111 161 0 35 5 24 34 28 27 -12 -30 11 -20 11 17 25 24
16 25 -11 -4 -48 8 22 24 90 101 153 81 62 55 100 161 121 113 141 206 239 252 224 381 537 652 743 576 332 345 343 393 60 38 -10 -7 -22 -15 21 -9 -11 -27 -35 13 37 25 6 14 27
-4 -18 -4 15 -10 36 79 60 89 176 141 45 58 125 94 82 84 84 115 167 195 275 385 355 515 482 467 269 192 170 21 -69 -34 3 -42 -63 -36 0 24 21 8 1 50 25 28 17 19 13 36
-23 -5 38 23 24 65 84 48 9 35 73 59 49 -17 -29 26 49 36 34 95 125 127 148 222 271 287 160 183 101 43 20 189 34 -147 -131 -4 27 18 13 46 7 68 10 55 82 85 62 64 78
2 36 71 78 -2 123 176 -19 5 -37 170 46 84 37 -4 -14 45 60 27 47 69 106 69 34 42 89 132 188 176 29 -116 -108 -36 -52 -47 -38 -36 -25 0 -35 48 55 117 116 76 65 47 60 58
53 49 27 65 -4 159 201 57 25 -15 81 144 99 75 79 9 73 32 54 15 1 16 32 4 20 -16 -58 -10 -33 -77 -65 -53 -29 -34 -32 -42 -23 2 -23 -44 73 142 113 65 79 51 78 105 92
4 -43 2 57 17 52 224 173 19 -55 28 74 93 85 116 142 126 66 63 32 25 -22 -43 -34 -70 -69 -91 -27 -71 -79 -118 -67 -54 -33 -19 -21 -26 3 -2 -4 167 137 82 90 103 118 140 140 92
-39 -9 23 85 37 -7 60 243 11 -39 8 96 135 102 73 79 190 82 51 76 33 -24 -24 -29 -75 -102 -82 -41 -28 -72 -71 -62 -45 -64 33 17 -24 66 65 11 186 123 80 111 113 198 205 133 175
0 -40 -1 80 54 13 -8 152 144 -1 -3 92 79 180 87 104 163 97 106 67 93 64 11 15 13 -2 -17 -33 -62 -58 -33 -48 -41 -8 -8 76 -24 144 100 50 184 133 87 138 214 225 189 146 185
-14 -21 -9 -61 29 6 -15 -7 224 -49 49 79 47 117 42 127 181 125 91 128 120 126 56 31 78 71 46 23 -16 -54 -5 -20 -11 70 34 1 54 126 128 96 164 166 102 204 265 232 188 178 234
-10 19 -7 -5 -29 5 56 22 56 34 78 79 79 76 124 157 165 173 92 102 132 139 95 58 70 70 39 3 -22 22 50 25 3 134 105 90 93 104 128 131 135 163 149 205 251 230 188 210 255
-13 4 -70 -2 -19 -27 29 -11 22 4 81 81 144 49 76 133 145 219 169 110 138 120 144 64 59 91 80 46 -22 33 82 40 34 63 161 144 175 144 132 125 202 202 230 271 302 230 185 245 299
5 59 7 -7 -29 -65 -42 8 19 50 15 51 134 69 59 93 122 156 188 143 104 98 85 105 56 80 59 112 67 5 104 77 45 138 172 250 170 148 220 226 308 406 372 350 353 361 393 446 405
6 5 3 20 0 -25 6 16 7 93 79 117 79 132 -50 73 113 108 171 201 169 145 157 130 109 55 64 94 144 111 44 111 79 63 206 298 206 308 362 372 386 477 398 367 456 454 544 474 413
76 -17 16 -46 -46 -59 106 23 -3 53 34 6 32 88 -1 76 153 124 77 204 223 213 234 215 183 131 84 131 167 191 136 126 120 35 109 307 293 389 386 326 333 404 542 482 432 549 502 488 343
19 53 -16 -75 81 19 54 11 26 49 36 50 19 32 29 31 160 151 62 93 197 243 278 267 213 151 90 121 190 160 230 209 182 64 74 331 431 455 363 325 374 336 404 421 501 549 497 336 262
-69 -6 17 11 -57 -24 7 31 39 86 17 44 63 8 17 60 56 39 87 97 146 204 293 339 347 211 157 118 196 224 386 374 228 96 84 352 440 373 318 316 300 404 374 424 472 512 422 377 202
34 2 26 -4 -24 35 15 -1 132 161 10 49 32 56 73 86 72 48 41 43 48 130 169 268 444 242 218 178 215 311 351 414 191 116 312 358 288 223 235 247 366 416 365 431 479 467 368 185 257
48 42 30 1 -40 18 35 -44 56 18 50 6 71 50 74 71 56 53 39 31 22 38 110 161 185 164 180 157 301 228 256 227 293 328 309 255 229 208 218 283 349 344 409 422 448 374 286 338 229

GFSSGP_con_3kmhel_039.txt.gz
Helicity
-2 -1 29 -4 53 40 66 72 150 -1 27 20 -35 5 -34 53 74 55 15 -10 58 242 24 81 151 128 161 170 132 102 83 69 85 104 119 111 94 86 83 78 63 53 43 38 30 25 23 23 29
5 -11 56 15 29 38 31 145 118 14 -51 -20 17 67 77 98 120 51 43 36 -88 108 -4 52 119 122 147 147 124 108 84 89 100 116 118 102 84 83 69 65 51 38 32 27 18 16 14 29 35
4 -3 -13 26 47 137 169 132 -30 26 9 -13 35 119 90 119 140 80 32 68 35 93 8 92 217 126 135 153 131 106 92 105 119 123 112 94 86 68 63 44 29 21 15 18 16 17 23 33 58
-1 -9 -24 -6 35 143 183 13 93 39 13 26 10 106 75 128 60 49 102 186 177 69 62 158 192 156 147 169 137 110 114 132 140 140 115 84 60 57 44 29 22 19 12 15 21 18 19 25 49
20 -11 26 73 113 105 44 51 10 189 62 101 2 5 17 60 109 35 50 184 181 264 227 111 181 156 156 174 126 112 124 147 158 146 128 93 55 43 32 24 20 14 5 9 13 27 24 20 47
-3 38 35 75 127 55 1 -12 30 76 157 122 91 98 81 48 39 57 74 155 126 153 115 191 243 206 183 168 161 116 150 183 186 169 144 110 65 49 42 33 26 11 0 -1 10 23 32 33 58
70 27 69 69 132 44 -26 -25 37 -23 43 65 -38 48 41 83 80 92 81 149 147 172 236 176 255 193 189 196 182 136 164 198 205 177 158 128 101 71 59 35 24 7 2 5 15 18 14 38 78
32 91 13 71 52 14 13 13 55 100 96 93 2 41 -9 -3 62 129 142 46 102 223 140 222 282 311 241 169 224 179 174 178 174 183 167 117 111 80 57 42 21 17 10 8 3 -5 -3 11 53
1 -32 22 87 75 23 21 5 -14 55 64 96 73 93 114 5 95 139 161 151 116 74 240 206 139 282 200 171 154 191 154 155 142 141 146 116 92 67 33 31 24 13 4 -10 -13 -12 -17 0 36
58 89 109 69 45 52 37 54 49 73 28 100 110 37 49 66 94 101 131 125 115 199 242 221 297 205 171 160 169 148 218 205 122 156 166 115 108 37 46 38 34 22 -2 -12 -4 3 8 31 35
28 64 98 30 42 54 54 63 89 54 46 13 120 89 72 63 75 113 126 206 253 253 287 282 331 456 426 445 379 361 197 114 115 204 102 73 89 89 46 45 22 22 1 3 4 11 26 39 -3
43 35 -10 2 48 57 52 75 88 74 26 75 92 102 76 81 71 115 142 204 308 333 323 327 306 318 373 342 386 355 413 251 243 239 88 57 44 15 27 8 16 16 0 -18 3 4 0 2 13
19 20 -13 -39 -16 91 193 137 97 -3 32 69 58 89 109 58 91 111 150 178 260 403 387 386 354 391 465 614 379 626 421 249 280 140 69 32 18 -21 -28 5 20 9 -7 -12 12 19 17 13 27
-82 -31 -43 -7 22 109 167 99 107 75 72 13 61 86 110 80 97 121 132 163 195 205 333 473 458 583 559 646 622 591 309 299 486 82 95 34 -18 -71 -1 6 5 -15 -26 4 23 24 12 31 43
-52 -76 -40 35 57 121 157 135 55 79 91 76 79 62 66 42 45 66 95 107 152 227 305 386 475 549 605 455 433 278 264 61 205 83 93 -33 -68 33 -53 29 -47 -31 20 44 42 40 52 55 51
-33 -53 3 29 142 163 236 95 63 145 106 95 81 34 79 64 51 96 101 88 75 128 154 218 307 372 299 256 168 195 118 38 -9 -2 120 -25 -35 -17 8 -20 -13 66 58 95 102 93 91 85 71
-43 47 67 103 91 153 103 111 64 162 250 112 128 56 74 62 91 96 103 96 90 73 93 81 91 77 100 85 70 8 88 -21 -3 -74 -9 -31 -43 -33 -11 -30 22 86 124 128 114 97 103 104 102
49 33 25 13 139 97 172 160 40 134 245 120 196 124 100 156 132 81 63 53 35 31 28 52 37 7 42 71 10 -23 -9 -83 -147 -76 -42 -45 -46 -61 -22 -17 33 141 143 118 112 107 115 128 135
45 3 -2 19 98 191 239 204 130 56 122 99 172 198 212 262 168 70 42 37 19 0 1 -36 -70 -70 -32 -13 -52 -103 -169 -162 -139 -98 -54 -29 -23 -12 -2 37 101 176 175 123 130 151 161 187 180
14 4 -22 -46 48 36 124 123 78 -28 -31 131 221 201 288 314 228 137 82 85 25 1 -16 -48 -92 -99 -73 -104 -165 -208 -194 -211 -133 -101 -72 -37 -13 -5 11 54 147 161 178 155 163 216 237 201 204
-68 -11 -60 -42 24 15 38 136 109 -4 -93 -43 180 228 350 401 269 171 146 115 85 31 4 13 -17 -56 -67 -75 -109 -122 -131 -114 -88 -88 -67 -21 -11 23 -6 68 163 142 152 167 191 274 286 239 224
-18 6 1 -6 -16 -10 43 -7 52 17 19 9 140 212 271 352 295 246 184 126 136 70 30 11 34 -5 -20 -13 -27 -48 -55 -53 -37 -21 4 48 21 20 48 92 189 198 171 197 218 303 333 300 298
-30 -19 18 57 -25 -29 -78 -23 25 98 140 43 143 185 154 339 401 331 252 211 125 103 95 44 54 71 54 29 15 -18 -12 -14 46 67 83 78 95 85 171 126 188 234 237 293 407 371 403 414 329
-60 44 50 8 15 -32 -40 -78 -83 152 164 53 94 126 140 269 359 352 285 230 208 144 108 86 83 64 58 56 40 15 24 30 73 118 129 138 149 184 221 190 236 249 402 449 508 589 382 523 437
-84 5 68 52 68 21 16 -100 -83 -6 145 147 229 147 192 292 308 323 285 271 215 245 207 146 115 120 114 85 63 63 63 141 165 110 172 187 195 176 190 232 304 385 480 473 475 449 502 410 461
-15 31 123 50 46 -22 -6 -49 -83 67 108 81 163 89 119 249 206 327 372 338 269 252 266 259 199 169 176 175 143 80 107 127 148 199 238 209 185 150 208 286 337 385 458 487 475 441 394 404 477
-26 42 87 92 69 12 -51 -42 -41 -7 -12 37 -1 89 61 76 117 215 372 361 322 321 311 312 290 223 192 229 198 199 173 137 257 295 274 159 390 299 171 327 358 416 469 441 417 388 407 474 455
80 40 64 72 66 -18 -40 -19 6 -22 -23 2 86 48 -15 9 26 117 327 334 327 366 405 413 361 301 263 228 256 264 265 234 281 301 203 174 265 362 313 377 417 401 370 374 344 388 445 456 385
118 42 45 82 122 58 9 -2 52 40 72 66 96 97 108 77 82 68 123 171 178 327 363 395 434 391 195 71 124 144 299 344 317 374 397 243 229 330 345 347 282 306 325 336 353 382 396 390 329
137 99 63 194 136 81 60 -52 33 53 2 161 21 48 72 117 157 154 95 143 148 138 231 356 475 517 385 216 97 191 435 563 383 399 354 211 315 301 277 233 262 301 344 332 340 350 346 303 305

GFSSGP_con_3kmhel_042.txt.gz
Helicity
19 37 18 20 -8 -25 12 3 96 107 -6 0 -12 14 41 107 70 118 105 104 107 183 177 304 82 102 115 184 181 129 124 128 139 162 178 170 154 153 140 117 100 87 71 64 69 70 63 50 24
6 17 7 -16 1 69 31 23 -23 52 -3 23 43 8 34 -1 119 112 96 -6 41 245 268 170 107 58 160 155 143 121 111 103 108 132 140 138 129 127 112 92 76 67 62 59 62 68 64 65 43
-10 7 -35 -31 38 70 87 99 -9 72 179 84 70 67 22 8 47 62 42 -38 -139 60 121 254 275 97 149 154 141 98 95 99 112 117 117 128 114 108 97 78 61 47 49 53 62 77 103 87 36
14 -27 -23 13 80 126 144 15 0 13 115 132 88 126 64 84 59 53 50 55 -40 -68 93 110 214 295 183 263 187 102 89 98 113 115 116 112 97 93 80 62 48 44 45 59 78 105 135 121 75
-6 -30 -43 25 21 62 89 65 -3 36 76 83 63 117 90 69 60 41 10 18 58 -4 53 110 222 158 269 240 55 111 105 126 129 126 122 116 100 92 64 54 44 42 57 73 81 114 133 116 78
13 -11 44 136 132 137 45 55 10 -2 3 24 72 48 71 93 63 62 53 31 79 173 202 181 281 201 131 184 135 152 153 156 134 125 126 124 97 77 69 51 36 32 44 66 76 83 118 98 90
74 12 81 116 123 -6 36 35 46 3 52 38 54 84 51 64 89 99 121 59 71 151 178 198 157 273 270 114 135 178 173 180 169 147 145 116 114 88 66 38 27 28 30 50 70 73 123 129 65
44 -12 31 44 55 16 33 40 30 26 18 44 26 79 28 89 124 34 68 115 127 123 131 137 233 586 555 227 143 287 221 196 195 202 177 140 116 78 58 34 11 16 13 34 58 92 131 170 98
-14 6 68 61 30 28 22 29 35 30 48 52 50 100 53 48 40 22 56 121 143 202 146 142 287 269 288 101 257 290 266 204 201 178 179 171 101 71 59 28 8 -4 14 28 62 93 114 133 80
-8 29 24 93 51 40 100 88 106 58 76 47 78 101 99 56 63 61 54 77 135 197 209 22 154 163 199 180 200 223 164 168 159 145 138 140 94 44 42 16 -8 8 11 22 48 66 77 84 53
-2 32 90 123 79 30 125 127 128 90 74 66 84 95 58 -22 62 73 85 83 100 195 197 168 160 130 107 70 164 132 151 189 151 168 119 89 63 41 44 11 8 28 15 16 22 38 55 30 32
-16 63 73 93 36 42 104 149 158 113 115 90 110 132 140 10 40 86 114 147 163 217 330 240 189 216 138 117 177 274 195 281 145 154 107 126 61 48 34 18 9 14 17 17 24 33 29 39 50
-8 -19 -42 -23 29 78 142 159 125 100 78 98 82 98 139 66 14 70 107 167 204 229 246 243 220 222 147 148 280 358 331 290 95 97 121 79 115 59 24 25 3 13 23 23 22 14 20 33 38
-90 -26 -36 -50 -56 70 197 138 129 82 88 78 43 95 132 78 58 64 86 122 225 267 249 275 235 195 162 237 372 389 305 201 146 135 96 86 100 18 24 13 -16 8 36 11 11 6 25 27 40
-62 -86 -87 -91 -55 42 222 181 137 142 119 65 61 79 113 82 58 93 84 115 134 279 353 281 282 189 178 262 535 329 385 367 352 206 151 203 36 22 24 -5 21 0 16 -4 19 46 50 45 40
-36 -104 -76 -26 65 87 147 114 141 188 178 142 89 68 51 78 91 105 85 93 115 170 182 376 277 171 274 368 441 284 404 370 255 214 215 84 37 37 25 32 22 -14 -8 12 43 65 52 54 53
-46 -44 -31 26 69 127 156 87 98 192 212 151 115 61 32 59 77 105 90 86 103 144 122 238 329 335 351 238 192 110 191 252 253 105 177 141 108 76 22 53 -26 -15 36 66 96 92 115 80 67
23 -8 -20 56 56 96 136 106 109 187 248 208 148 79 62 61 69 94 100 86 85 108 97 97 126 155 131 125 18 24 58 56 -91 -78 -44 38 -5 -51 -47 -29 21 104 122 131 135 132 107 116 104
-45 -13 61 148 116 142 86 102 210 164 170 179 171 109 101 59 47 71 74 88 88 64 77 104 153 103 96 7 -17 -73 -84 -106 -143 -139 -158 -70 -15 -61 -36 38 88 124 160 147 130 150 145 146 179
-8 8 71 80 40 83 69 41 121 166 104 176 176 162 160 109 89 89 64 59 74 99 36 28 35 55 39 -3 -61 -81 -86 -145 -123 -168 -211 -95 -45 -33 -22 51 43 102 116 157 182 201 212 203 236
-39 -4 56 68 13 73 118 -5 19 151 162 130 95 204 246 318 153 115 115 90 78 70 51 15 -1 11 10 -28 -80 -63 -97 -156 -185 -249 -256 -180 -77 -43 -26 -1 30 99 139 179 206 236 277 296 249
52 41 33 -5 52 77 99 21 -10 56 95 104 48 223 311 390 252 141 120 112 104 56 21 2 -26 -36 -16 -56 -107 -142 -145 -154 -200 -203 -178 -137 -66 -28 6 41 66 105 148 165 206 238 275 318 409
52 86 13 8 41 65 33 93 24 8 12 70 81 161 370 421 403 319 174 102 124 81 63 12 -27 -56 -61 -61 -84 -123 -154 -187 -190 -198 -147 -107 -82 -15 50 72 116 119 143 161 225 278 353 366 449
37 30 19 68 87 -3 37 49 -6 -3 26 88 36 149 341 391 390 341 273 174 124 91 49 42 35 -30 -63 -36 -53 -48 -37 -47 -101 -124 -70 -54 -54 -37 34 85 138 163 189 218 272 316 393 430 426
15 104 96 93 153 45 40 38 -30 -49 -75 113 151 121 253 334 392 322 246 240 184 197 168 119 134 95 37 28 9 17 27 18 3 -28 -23 -2 0 36 108 167 169 134 187 255 340 384 405 403 387
73 109 132 70 84 68 80 21 -4 -19 30 50 11 209 113 201 329 358 345 332 282 254 224 193 189 151 148 135 93 59 40 21 -21 -26 20 70 81 111 239 222 178 192 202 264 391 449 427 411 370
72 139 79 118 119 109 71 69 16 -28 -35 65 70 143 62 134 246 299 307 354 348 297 270 288 251 227 216 204 153 124 109 116 88 71 138 214 178 148 272 222 254 204 274 290 445 491 413 417 390
102 58 130 175 133 85 72 64 0 20 -18 5 26 62 43 145 222 250 262 291 315 335 346 334 291 300 303 239 178 134 116 136 145 174 219 259 283 282 197 133 209 223 220 372 464 428 391 401 382
114 128 122 133 163 122 61 42 17 22 32 9 68 -9 29 119 182 245 305 299 332 288 331 368 327 298 263 294 242 317 242 204 260 306 325 368 415 305 22 80 173 204 279 321 347 373 372 363 350
79 66 111 162 202 165 144 30 54 36 -15 47 36 20 16 -7 61 170 285 318 326 308 283 330 399 383 362 393 283 292 290 383 435 339 352 488 287 261 80 105 145 222 329 323 295 335 320 330 332

GFSSGP_con_3kmhel_045.txt.gz
Helicity
21 24 26 -20 -13 27 95 20 37 34 0 3 45 75 27 14 25 46 75 92 66 131 165 206 243 349 392 281 128 173 194 183 166 161 163 161 161 140 139 147 148 141 126 121 112 90 76 55 52
22 25 10 -48 85 174 104 31 52 16 14 38 74 74 96 33 18 74 72 10 70 106 152 182 230 291 315 307 84 186 286 156 116 121 124 157 142 144 157 153 135 124 122 121 96 70 44 21 28
21 24 -24 1 86 146 134 72 25 30 54 44 80 144 140 127 114 90 50 60 67 116 181 175 223 281 409 470 116 147 159 162 99 108 116 151 149 158 163 142 122 115 112 118 94 55 33 39 46
35 -8 -4 59 134 100 105 142 61 36 31 28 38 106 113 69 69 57 56 71 69 77 134 142 181 257 202 165 46 129 154 154 94 100 112 142 164 164 141 138 126 116 126 126 81 44 39 64 66
34 1 42 69 115 55 39 17 46 16 15 28 44 83 118 63 57 38 39 99 84 60 83 66 189 177 167 122 84 95 220 123 78 94 116 143 157 148 141 131 123 122 136 124 97 102 112 69 41
50 3 90 133 131 45 9 61 116 36 32 32 67 101 118 134 88 44 40 51 78 101 60 35 107 199 242 268 161 87 137 113 84 98 121 144 130 114 119 123 115 124 141 138 122 104 81 58 27
76 4 44 80 91 19 26 92 72 68 75 58 87 113 99 113 75 52 96 67 82 149 143 100 121 279 289 134 35 67 188 120 84 103 111 127 125 107 105 112 111 118 147 156 132 90 47 25 26
29 -25 33 51 78 39 64 108 134 114 60 89 85 69 89 68 38 81 94 114 97 149 223 323 209 166 283 185 95 11 149 96 113 125 127 121 100 93 87 93 82 104 132 166 148 106 37 9 28
6 -26 74 46 49 20 108 126 126 132 91 95 71 67 101 63 37 41 53 86 109 136 203 236 161 335 392 258 260 -3 125 183 171 167 129 172 140 118 109 87 76 87 106 139 141 115 62 22 20
-13 2 16 20 59 -28 63 111 159 132 144 115 87 95 127 100 25 23 36 47 122 163 214 145 288 517 689 522 133 67 82 112 137 146 176 182 123 100 41 26 33 50 94 147 123 83 65 23 16
-15 -8 8 83 140 81 111 148 133 174 141 135 111 116 116 118 57 81 53 78 121 153 172 99 -16 91 31 174 217 141 202 161 156 161 185 174 144 90 73 62 50 20 81 107 87 80 64 30 25
17 9 21 -18 18 95 154 144 141 164 127 139 86 86 90 110 42 41 58 45 78 118 126 141 126 166 122 152 49 -25 55 113 100 171 182 158 146 99 51 30 9 20 48 50 51 71 53 40 29
110 2 -49 -1 15 42 153 109 154 218 135 89 84 70 35 79 -37 6 59 70 86 122 105 119 163 135 93 102 51 5 -15 111 221 154 152 166 128 103 33 42 40 23 56 44 37 51 56 50 49
54 -27 -17 -54 3 23 94 128 184 210 151 103 100 77 63 101 48 20 54 88 122 140 168 179 94 84 48 -4 -45 48 79 199 176 191 170 132 105 82 48 65 33 30 64 21 24 32 34 43 54
42 -41 -75 -47 -35 -2 137 143 186 207 154 103 85 81 91 96 93 66 62 75 128 228 166 167 160 149 200 -17 76 165 200 163 197 202 154 95 85 64 78 48 40 28 41 43 50 50 53 52 56
47 -9 -67 -57 -15 8 87 125 156 212 161 114 68 63 82 79 100 94 75 65 80 88 144 157 133 116 59 58 106 258 390 228 182 198 172 116 68 56 107 65 40 44 47 51 48 50 50 58 42
83 16 -30 -88 -29 21 156 112 120 183 157 142 92 55 46 80 102 83 88 81 78 75 187 145 148 99 145 110 352 319 371 281 182 208 194 139 60 79 72 31 57 63 64 38 70 62 75 68 51
78 89 49 25 -14 -15 30 98 102 149 154 144 126 71 46 37 71 84 103 89 113 109 81 181 208 108 81 181 309 337 323 273 221 230 127 143 90 159 68 67 -9 -11 28 49 100 91 90 89 98
117 110 74 -12 72 55 116 59 66 130 142 132 145 93 88 41 42 90 91 102 118 128 159 139 145 161 157 130 167 225 111 67 109 96 46 38 151 122 66 1 -32 19 9 68 90 125 136 129 144
66 76 33 56 71 72 34 67 14 145 174 179 152 104 99 63 78 92 99 116 112 139 126 143 155 149 42 -34 24 31 -64 -66 6 27 66 -60 -6 37 2 -25 27 57 103 116 156 168 182 142 161
45 81 41 76 82 88 45 2 7 42 141 144 90 100 109 157 124 106 102 107 109 124 121 107 99 89 72 39 -25 -72 -162 -131 -144 -118 -163 -116 -10 3 5 -26 -62 60 115 130 164 198 214 221 184
59 45 47 82 101 172 111 82 -18 19 108 158 130 119 155 175 151 127 124 114 132 117 112 101 92 49 43 4 -33 -82 -82 -107 -122 -109 -137 -153 -100 -95 -15 -13 -47 114 130 135 164 204 239 266 273
46 53 101 104 79 137 119 156 63 77 40 105 129 126 129 189 218 232 201 136 100 109 120 75 69 30 24 -10 -65 -89 -108 -136 -149 -206 -253 -276 -267 -235 -118 -59 24 118 153 151 178 208 260 272 281
58 94 141 135 136 123 104 142 89 80 37 24 137 139 178 157 174 144 170 123 75 71 85 92 74 35 10 24 11 -16 -41 -76 -94 -141 -185 -243 -272 -228 -129 -71 38 98 151 165 186 238 255 277 283
147 155 140 135 178 97 69 129 89 55 5 26 27 114 197 231 170 171 159 182 164 143 112 131 123 96 55 30 6 3 -7 -19 -46 -90 -111 -158 -167 -146 -91 13 64 135 169 171 224 237 216 296 323
137 161 189 116 123 73 110 105 54 31 11 32 -9 30 181 218 220 244 232 211 183 197 171 178 156 103 113 100 42 13 -8 -44 -59 -82 -99 -80 -90 -92 23 51 120 180 218 147 147 205 183 215 261
88 151 119 137 118 84 64 110 105 66 15 12 14 68 95 214 215 261 306 258 217 204 217 229 228 168 152 155 138 97 64 31 -7 -37 -79 -75 -42 35 60 76 124 194 220 132 169 160 169 240 293
107 141 184 202 110 99 86 95 112 54 41 23 12 13 40 139 173 239 291 315 310 296 273 235 208 222 228 195 157 139 129 68 55 100 72 26 22 76 112 181 196 199 200 186 170 226 223 265 302
161 100 128 115 138 90 27 8 75 46 32 67 20 0 27 86 112 172 299 332 366 320 306 309 234 249 229 240 266 228 154 169 162 130 119 207 246 206 196 211 156 169 75 115 155 149 186 218 331
102 117 70 140 152 140 124 49 147 62 26 54 48 34 50 64 102 158 239 307 332 342 348 377 334 310 363 383 411 445 306 261 208 243 392 358 409 259 265 294 141 60 -60 0 61 172 244 274 350

GFSSGP_con_3kmhel_048.txt.gz
Helicity
39 45 24 -18 128 144 158 59 101 74 0 5 19 36 16 50 41 32 64 44 70 180 226 274 312 267 193 203 268 266 293 226 227 226 218 206 173 172 184 184 174 152 117 87 85 85 82 79 70
47 37 14 9 166 193 104 55 83 45 17 0 31 56 63 63 88 94 101 42 84 163 202 214 280 289 215 285 291 256 229 227 231 216 184 168 172 173 168 179 173 139 95 71 67 72 108 84 72
45 19 50 81 167 157 100 71 99 35 25 32 52 78 89 85 71 70 59 48 96 159 219 180 294 306 307 321 245 194 185 189 167 200 172 174 154 144 157 161 151 114 83 70 62 71 96 89 72
40 20 25 135 183 72 59 79 43 10 36 77 90 71 106 114 127 104 63 71 101 205 242 234 281 273 271 298 266 265 223 166 171 162 173 154 121 123 146 165 141 106 76 69 74 73 73 74 66
51 48 163 184 119 38 49 46 58 42 41 47 85 42 101 122 116 94 66 78 72 167 185 211 160 193 219 269 249 305 225 129 133 143 154 115 114 134 150 154 139 106 70 67 76 77 63 39 23
107 67 196 190 109 63 27 38 71 83 75 70 93 103 134 91 100 110 78 75 68 113 221 103 134 177 226 278 163 227 84 83 208 142 119 132 128 148 160 159 145 108 79 85 79 53 35 16 8
126 137 171 144 101 70 34 72 95 104 130 102 139 108 115 68 75 76 70 46 60 44 51 124 168 174 230 175 196 134 92 61 204 163 126 140 138 159 151 160 150 112 89 92 65 39 29 11 -4
118 116 183 90 101 72 27 74 112 154 115 161 158 69 83 83 99 94 48 64 101 102 71 137 232 360 306 215 234 175 16 23 224 162 134 145 125 126 152 167 150 121 88 61 38 30 19 12 0
74 148 156 85 71 24 41 35 112 152 141 166 187 143 121 89 106 56 68 52 102 152 137 148 282 369 285 310 87 69 116 41 133 180 139 176 153 149 143 143 134 103 82 63 23 22 31 19 10
109 124 88 18 48 69 71 83 125 166 135 167 162 175 107 54 75 27 39 74 51 102 125 202 266 335 375 120 158 147 189 66 77 163 146 175 131 113 101 113 102 93 108 100 73 52 50 37 8
84 77 43 28 72 80 24 99 181 189 166 146 191 153 129 122 107 51 46 89 118 119 121 104 173 280 440 387 255 212 139 -24 95 192 158 150 155 111 114 133 122 89 107 99 78 47 15 20 14
84 31 34 -34 -12 28 24 119 148 205 179 139 164 127 117 137 90 22 27 57 102 122 99 128 121 280 375 315 292 214 279 173 93 144 158 136 149 103 99 99 81 71 42 63 62 36 20 32 32
88 33 73 -11 -11 32 86 110 135 187 198 172 169 103 102 74 13 -39 30 48 81 73 91 127 117 156 148 335 230 204 150 73 95 117 140 134 123 78 93 70 61 37 33 68 98 59 39 41 42
116 43 -26 4 22 13 29 81 169 178 216 188 128 80 79 108 60 28 15 65 75 67 69 119 142 129 41 58 18 137 217 168 192 92 99 63 80 89 89 70 68 30 20 45 69 53 46 40 50
106 38 23 -30 6 -39 64 71 182 189 216 178 104 58 53 75 75 44 68 55 87 134 69 121 157 69 105 51 53 119 139 140 86 44 78 89 99 72 84 65 48 24 40 67 89 84 74 66 43
102 74 45 31 -29 -16 27 24 44 176 229 140 107 60 46 60 57 69 88 88 68 96 127 109 226 223 183 123 189 103 137 106 -19 -6 93 81 89 81 50 48 43 39 74 64 82 82 71 52 39
114 44 60 129 -13 7 -25 -49 -2 82 157 112 131 87 41 56 62 58 68 96 67 15 74 103 134 218 284 71 170 115 86 93 121 56 87 87 94 66 52 58 50 81 101 69 90 68 78 60 58
84 101 61 115 67 14 20 54 56 135 161 130 113 117 80 58 55 63 58 86 97 61 50 142 136 178 182 94 128 188 144 251 198 73 67 98 104 79 64 76 88 104 75 80 94 89 76 57 72
100 111 90 59 16 51 23 17 50 72 147 177 108 124 121 81 55 79 61 61 83 90 54 64 124 132 149 143 199 236 247 313 350 191 106 118 95 90 88 92 88 85 63 60 85 110 86 84 100
114 79 53 15 50 66 72 19 -24 47 107 181 151 94 112 119 100 107 86 71 82 99 85 71 65 121 170 161 203 253 244 315 372 161 166 150 104 114 112 137 90 54 1 16 101 124 128 109 122
100 113 86 72 72 44 122 84 23 6 56 84 156 99 75 159 164 142 138 110 74 103 108 95 76 59 2 6 93 278 321 282 309 87 112 71 166 161 91 27 38 -29 68 55 121 146 153 150 138
87 102 85 102 145 109 43 -2 14 -41 -25 37 124 134 121 132 142 168 158 147 104 80 101 113 94 95 56 11 -3 55 88 59 5 -79 -50 -45 -32 -12 -27 -4 34 40 110 108 114 148 173 199 192
81 68 86 131 136 159 117 155 94 55 -73 -35 58 142 131 142 191 189 195 178 120 102 87 107 122 84 75 64 65 48 66 28 -94 -156 -103 -114 -24 20 14 12 4 39 93 106 129 151 171 227 243
79 99 129 143 136 109 138 216 94 131 71 11 -28 80 132 135 154 145 152 171 138 146 125 101 118 105 85 57 23 26 7 -37 -124 -168 -153 -171 -158 -129 -180 -124 15 29 76 124 150 173 198 216 245
140 191 221 200 197 154 107 194 165 62 67 67 4 0 80 167 156 164 208 205 201 180 158 143 128 93 75 76 66 48 28 1 -52 -113 -164 -191 -232 -260 -196 -92 -19 33 63 111 177 198 184 198 216
180 203 234 158 156 141 186 105 122 35 20 7 -17 -11 5 74 159 150 214 198 212 217 216 174 165 133 125 98 79 45 15 -16 -53 -93 -105 -112 -133 -132 -123 -143 -70 8 55 110 168 188 153 138 187
120 182 121 129 85 89 87 146 135 108 49 42 -7 -5 -4 62 136 116 165 215 211 214 238 254 210 155 153 153 105 95 74 68 35 19 -1 -40 -43 -39 -21 15 37 71 92 133 154 178 116 77 103
118 89 190 256 141 103 142 89 80 82 36 16 -8 9 34 27 33 70 138 178 185 207 218 237 249 255 209 167 160 143 136 113 88 79 59 36 36 21 46 69 88 113 120 92 103 154 179 193 19
119 125 164 147 195 166 120 108 43 68 102 31 26 25 23 14 40 69 90 136 182 155 212 248 250 275 271 264 255 225 211 214 212 178 158 147 82 150 108 111 148 105 119 175 213 166 223 56 143
140 196 119 161 128 139 111 102 106 33 24 25 25 63 49 47 60 81 104 132 149 178 195 226 260 276 283 319 324 290 247 214 227 214 214 212 79 232 158 192 102 73 212 244 273 141 53 82 126

GFSSGP_con_3kmhel_051.txt.gz
Helicity
44 49 27 22 134 168 114 80 75 78 26 22 16 12 36 36 18 38 52 35 76 144 144 181 235 240 243 254 224 235 219 265 290 194 236 189 210 220 223 183 160 145 118 97 81 79 75 68 70
52 44 30 72 143 141 104 73 66 40 23 16 17 37 48 53 81 67 74 52 87 109 110 122 208 234 213 246 242 180 223 249 246 197 201 206 222 237 204 163 131 119 98 96 89 80 70 73 79
53 29 72 144 194 115 86 46 38 38 20 27 40 64 66 88 102 109 94 73 91 124 100 140 219 232 231 245 201 231 270 276 201 212 220 213 211 201 179 139 119 91 81 96 89 82 73 66 78
51 49 79 154 167 94 45 52 57 20 36 62 58 46 91 115 94 105 77 88 108 174 136 180 188 273 283 204 217 248 254 224 191 176 201 184 180 189 151 124 99 81 71 82 89 86 78 77 84
65 66 117 167 161 73 25 19 23 43 23 84 95 75 98 117 102 106 98 82 108 153 137 164 164 151 238 237 227 229 239 216 159 171 158 186 178 163 127 118 90 81 90 72 76 80 71 81 64
93 83 92 160 170 79 36 15 47 61 80 119 118 123 92 107 93 94 85 87 97 125 166 180 188 215 247 215 234 213 238 248 164 208 177 184 167 152 134 120 81 69 76 83 78 60 53 51 36
90 105 78 176 177 85 57 41 55 53 79 96 154 151 116 86 77 76 82 80 90 89 152 226 224 256 263 189 191 190 175 217 161 201 191 185 159 161 143 111 64 61 83 73 63 45 29 18 14
101 121 105 177 180 69 44 24 3 56 78 135 155 129 131 114 76 89 126 85 103 74 78 179 215 154 200 172 154 149 206 268 134 173 240 218 204 174 134 97 82 94 76 64 56 33 10 8 -2
99 120 80 188 177 75 6 31 47 83 133 142 187 182 189 128 115 87 97 75 71 91 68 82 103 233 239 238 145 89 133 144 80 195 273 237 151 115 106 78 74 70 62 49 41 24 9 1 -4
107 101 79 128 102 28 -2 42 47 99 147 154 178 172 175 134 100 59 44 47 64 48 101 108 158 223 247 231 103 161 251 218 67 208 246 173 160 133 91 71 65 58 45 43 30 38 25 3 2
81 41 42 99 55 22 21 15 84 101 122 187 166 156 182 139 108 42 32 8 18 -16 99 165 133 216 274 253 286 327 438 332 114 159 193 184 177 137 120 95 72 46 45 26 26 41 2 6 2
44 -33 47 18 30 60 53 50 36 116 139 197 158 166 165 104 60 -3 8 29 50 74 105 131 129 214 274 331 443 575 360 259 91 178 182 229 204 108 107 88 50 43 16 19 -3 -3 28 20 14
74 -18 52 -0 -1 12 63 46 -1 108 164 188 194 175 126 99 74 8 -2 16 50 60 84 90 126 203 326 476 448 493 307 223 130 173 154 186 154 109 72 57 56 37 25 -4 23 28 38 33 21
86 -9 -23 -5 23 49 34 -22 30 91 191 183 167 144 105 73 75 46 32 36 57 85 82 89 95 150 271 358 316 288 205 217 257 162 137 161 148 116 69 55 40 25 18 -4 16 24 34 29 24
126 15 -16 -7 39 43 35 -30 61 101 155 150 147 119 95 62 74 59 59 59 111 107 116 71 108 95 229 294 268 347 291 223 299 176 162 87 130 129 80 33 36 34 7 16 30 39 54 49 32
142 108 22 36 74 99 -17 -55 -3 81 118 93 116 104 84 72 60 53 39 67 97 133 131 111 114 67 82 67 105 218 223 208 238 138 68 67 133 78 81 46 37 41 26 11 55 56 73 61 47
140 78 59 32 68 68 41 -62 -16 25 52 90 122 108 86 52 46 49 67 61 96 113 102 151 148 141 101 121 84 122 175 175 123 83 -5 14 68 56 60 53 55 57 42 12 72 54 76 66 48
130 111 72 61 95 74 60 4 -9 57 81 96 117 141 102 58 39 38 59 70 76 93 16 148 187 115 176 123 43 110 157 85 34 -23 -49 -20 50 35 54 64 72 79 61 45 67 63 69 62 64
105 103 64 70 79 78 69 -46 -31 26 45 85 108 115 126 79 44 55 38 56 68 73 71 100 132 216 258 164 134 69 92 101 -25 -94 -99 -36 -6 7 32 83 74 71 48 58 57 88 67 72 69
107 84 58 39 61 75 77 57 -0 36 27 92 103 123 110 105 86 76 57 45 50 46 78 93 74 154 223 147 146 1 91 36 -41 65 -24 -15 9 46 40 82 72 69 86 62 72 62 93 80 74
87 59 56 34 113 68 95 92 63 14 9 42 70 85 110 132 135 109 92 65 63 46 57 69 80 52 68 144 218 129 173 200 134 157 87 31 81 46 58 61 81 93 76 54 64 58 74 84 95
69 67 57 50 83 61 137 65 47 -13 -4 -8 3 120 130 119 141 119 102 88 74 66 39 55 76 141 79 116 129 180 154 212 172 181 219 201 150 138 102 64 73 102 90 46 69 68 66 91 92
71 56 32 58 66 107 143 98 91 53 24 -9 -20 43 103 141 154 163 127 105 71 66 70 52 58 87 123 133 65 60 79 118 215 203 109 90 -32 -43 -74 133 116 95 81 38 45 93 94 103 107
70 69 107 117 117 67 122 140 73 85 49 19 31 18 35 120 100 111 108 130 90 55 66 43 43 48 79 115 127 75 161 150 177 144 105 45 -27 31 20 99 100 95 72 33 35 49 87 99 109
119 118 175 170 161 114 107 121 88 62 74 49 35 -7 2 38 87 107 151 149 145 112 95 98 52 31 45 79 81 105 126 129 144 124 103 49 -80 -73 -77 25 55 78 61 46 31 41 54 101 112
116 144 205 148 149 105 109 102 62 8 -51 -39 -18 13 6 16 51 103 156 153 126 139 122 117 102 52 63 49 46 55 67 55 39 32 9 -12 -64 -57 -20 -3 -1 -11 -9 4 25 36 28 75 72
133 152 109 156 165 121 111 127 67 52 23 27 13 24 11 21 30 55 90 113 122 114 149 148 120 81 67 63 46 54 53 56 34 5 -41 -27 -85 -83 -102 -103 -127 -106 -85 -28 34 71 85 71 60
97 85 150 183 137 106 119 95 65 65 10 3 7 20 25 14 18 25 55 85 93 87 89 109 113 124 118 77 61 64 66 64 68 68 55 33 -12 -37 -62 -70 -20 -0 3 10 56 112 104 81 141
142 132 173 152 166 124 93 63 2 -14 -9 -27 32 -11 23 21 23 37 44 49 53 80 105 123 109 105 101 121 121 121 123 118 110 104 88 104 106 135 124 135 113 118 110 137 152 132 134 206 165
161 192 198 153 158 168 131 132 96 89 55 -1 -9 42 42 21 18 30 59 76 76 70 90 120 143 155 171 161 158 181 184 176 148 120 85 97 117 58 62 124 149 150 153 140 177 183 230 251 234

GFSSGP_con_3kmhel_054.txt.gz
Helicity
40 25 7 14 39 30 69 106 75 47 55 27 22 18 46 24 31 47 50 50 79 97 128 97 92 95 135 178 187 272 222 232 208 219 189 173 174 141 153 183 162 139 104 86 96 79 80 73 82
41 32 16 48 21 18 129 94 56 79 64 32 19 12 22 40 67 69 53 86 67 87 152 155 111 84 145 223 191 236 231 206 236 235 215 163 173 182 176 190 187 146 106 101 84 78 67 65 87
38 10 27 57 50 26 76 85 80 77 29 20 32 32 50 66 76 90 75 86 87 65 123 168 143 121 134 195 187 206 184 222 244 250 213 183 157 165 183 190 162 121 98 88 87 71 66 75 83
43 40 50 51 43 90 54 77 56 52 38 29 21 18 85 111 105 110 85 79 94 65 79 124 133 113 159 202 191 214 218 269 257 238 197 157 159 181 167 141 90 92 87 95 78 73 77 86 105
39 49 57 29 60 91 61 46 24 20 47 43 45 35 71 110 108 104 84 73 85 84 49 72 113 121 90 75 182 210 262 305 266 223 200 148 158 174 140 88 79 80 97 92 73 74 74 86 94
79 55 52 30 78 103 83 43 21 27 30 39 41 46 77 154 94 91 80 68 64 115 70 75 101 122 118 109 108 180 231 216 238 196 183 146 151 157 123 79 83 87 96 93 67 67 75 72 61
36 60 26 22 59 98 118 60 30 22 24 20 107 75 121 123 143 102 79 73 68 113 152 93 88 108 132 103 96 191 212 240 237 186 175 180 162 181 147 152 117 113 115 78 61 52 41 41 46
57 71 12 35 59 49 138 63 25 0 18 106 103 69 69 202 142 116 91 87 110 83 135 201 197 157 110 129 154 106 223 240 215 194 175 202 194 201 173 153 94 109 90 72 44 36 43 43 28
84 64 -4 15 66 47 95 11 45 47 27 79 120 120 165 185 167 123 82 89 66 56 100 185 363 214 177 221 195 74 124 169 178 233 148 215 151 103 95 65 84 88 75 55 34 49 51 43 27
87 32 -37 37 65 39 40 -5 -14 5 27 62 118 149 158 174 134 119 78 58 52 54 16 98 169 41 122 240 308 296 182 200 298 331 129 138 141 109 80 84 87 82 76 49 54 43 35 -2 18
74 -32 10 26 47 61 33 -9 20 -7 5 44 68 144 162 145 139 88 -7 -12 7 76 15 46 135 160 169 233 294 308 108 258 338 241 164 131 141 122 81 81 53 60 41 33 30 24 -8 14 11
51 0 7 8 56 31 15 -9 -5 16 10 87 98 124 149 115 108 45 -17 -32 -12 6 20 105 140 189 165 219 160 151 208 254 277 141 61 91 145 114 84 89 46 45 -1 30 21 -8 21 4 16
23 0 26 -22 9 46 45 12 -10 1 50 71 105 123 120 82 72 43 -18 -7 10 27 26 62 155 168 217 328 332 321 409 363 292 115 49 113 152 129 93 68 47 20 12 4 -2 11 23 10 26
33 -35 -4 13 -6 35 23 -11 2 -11 75 68 96 113 102 69 61 58 35 5 42 51 47 67 84 125 167 268 356 459 546 386 155 114 77 85 131 97 88 81 46 31 9 2 2 13 23 12 32
51 13 -5 2 -9 -5 23 2 35 0 53 56 72 106 96 57 68 51 63 49 24 60 88 82 89 127 155 261 378 565 760 406 211 156 64 56 76 127 108 86 54 30 12 3 3 14 31 30 32
32 13 -11 -18 17 34 46 27 42 22 11 27 54 95 97 73 52 57 65 78 66 73 100 82 60 121 144 236 356 589 389 308 237 120 53 65 79 84 103 88 55 35 19 -5 -6 7 39 34 38
46 8 3 17 28 58 41 0 61 15 16 23 52 76 88 80 65 68 64 75 92 117 111 60 51 109 135 195 198 217 151 179 339 142 142 123 126 64 44 77 50 31 13 -2 0 19 37 47 48
4 6 3 14 85 57 40 -43 30 11 6 24 47 57 87 85 72 79 74 66 85 111 117 38 56 88 106 149 186 188 231 277 345 307 275 161 82 21 56 73 42 21 19 19 15 16 38 48 59
42 36 23 38 92 68 33 -20 6 31 15 31 33 60 74 83 90 92 86 61 75 82 103 92 141 117 107 99 74 84 51 105 169 263 171 -4 -59 -63 19 52 39 31 26 31 33 33 45 67 76
20 27 33 61 53 40 0 7 2 40 31 27 26 54 62 90 99 90 91 92 67 84 82 138 153 103 114 97 102 91 98 64 31 0 -32 -20 -54 -48 -6 1 24 25 34 52 55 56 45 57 75
16 9 35 38 51 30 48 1 7 45 48 32 25 19 69 99 102 105 93 80 78 84 125 118 201 156 147 123 59 149 240 169 -39 -115 -197 -123 -116 -77 -18 -4 35 25 39 64 57 47 43 42 57
28 25 31 50 64 29 72 22 -5 35 21 51 7 31 43 97 83 107 117 92 80 78 101 117 164 171 128 170 138 162 208 225 116 -100 -156 -121 -117 -87 -42 5 18 23 47 82 62 47 45 17 48
31 77 35 48 58 60 25 42 -8 25 -7 4 25 24 23 45 86 104 83 97 80 80 91 99 118 139 180 146 128 193 90 41 75 45 -1 39 -61 -69 -27 27 13 -3 19 53 30 34 42 39 8
88 60 43 80 95 25 32 52 10 -7 -4 -8 10 39 39 22 46 70 71 109 109 86 73 80 84 98 176 205 153 183 150 78 53 32 -26 8 71 20 29 -23 29 -24 58 79 65 53 49 61 58
54 41 94 101 128 55 104 80 19 19 0 -5 -6 0 66 14 21 62 109 126 129 111 88 83 91 75 75 116 147 174 109 155 167 134 128 78 123 108 79 32 41 78 81 111 105 67 47 33 40
40 85 173 153 98 65 144 76 20 19 5 -38 -21 -8 38 24 16 29 96 108 106 109 99 79 84 84 84 69 56 63 89 55 81 123 128 88 129 144 89 122 41 28 37 74 50 37 33 30 40
68 77 65 129 155 174 94 94 33 11 -1 -15 -5 18 10 32 20 20 51 104 96 102 119 90 68 63 71 58 38 33 34 32 61 76 93 95 124 133 95 29 25 0 16 31 61 52 45 53 54
92 59 119 128 155 115 104 85 99 54 10 27 28 5 11 28 30 32 49 69 99 81 87 79 49 58 65 53 41 37 48 39 21 37 79 123 107 124 128 126 120 121 117 115 107 106 101 109 130
92 120 159 157 118 148 130 97 16 58 97 87 78 21 12 38 26 20 34 58 83 89 82 85 76 57 58 63 57 43 46 47 41 30 17 37 81 123 110 113 94 107 157 205 175 151 155 183 188
63 46 52 116 113 135 183 129 63 60 76 55 43 43 57 57 35 12 19 45 78 95 95 98 92 93 86 82 83 72 57 62 69 72 74 58 51 38 45 63 64 55 66 106 147 146 172 163 151

GFSSGP_con_3kmhel_057.txt.gz
Helicity
31 18 5 2 18 37 -24 59 29 25 8 57 55 51 51 71 45 71 48 33 28 54 128 117 91 52 25 73 79 152 195 249 167 159 139 129 86 78 56 89 98 113 93 88 93 106 109 111 117
11 16 -1 -11 31 -5 33 97 42 37 64 77 58 43 26 29 66 57 42 47 35 37 160 108 104 67 34 59 58 95 102 230 244 189 146 149 83 73 94 121 124 113 98 82 87 97 104 105 117
-28 2 -17 40 55 -16 19 97 45 50 40 32 32 68 55 50 70 84 98 51 45 40 144 119 116 124 102 96 108 131 193 209 218 208 182 142 129 144 131 142 128 107 100 65 68 91 96 105 92
28 30 16 25 -11 26 27 45 45 23 55 31 21 32 64 61 77 116 87 49 54 43 74 155 146 125 103 118 151 210 206 243 174 167 205 160 175 149 144 168 132 121 86 78 84 83 79 83 81
4 -2 12 47 8 10 46 16 50 17 29 25 28 20 31 124 115 104 98 73 47 40 39 158 170 114 108 82 138 155 212 208 189 212 193 167 159 155 141 131 96 89 99 91 77 74 71 76 63
40 10 5 -9 16 54 42 25 20 32 15 21 44 20 17 150 139 155 87 51 77 49 35 73 114 81 85 71 90 70 138 168 197 210 191 195 132 117 87 78 115 136 116 91 73 69 63 59 49
8 13 5 -5 10 51 48 90 12 10 4 19 103 32 14 128 190 156 146 58 64 59 66 59 53 63 130 123 141 47 167 263 238 218 205 189 111 80 79 123 135 118 103 86 65 75 63 63 52
12 5 -26 -15 17 12 72 74 -5 7 -15 60 59 39 26 157 190 146 124 86 85 70 73 128 81 79 122 164 167 106 98 80 224 218 183 161 150 147 101 106 114 111 80 67 69 83 46 61 47
26 14 -9 -11 15 5 96 54 -13 61 -1 49 52 32 88 137 122 117 132 107 67 88 88 114 111 168 150 158 265 162 82 19 136 186 215 167 101 104 76 81 91 95 89 89 81 58 65 64 36
27 33 -41 21 33 28 54 27 4 4 26 42 59 77 104 81 103 130 143 72 48 42 77 62 118 111 169 220 253 185 200 89 124 118 158 186 125 81 54 84 115 128 120 96 75 61 55 10 36
24 -11 0 36 39 36 37 30 -1 -13 -6 27 52 57 133 70 92 91 45 19 30 41 62 56 70 131 228 204 237 229 220 251 210 184 289 284 184 101 109 118 136 106 88 71 47 30 -10 31 16
19 -11 -10 18 28 34 -3 5 16 -11 -10 80 34 66 84 77 76 65 44 39 13 42 70 19 82 82 119 172 184 186 255 345 362 254 277 199 117 112 87 119 90 99 52 48 36 0 19 16 25
15 -11 3 3 19 27 18 6 8 9 13 79 47 56 74 74 70 76 72 60 51 52 79 99 90 94 72 66 170 255 295 200 198 357 324 155 50 65 101 85 81 62 54 18 17 6 25 29 20
6 14 9 15 8 1 -11 -4 11 11 26 36 52 47 80 65 62 55 77 91 72 83 105 108 145 188 161 94 111 150 250 293 329 342 194 153 66 51 91 68 61 51 44 17 11 26 19 24 30
41 21 17 -1 -1 -2 -10 -18 25 19 33 28 44 40 61 84 59 36 55 106 126 118 139 120 112 98 144 170 198 199 254 511 322 303 101 108 34 27 74 64 57 49 48 22 26 24 2 31 27
58 11 20 -6 12 -7 5 -16 11 63 82 37 48 69 73 84 74 67 62 72 141 165 166 141 70 76 106 129 154 175 408 646 330 171 65 -18 66 55 112 89 93 86 75 39 23 7 4 27 32
29 23 -3 -9 19 32 49 -24 -9 100 74 16 34 59 68 81 89 89 83 79 158 189 200 111 54 40 96 141 221 306 511 428 296 204 86 71 10 43 126 125 111 104 84 53 23 13 4 25 33
34 12 -1 14 22 52 4 -17 19 49 53 31 0 52 72 70 119 105 87 77 114 159 172 80 34 49 91 131 218 475 602 389 223 255 78 97 53 42 122 127 125 89 69 34 15 15 7 25 31
35 31 42 3 43 65 0 -11 3 22 36 48 30 18 59 65 104 150 131 80 99 126 150 132 88 73 74 128 168 156 213 207 267 199 -42 71 73 77 140 97 101 74 63 40 26 20 23 37 43
15 27 39 27 76 56 19 2 -9 17 35 19 32 35 32 74 99 147 153 91 75 110 139 163 173 149 82 86 47 132 172 189 194 293 268 153 204 38 89 130 86 24 64 40 22 35 41 34 51
28 22 33 45 32 10 18 16 -8 21 4 40 12 4 26 66 93 143 159 134 78 113 142 152 183 153 56 62 73 81 35 59 249 227 261 266 161 37 22 34 -1 4 38 39 43 47 39 60 41
43 21 24 52 58 37 -4 45 2 20 16 70 36 27 21 43 70 114 155 153 122 83 142 153 161 163 84 110 104 142 143 147 95 121 113 71 18 41 -14 -58 -56 11 -4 41 45 41 46 51 40
34 38 24 41 53 45 35 28 27 9 18 44 26 78 56 23 77 83 142 145 156 131 139 132 169 169 143 103 125 68 78 79 119 168 86 -20 -132 -98 -123 -70 -63 -13 -2 37 40 62 65 81 42
46 51 63 47 52 63 24 30 24 -1 12 35 1 28 53 48 50 68 115 144 172 157 163 131 150 169 151 121 111 116 94 98 141 164 76 11 -64 -54 -63 -33 -26 -32 -43 -2 18 38 71 51 27
63 81 121 100 101 69 42 48 18 31 64 44 29 6 46 53 58 54 101 139 164 174 152 136 120 152 193 163 146 127 103 158 113 147 149 21 -25 0 5 -46 -45 -47 -56 -26 14 -1 39 44 36
48 77 159 102 82 58 28 104 35 17 56 41 10 -6 46 53 54 24 50 115 137 164 144 146 120 103 172 189 155 115 92 110 44 108 103 66 26 72 84 53 36 56 60 60 75 95 38 79 114
35 19 26 127 60 198 96 48 14 66 28 18 6 13 21 34 38 23 34 83 123 153 152 125 122 95 113 139 140 116 78 67 57 51 67 81 66 52 29 98 132 131 129 127 165 184 158 149 148
58 21 51 87 200 201 109 36 1 27 16 50 27 21 6 23 39 64 44 65 104 129 122 116 97 110 100 97 113 110 105 96 59 30 66 79 72 64 93 86 130 151 120 137 130 167 145 140 151
60 72 102 39 74 138 99 73 78 128 161 101 106 64 94 77 34 26 30 42 79 95 114 121 99 105 112 125 113 92 86 80 63 45 40 49 66 90 84 119 121 145 143 118 127 133 120 138 148
7 11 69 148 105 57 109 149 62 93 171 146 155 49 50 28 14 38 31 22 45 86 97 111 102 102 99 122 134 128 106 101 99 81 64 67 59 61 76 83 114 114 109 93 105 116 136 140 156

GFSSGP_con_3kmhel_063.txt.gz
Helicity
56 19 33 51 85 69 26 26 62 57 192 201 236 247 207 124 132 120 39 20 44 24 66 94 107 110 113 121 122 131 109 96 99 108 130 141 141 137 115 126 117 95 79 77 61 68 79 96 106
32 28 59 105 101 68 57 92 -28 70 148 184 173 141 129 181 90 51 58 -9 35 60 78 105 119 137 150 130 116 100 102 110 122 110 114 136 117 107 92 85 93 79 82 75 55 63 70 83 86
41 46 110 101 95 71 19 -29 99 138 90 89 94 81 107 165 104 77 60 69 82 140 113 109 133 148 164 155 133 112 95 116 123 113 120 119 100 109 100 78 76 73 77 75 55 59 66 90 110
73 102 96 126 11 -38 52 25 54 85 81 93 102 123 89 122 113 116 99 77 97 120 132 103 109 136 144 164 143 131 119 125 146 136 141 103 91 104 109 90 65 62 66 64 57 60 52 76 70
118 134 116 109 35 -19 -89 -36 123 194 167 106 86 104 150 144 191 167 147 104 90 83 168 167 111 110 115 119 116 130 110 102 130 143 161 119 108 100 119 89 68 64 76 58 50 46 61 89 135
200 135 166 78 6 -14 18 136 144 142 179 176 149 139 157 145 145 187 143 134 167 154 147 157 109 63 67 67 92 133 116 70 101 128 171 160 117 97 114 68 71 88 90 69 45 56 87 106 169
151 138 112 72 32 35 -26 95 183 230 193 195 159 193 167 209 159 147 149 161 164 181 152 143 109 85 90 91 139 225 191 307 194 174 182 168 140 108 117 112 120 113 81 77 76 65 111 115 136
119 110 80 19 0 47 44 175 168 190 181 136 109 170 166 121 185 175 144 150 98 118 146 121 76 86 139 178 297 280 250 250 119 86 122 188 78 153 158 164 148 122 93 66 44 115 60 89 121
73 123 89 -2 -30 -67 -30 165 132 92 138 188 121 127 166 185 126 73 102 152 181 208 133 43 48 70 162 185 226 273 271 254 207 36 42 110 169 213 204 152 129 99 82 90 86 94 58 91 172
131 134 57 11 5 -19 -16 78 89 88 146 98 108 297 249 148 106 126 160 210 185 166 84 47 68 142 222 221 217 230 263 255 182 184 28 101 214 208 155 153 109 107 106 76 78 55 65 135 154
107 79 39 13 40 -25 21 47 26 59 97 53 160 161 172 162 163 136 151 130 135 143 83 59 91 166 229 198 186 210 168 126 126 118 90 139 199 212 178 162 120 145 97 86 104 82 91 102 92
119 67 50 41 72 55 60 17 45 72 75 53 121 89 136 120 139 134 156 153 165 134 115 82 122 138 151 195 149 104 121 144 150 169 220 207 228 234 255 194 123 121 120 122 78 69 70 58 105
86 77 56 36 80 95 40 34 51 90 88 72 151 183 125 110 153 178 210 205 215 232 177 117 121 146 157 135 147 121 85 118 115 235 221 149 194 218 232 203 200 167 104 73 57 72 46 85 116
67 65 54 34 14 21 35 21 83 57 62 60 162 165 143 205 168 209 238 184 168 227 212 142 98 156 162 127 88 101 102 50 80 125 48 114 203 195 228 185 131 108 56 46 42 70 34 71 102
97 83 30 43 0 5 14 7 9 97 41 -3 135 166 172 176 164 183 200 238 219 174 162 156 128 136 168 139 109 92 150 127 222 224 219 220 258 223 204 207 91 70 39 20 27 36 26 72 52
139 76 69 17 31 17 54 -16 -17 54 48 62 98 173 170 181 210 157 200 300 271 196 155 157 157 176 115 119 112 125 108 109 181 229 210 235 250 223 239 195 95 61 12 25 21 11 64 74 68
134 81 103 55 32 6 22 3 41 33 -3 16 186 167 187 249 241 176 283 346 309 209 168 172 155 178 122 123 88 101 121 124 164 216 202 175 155 139 147 152 70 56 13 44 46 45 87 91 78
130 115 64 18 19 25 -18 -20 30 32 34 117 147 123 247 281 248 263 324 367 323 215 175 171 155 152 115 40 41 108 133 129 186 227 180 151 155 118 124 99 55 31 18 60 100 82 99 91 75
112 125 94 44 98 19 9 -3 42 80 66 122 112 108 189 310 200 296 367 415 358 266 202 173 156 179 165 144 73 79 104 259 330 202 181 193 110 127 167 133 85 82 66 93 95 101 101 94 104
10 60 33 112 89 105 56 49 78 63 49 143 151 162 120 245 304 430 460 430 370 278 207 206 173 175 153 112 98 110 143 124 114 219 189 105 190 174 274 257 158 130 135 186 135 147 160 91 119
-52 73 67 103 113 13 57 57 47 41 -18 11 118 175 128 316 378 437 438 409 349 287 208 201 177 177 161 154 142 163 239 252 203 220 106 98 173 213 295 279 161 146 66 30 96 140 124 102 71
55 77 83 128 127 109 3 45 52 57 33 -44 67 164 102 304 365 396 444 347 337 278 229 209 178 188 167 200 154 168 189 202 187 168 96 46 106 318 235 192 74 15 19 121 147 156 165 166 48
180 113 135 116 241 70 34 6 -27 -17 -46 40 1 143 180 309 448 399 391 347 308 326 262 228 195 202 170 181 178 160 144 122 172 127 38 102 132 166 171 226 91 56 107 110 100 114 74 130 47
154 216 221 178 111 59 35 47 -60 5 41 21 43 171 195 298 356 323 303 351 264 297 290 238 202 178 175 168 194 193 159 118 92 77 97 46 52 43 167 229 216 139 -98 -103 -29 17 93 134 57
117 294 201 146 149 104 63 85 -16 -10 8 38 25 149 155 278 301 316 328 308 289 320 283 264 207 172 170 182 181 198 177 139 153 146 135 75 75 120 82 84 157 126 -39 -74 -1 92 159 97 -13
156 272 292 210 170 100 42 82 25 37 107 19 49 86 82 260 259 249 242 272 292 339 298 254 237 191 143 169 190 192 192 154 119 145 129 106 138 148 103 83 9 -15 -35 -70 -59 -13 41 49 3
130 191 65 155 233 243 147 149 20 89 76 73 83 110 109 139 177 147 247 270 268 332 358 289 262 234 178 140 167 183 194 199 184 139 125 118 165 137 111 66 50 4 -28 71 0 -13 37 197 80
101 58 134 148 232 173 174 114 109 118 100 173 127 182 125 94 126 161 150 213 294 354 406 336 272 257 219 163 120 140 176 183 152 153 180 153 149 143 120 112 81 61 5 -13 -7 18 48 113 55
39 102 126 119 197 281 273 217 198 234 372 356 285 199 210 198 166 94 109 207 275 360 427 376 304 235 223 191 163 120 140 147 138 152 165 165 127 132 148 114 74 56 45 68 73 64 66 63 85
64 82 121 189 182 138 111 214 130 203 228 297 335 281 265 300 294 314 388 210 138 329 364 379 338 290 245 215 189 171 155 151 146 142 142 148 138 114 132 129 108 82 48 5 46 115 121 139 122

GFSSGP_con_3kmhel_066.txt.gz
Helicity
58 73 68 93 121 106 74 43 -3 50 60 68 92 140 187 215 225 229 58 54 66 30 23 51 96 105 130 152 201 148 142 142 144 146 146 151 151 158 153 127 118 140 126 123 131 116 117 120 158
75 90 117 140 150 123 62 62 124 47 74 127 178 143 157 182 130 101 105 36 34 15 23 64 102 121 126 128 171 205 147 124 123 126 137 139 142 148 146 128 117 114 103 92 91 91 89 131 170
95 113 161 179 172 109 50 36 99 2 -2 112 163 144 181 189 101 36 2 59 71 77 116 110 115 118 120 140 150 181 190 133 104 110 131 132 137 140 161 156 127 106 91 59 66 77 103 127 143
145 180 178 234 139 38 38 -19 16 40 20 131 151 221 236 173 120 58 73 127 113 94 127 143 148 131 134 127 139 156 186 185 144 133 139 132 119 124 131 145 100 82 83 70 61 79 117 100 122
192 220 233 261 93 19 15 36 -27 38 49 155 209 158 196 218 195 151 109 135 174 139 116 140 141 131 122 121 119 143 174 194 165 152 139 137 124 125 119 126 97 73 87 73 66 79 134 165 151
254 231 302 210 78 -42 -20 25 69 44 101 160 160 283 179 173 174 138 147 170 183 187 203 211 148 109 84 86 96 147 156 184 159 159 147 156 160 118 106 114 104 93 98 73 87 118 169 155 162
236 271 290 182 87 -22 -27 18 90 -2 160 165 191 322 218 211 161 123 153 168 197 212 209 207 181 107 154 38 37 66 141 127 142 292 101 100 161 156 98 116 142 121 100 70 110 139 158 167 155
196 259 282 205 93 -4 20 59 56 115 188 211 227 238 175 93 111 165 141 131 168 186 163 162 152 152 164 152 215 204 268 142 227 232 416 221 110 125 101 145 142 126 90 57 108 129 144 200 133
183 305 334 193 102 10 -0 100 203 48 149 179 164 164 100 220 186 154 127 216 203 162 121 103 109 139 157 164 180 206 219 176 267 209 333 112 78 69 128 111 181 147 91 62 93 113 188 220 189
259 275 281 195 90 2 -41 4 106 62 103 161 241 209 280 268 158 199 213 208 176 132 119 109 112 125 167 178 221 221 220 256 148 235 215 111 72 73 157 130 140 122 138 68 79 118 222 234 226
207 198 160 87 25 8 27 11 5 103 65 77 139 197 233 229 197 150 166 149 145 112 120 105 119 133 182 214 227 241 238 213 187 234 281 217 94 53 164 156 141 111 149 104 110 145 227 235 173
171 88 74 20 17 46 70 73 75 54 48 60 117 183 168 149 141 148 201 146 185 131 106 123 123 161 179 195 183 158 143 169 170 193 172 264 235 184 176 171 165 178 144 73 109 94 199 198 137
99 19 34 45 56 75 104 117 121 142 68 49 127 154 126 104 113 160 178 179 189 132 107 125 149 146 142 139 145 128 125 95 98 112 156 277 270 184 176 153 175 134 107 77 85 108 133 155 131
96 80 48 91 78 91 122 115 -2 75 60 119 129 92 114 116 151 253 253 222 224 201 145 142 163 151 143 118 104 117 139 131 102 137 138 119 194 206 155 153 151 110 114 110 90 109 113 139 159
70 59 67 37 33 26 41 109 69 66 55 108 142 168 160 133 186 237 236 265 278 205 177 135 174 181 156 89 82 92 127 66 53 128 175 171 147 189 198 221 216 153 81 89 112 132 134 149 162
112 107 47 20 46 -22 38 11 111 65 41 41 102 155 266 257 176 172 234 317 299 235 162 122 152 182 124 96 67 120 130 96 17 -57 117 165 138 155 187 160 173 125 51 134 107 108 140 133 164
109 77 83 14 14 19 46 42 22 32 50 27 62 187 303 301 208 181 258 350 320 231 174 145 122 174 156 103 68 81 115 85 88 140 128 136 133 159 199 160 167 131 131 99 68 99 124 106 152
132 102 33 40 4 70 60 16 19 31 1 64 57 142 288 309 313 259 287 348 325 242 175 175 155 152 129 98 65 68 65 71 113 123 154 149 162 173 171 183 202 184 108 77 50 58 87 84 114
109 93 41 -3 9 53 96 104 -6 29 -12 23 18 119 205 239 309 329 343 372 350 274 229 199 196 136 135 96 101 67 89 61 106 159 140 226 194 180 156 144 186 185 114 49 35 67 54 105 118
89 66 -15 -23 -71 40 160 53 51 39 26 27 105 175 217 304 314 349 359 375 370 300 246 194 217 171 132 101 74 98 102 113 130 188 167 200 119 106 166 183 177 112 109 101 64 74 149 125 131
94 90 38 -4 1 61 82 21 128 103 48 50 56 33 229 352 357 377 359 362 374 303 273 224 218 206 137 93 74 57 93 174 224 137 227 273 188 120 123 110 146 65 116 88 89 81 154 152 181
116 77 88 49 55 9 85 -129 170 74 59 51 5 15 168 262 313 378 424 332 321 264 244 244 218 214 156 109 61 67 101 178 126 2 57 243 139 137 125 157 241 177 148 157 143 150 142 203 149
122 187 61 53 87 36 107 73 85 48 53 31 7 47 82 277 336 363 414 333 309 263 220 234 226 218 189 168 122 50 25 68 35 -1 -7 102 196 172 183 227 202 216 256 227 186 157 179 205 208
194 223 108 32 56 -3 28 20 -96 -18 1 -20 17 44 72 228 310 300 331 295 305 245 226 213 240 221 228 177 177 130 94 32 94 114 80 69 69 228 178 231 195 241 255 177 52 2 111 143 178
168 223 210 145 77 -56 22 3 -17 26 -7 13 45 72 78 226 325 353 338 297 284 270 223 184 224 230 232 213 163 154 159 120 88 84 74 -11 -27 15 125 218 150 136 132 60 94 18 160 162 159
84 185 225 155 99 43 -2 -39 -50 -28 33 42 76 93 130 249 346 334 262 259 270 272 223 180 201 214 220 225 192 143 151 153 110 62 19 53 57 116 139 172 122 39 126 109 57 111 68 108 94
89 135 150 176 172 118 132 108 -21 -5 135 121 112 42 123 200 248 243 158 195 239 238 228 215 181 193 214 199 198 181 115 127 108 71 57 90 73 48 47 92 158 144 126 112 39 34 15 20 26
100 88 167 225 197 155 171 142 89 192 192 166 155 145 174 159 166 120 141 134 147 204 182 182 171 172 201 212 195 169 173 99 63 100 103 106 78 49 1 39 69 102 96 96 95 114 54 25 29
105 92 114 193 200 254 305 305 383 366 460 353 393 453 360 246 129 89 70 31 71 98 176 186 169 162 162 179 208 199 168 158 118 95 106 115 95 94 81 50 32 38 48 49 51 73 91 52 64
77 67 97 102 177 127 252 219 477 398 518 438 487 554 592 525 402 283 145 81 46 49 91 82 69 137 221 192 179 189 203 196 195 183 129 104 126 128 132 104 90 86 56 28 45 20 20 19 27

GFSSGP_con_3kmhel_069.txt.gz
Helicity
77 80 88 121 167 165 81 64 69 45 75 29 74 88 104 131 129 141 100 43 18 40 21 25 68 119 148 147 168 215 240 225 166 168 201 219 231 225 205 201 192 169 154 140 144 151 158 149 183
86 104 163 169 247 218 67 61 113 64 43 79 134 148 114 117 143 173 219 31 39 49 23 17 69 127 159 178 169 192 209 199 203 190 192 198 193 192 201 196 174 152 130 134 131 160 165 160 202
89 131 190 214 269 176 67 87 81 162 94 43 60 88 121 108 141 155 72 64 58 58 21 21 80 134 173 174 175 168 176 191 188 214 200 163 165 168 175 177 164 133 113 118 143 142 156 180 210
155 207 234 299 276 66 77 85 69 61 100 -2 43 123 149 142 126 125 165 68 102 74 82 77 96 118 175 189 178 151 149 173 173 178 191 177 153 143 148 136 128 111 105 102 154 142 141 188 222
208 254 297 353 285 74 61 21 18 48 84 49 64 105 122 122 171 216 205 101 146 124 139 115 97 130 162 176 171 160 146 166 195 191 158 161 169 160 130 123 126 103 87 119 158 132 150 175 186
255 272 337 350 294 94 32 22 51 71 -11 42 66 144 155 145 207 173 174 163 151 133 135 147 131 150 154 145 115 136 161 181 199 193 206 118 188 190 165 150 150 126 144 167 150 159 161 139 148
226 299 300 316 287 123 26 -10 44 54 50 23 189 237 184 168 184 167 154 173 147 128 159 182 182 182 82 77 75 73 94 95 208 262 159 67 182 179 143 136 144 166 186 175 160 155 169 139 105
212 245 295 309 295 108 14 7 51 84 211 55 184 177 162 105 154 153 168 178 165 140 151 154 200 247 156 92 59 142 248 288 473 176 221 167 217 148 96 78 117 178 211 201 173 175 173 91 98
201 307 354 395 297 179 84 58 13 83 120 98 154 150 74 181 216 188 224 222 198 158 161 137 154 165 175 133 129 173 228 182 371 294 230 245 233 88 49 61 86 148 239 214 184 181 112 110 138
283 353 353 294 177 104 72 -9 -14 60 161 250 39 133 171 302 230 221 224 233 192 154 149 120 132 151 171 169 203 186 184 241 373 391 357 303 243 145 96 26 105 110 227 223 215 170 136 153 157
291 278 266 223 118 74 -2 -29 -26 66 148 151 61 129 193 270 218 206 167 208 175 140 134 112 131 133 179 204 234 245 239 222 287 303 246 176 224 248 81 97 171 162 187 272 236 208 175 154 155
195 217 139 105 62 34 3 11 -12 22 145 119 111 149 263 185 148 129 185 213 169 161 127 123 120 129 147 191 205 239 217 206 239 218 227 254 302 267 144 93 128 166 152 284 258 187 163 154 113
174 182 126 82 30 29 35 36 49 56 70 51 103 177 144 129 80 121 144 192 202 166 144 118 124 132 163 173 159 160 157 176 191 235 239 262 277 291 253 102 137 113 163 246 225 219 171 126 123
184 164 77 28 -27 49 49 47 90 84 55 17 158 147 111 92 144 203 176 223 207 162 142 145 112 134 162 169 154 131 113 142 169 173 165 222 198 210 138 122 105 85 133 203 241 250 204 174 96
157 159 112 34 60 56 49 32 72 85 25 85 130 118 143 102 217 218 224 243 216 140 171 149 149 138 162 175 164 84 72 105 143 132 139 176 195 224 166 160 113 86 105 188 259 277 247 183 103
185 193 172 48 57 64 104 -28 35 53 105 122 131 152 176 123 165 186 255 256 208 208 182 169 170 157 179 204 149 84 65 86 53 106 105 127 267 161 128 156 112 81 101 189 215 254 247 182 108
216 236 184 33 53 73 86 -13 -25 35 14 99 109 164 178 88 132 248 295 300 222 181 204 173 166 179 170 173 114 64 62 79 88 120 344 207 237 103 118 133 152 111 143 125 139 213 238 203 168
204 226 114 19 47 115 79 19 -34 5 44 67 88 140 124 101 162 369 411 295 243 176 175 176 151 178 158 178 113 52 41 80 79 80 118 152 109 129 167 147 193 180 191 241 220 183 275 226 185
112 120 23 4 73 43 12 10 -36 1 37 55 72 72 88 118 230 394 366 319 259 223 188 164 159 181 182 179 120 62 42 60 77 77 100 127 146 117 164 147 169 182 165 185 167 240 272 249 191
166 115 3 -29 21 0 8 31 -22 36 77 46 22 29 105 116 299 346 355 306 289 235 181 174 152 172 194 196 120 70 34 45 54 97 114 163 170 200 169 197 164 156 139 147 188 272 273 219 156
170 154 49 0 16 -39 -11 -11 -55 24 3 47 85 61 79 199 292 348 327 314 289 265 208 179 158 173 183 258 198 110 119 114 94 123 179 173 204 229 187 166 203 160 218 151 153 201 191 207 141
116 147 55 -8 37 -55 101 -102 -78 -6 33 45 150 86 86 124 193 357 356 320 295 273 208 186 163 153 188 262 187 97 48 70 115 177 176 177 177 200 220 131 157 200 203 168 128 133 157 136 149
140 138 97 4 44 -19 115 17 -129 -21 3 68 108 92 59 26 224 336 349 334 300 276 225 213 148 133 170 196 179 82 42 46 152 198 123 136 268 228 223 124 163 153 167 111 151 115 138 154 146
108 94 100 47 77 30 75 89 -154 17 -6 35 52 72 43 20 15 235 355 354 319 250 230 203 181 135 133 143 153 120 66 60 107 127 145 -17 94 225 201 133 144 166 165 138 183 189 167 196 164
85 87 121 121 126 56 14 66 -35 68 103 72 28 40 3 30 121 267 371 325 311 281 255 190 187 144 130 116 89 86 81 56 65 117 107 116 38 254 175 161 189 240 281 196 203 206 216 261 173
88 87 156 135 145 91 102 8 -6 16 -114 21 44 49 39 36 178 275 325 319 286 263 264 192 180 145 132 136 102 42 24 77 59 76 75 40 62 56 178 273 273 219 258 289 242 221 212 101 46
82 79 97 134 147 83 121 61 -6 -9 -95 -24 4 26 47 39 146 253 275 243 257 245 232 205 180 142 124 128 131 113 57 22 82 76 25 30 -18 -31 120 168 153 179 243 231 274 206 127 7 102
47 133 93 116 108 57 112 134 75 168 156 98 147 159 100 121 149 156 184 167 169 179 156 139 135 139 98 108 108 116 115 64 53 85 70 2 -18 45 121 190 165 113 59 34 49 -25 -25 100 25
55 36 62 130 133 83 130 137 242 295 289 217 288 313 221 103 148 171 152 106 179 172 126 128 122 97 78 96 103 93 105 100 80 71 80 86 31 21 90 144 164 167 152 126 125 100 70 88 91
70 71 65 67 110 158 177 175 320 484 419 356 295 421 344 261 249 204 156 53 7 29 49 74 105 114 117 103 111 120 120 119 123 92 63 58 72 92 74 46 56 83 110 161 208 199 196 176 146

GFSSGP_con_3kmhel_072.txt.gz
Helicity
89 97 105 136 172 213 101 47 82 76 118 45 74 94 80 74 82 76 104 73 102 102 73 70 83 105 137 168 199 179 187 238 274 268 253 235 233 228 223 210 202 184 171 155 152 149 145 146 162
107 130 187 179 229 245 63 60 88 140 113 29 38 60 61 60 80 100 165 55 103 86 55 53 75 130 181 185 185 184 162 187 236 247 252 242 224 215 207 210 208 180 154 155 156 149 133 153 193
134 167 205 213 256 261 72 47 51 96 188 86 84 44 53 40 88 80 75 112 96 54 25 36 87 134 191 226 211 194 165 152 172 226 228 225 242 222 224 212 195 167 141 114 143 161 171 205 227
174 238 252 247 262 101 72 59 90 115 76 64 53 81 35 65 78 90 93 128 96 51 28 54 84 141 180 224 228 199 184 154 179 203 215 229 247 250 221 205 170 141 120 109 129 177 226 225 210
235 257 230 240 260 168 39 -13 26 65 60 78 105 125 49 85 143 137 147 124 120 61 66 70 85 132 179 194 211 188 154 154 164 195 222 242 205 202 226 193 157 140 126 135 165 191 235 216 181
263 260 232 233 296 139 -2 9 55 82 95 72 96 163 87 109 170 149 199 132 118 88 72 95 100 157 184 172 151 154 147 133 134 199 229 234 252 103 141 154 142 119 154 202 222 211 210 201 178
225 264 196 210 216 167 18 -25 70 68 86 55 18 144 118 129 173 167 181 155 128 82 85 124 122 142 150 128 75 77 67 69 105 135 155 165 176 218 84 55 79 151 192 198 213 220 204 173 154
232 223 195 194 255 157 85 37 32 76 95 55 33 90 95 133 228 203 179 172 152 124 100 130 128 114 132 75 90 129 178 158 149 161 260 167 198 118 79 68 124 180 184 185 227 194 150 143 129
239 238 223 264 250 218 100 89 51 54 80 111 82 23 85 101 291 262 218 191 183 146 152 146 150 132 98 81 102 142 178 165 210 248 334 286 152 112 158 22 90 182 172 212 230 178 132 128 117
237 252 230 212 183 142 129 25 -33 -3 21 64 102 41 26 116 260 243 232 218 182 142 160 156 159 134 105 93 137 191 211 223 253 297 285 305 184 127 65 188 38 126 156 219 192 176 152 145 135
232 225 215 179 111 113 76 19 -49 -41 16 19 107 118 95 75 103 222 214 191 164 171 176 142 163 138 134 139 155 254 271 235 216 246 326 346 259 177 153 150 107 131 177 197 234 211 171 153 149
156 126 124 109 88 84 48 32 -35 -22 -21 9 75 184 146 124 143 134 165 159 195 203 153 158 151 147 155 163 155 213 266 246 212 230 267 332 275 186 202 292 202 145 181 214 245 231 182 165 157
108 84 67 73 50 57 37 46 41 -7 26 21 32 107 140 111 149 110 144 155 176 212 164 137 158 159 169 174 163 220 257 245 229 263 292 314 274 184 187 199 194 169 246 218 219 208 191 181 128
88 65 27 39 27 59 43 16 75 -34 45 -16 28 114 136 111 139 121 153 162 198 217 150 147 133 161 174 149 172 189 216 218 215 249 264 226 192 223 152 193 182 188 236 219 197 196 199 196 132
64 50 34 51 66 90 55 53 68 20 36 33 60 120 150 113 117 95 143 198 231 169 184 164 143 138 137 142 181 182 164 151 185 211 191 190 190 200 189 277 269 214 233 205 213 215 236 192 143
84 84 80 28 104 106 142 21 3 32 60 59 102 119 157 90 91 94 148 228 236 208 180 152 149 147 133 139 172 166 109 94 107 133 155 166 162 177 207 252 168 236 221 209 215 227 218 186 167
122 95 86 81 34 77 131 94 31 30 43 55 71 93 125 77 75 49 170 250 274 206 203 140 165 169 143 156 144 138 102 84 94 73 89 116 155 194 244 230 164 221 207 192 207 247 206 210 158
115 121 103 76 60 56 88 50 14 -1 35 42 66 85 92 113 55 87 239 331 273 232 192 157 177 177 161 147 152 147 93 71 82 57 83 100 183 270 281 208 157 212 195 158 193 199 241 209 171
125 80 41 95 98 39 48 -4 21 4 25 42 44 56 74 94 76 223 307 344 319 230 229 167 189 170 185 149 134 135 105 75 80 72 82 180 239 349 194 154 144 214 195 165 208 199 221 268 235
97 101 76 82 65 56 -16 -96 3 -2 21 38 65 73 18 36 174 209 296 342 292 251 208 174 165 174 186 158 93 108 91 58 60 76 84 93 124 182 215 150 127 168 212 159 216 271 290 298 214
90 110 124 118 27 46 -5 -244 -31 -71 28 58 33 35 53 60 126 171 241 301 294 230 240 173 170 179 184 175 162 132 101 68 71 82 101 119 106 124 171 151 137 135 182 211 270 216 257 357 203
59 70 74 106 101 78 30 -194 -82 -48 7 0 33 34 66 72 86 192 239 268 270 224 212 173 175 173 197 205 180 121 57 46 51 89 106 125 172 144 172 178 146 145 162 156 142 210 241 324 275
15 58 104 139 132 96 28 -9 -120 -36 -3 3 14 58 75 94 123 165 216 257 230 228 196 175 175 165 192 175 188 152 79 51 42 73 90 126 181 208 203 188 174 125 173 186 160 218 190 244 253
35 80 76 114 122 97 40 76 -105 -25 16 31 23 58 81 132 138 152 172 231 213 185 150 185 158 134 149 158 170 160 134 94 75 75 109 92 127 191 186 213 214 204 209 203 194 208 180 147 160
110 68 110 115 189 186 35 31 -31 26 120 20 65 118 104 113 63 206 257 233 200 197 189 192 156 123 117 142 127 124 126 104 69 76 94 99 93 130 200 206 181 151 178 201 235 212 197 251 159
95 67 134 116 120 79 40 5 44 144 24 73 28 53 28 79 66 160 228 235 240 201 194 172 164 102 93 96 88 82 92 109 103 81 71 86 59 -7 115 159 191 177 151 175 239 221 245 205 198
61 61 118 117 110 73 30 53 116 149 128 -27 22 8 39 56 27 117 210 216 228 180 176 140 148 88 57 49 50 65 69 76 77 79 84 84 50 -17 59 149 198 206 215 228 260 241 146 156 131
68 67 101 112 99 9 36 60 97 106 125 62 36 96 125 77 56 138 180 168 139 109 152 144 129 79 61 45 35 31 45 56 73 89 76 63 51 30 49 70 92 177 217 181 212 245 250 231 216
69 74 55 68 94 121 53 87 79 62 59 54 59 98 156 125 79 58 163 133 115 119 140 123 99 80 60 55 38 43 44 45 50 66 61 54 52 44 76 94 111 119 119 142 172 158 243 247 203
103 81 52 32 26 87 69 58 105 109 115 110 112 188 344 351 305 161 95 140 108 107 99 82 85 64 56 75 63 56 57 48 60 67 73 58 41 24 46 100 134 150 135 136 126 100 100 131 120

GFSSGP_con_3kmhel_075.txt.gz
Helicity
118 110 105 135 141 201 133 66 75 90 118 65 72 87 54 61 73 83 41 78 129 163 78 69 56 55 89 132 156 153 148 177 221 234 244 237 221 225 225 216 162 124 109 114 126 137 129 133 160
146 159 187 181 199 185 103 58 47 68 106 53 42 82 76 50 32 46 98 43 102 134 79 59 71 78 101 156 174 162 135 144 165 208 246 245 238 240 250 245 201 190 149 118 126 131 131 150 169
171 186 209 222 211 186 99 62 45 73 144 77 87 43 63 51 27 36 34 48 85 94 87 55 83 85 113 167 181 163 135 138 156 177 214 224 238 255 250 245 233 199 152 125 128 137 163 195 183
178 230 249 258 189 116 68 73 73 105 104 83 99 126 40 5 19 28 65 49 67 63 55 60 92 100 115 147 178 170 144 122 157 158 178 206 231 237 253 280 229 177 168 112 135 150 207 224 190
233 242 277 242 196 217 62 21 42 57 44 33 52 55 68 12 31 68 81 79 73 92 70 75 93 104 120 144 160 163 145 140 135 157 162 185 216 238 213 210 180 155 142 141 205 215 213 216 190
262 252 233 143 169 143 34 19 55 33 18 31 44 69 42 44 67 86 104 111 83 120 97 91 112 102 138 145 148 131 120 134 117 142 174 201 207 180 204 158 117 127 140 179 228 242 234 212 196
229 247 158 115 104 113 34 21 25 19 53 92 27 100 92 59 92 123 134 143 105 102 98 117 136 110 125 149 110 71 76 65 83 65 64 77 60 95 104 113 96 103 146 202 218 241 223 179 191
216 207 165 121 102 80 67 43 56 29 85 76 43 106 110 57 121 166 199 146 100 93 98 123 132 109 112 100 98 93 54 56 63 127 192 207 272 146 56 95 126 96 163 186 203 201 199 173 170
244 205 147 166 123 129 64 45 46 101 91 87 79 95 65 61 104 130 213 167 123 125 115 140 111 111 108 90 90 116 105 88 178 209 219 231 205 275 217 166 96 82 118 184 206 188 195 174 157
235 226 167 155 132 101 70 62 44 52 70 56 18 23 30 2 76 75 129 146 124 149 138 144 115 111 100 83 85 121 103 104 154 208 231 234 230 202 295 164 105 82 190 198 161 172 189 124 107
216 191 157 163 98 84 70 35 35 15 37 -12 33 -9 45 40 43 65 68 62 92 136 155 147 137 117 103 106 125 129 149 167 197 256 253 219 224 200 197 195 32 115 102 137 123 119 120 100 94
182 143 129 108 67 57 60 57 -23 -18 15 -52 -71 -24 62 69 60 43 67 90 73 128 142 160 142 129 95 131 154 167 173 199 199 250 268 260 240 217 78 173 144 161 160 107 93 103 94 97 78
120 102 91 82 50 39 33 22 -11 -28 19 -48 -34 -23 20 70 59 24 45 92 115 104 148 151 130 135 92 128 149 184 198 230 232 227 198 242 248 233 188 152 136 216 207 124 122 105 97 96 96
63 50 66 66 34 31 36 32 77 -23 -3 -7 12 -13 -9 53 52 22 50 61 107 119 145 153 131 136 103 116 121 168 216 258 237 207 170 222 218 222 229 143 147 222 222 160 125 95 75 86 87
62 53 81 44 47 84 49 54 51 21 -8 -1 15 6 11 52 54 74 45 79 124 137 155 150 162 133 115 96 97 157 239 231 193 173 155 155 191 213 198 173 200 254 199 135 133 94 72 91 78
61 42 56 80 51 43 93 62 6 26 25 14 7 -11 5 63 79 42 12 34 123 152 156 151 162 148 119 71 80 123 211 191 158 143 158 169 216 184 190 191 209 183 191 194 160 112 82 84 77
75 79 58 56 44 74 95 75 15 31 45 19 5 27 64 78 87 50 45 61 137 149 167 181 146 172 114 94 94 100 160 122 108 113 163 211 164 193 211 221 224 205 176 196 176 99 83 91 87
30 38 46 61 92 103 88 50 31 34 21 -10 7 60 112 112 112 57 57 92 152 173 193 196 171 174 143 137 127 144 123 80 67 72 97 78 177 150 255 218 219 271 184 187 166 122 100 89 102
52 41 37 33 41 42 19 19 48 32 -24 -21 64 91 112 103 97 67 74 130 193 215 226 209 202 186 182 146 151 148 128 56 51 59 38 79 98 123 270 301 228 167 136 156 201 169 155 130 115
44 36 37 16 -8 25 21 8 31 -10 -53 0 83 111 82 85 90 47 60 95 187 259 252 213 199 193 163 124 148 133 125 27 23 14 14 17 131 186 336 307 252 140 123 119 168 198 155 147 116
45 33 36 11 29 19 19 -6 30 6 -33 26 -3 44 68 69 89 32 78 109 167 244 261 238 207 178 155 138 131 144 112 45 42 47 83 129 190 279 218 214 173 133 145 172 177 207 181 197 148
54 8 -14 -2 6 33 71 74 139 81 77 52 70 79 49 56 60 60 60 71 134 196 213 196 198 184 153 140 152 143 107 73 15 51 59 108 97 99 184 154 163 136 150 150 167 186 194 231 164
30 22 -20 -3 -5 17 39 87 71 50 83 45 57 36 53 37 37 29 -18 26 95 158 194 201 172 180 161 116 135 107 69 30 33 -3 40 65 120 75 79 128 160 120 112 152 172 183 187 163 204
51 26 12 -13 23 30 9 65 30 -1 35 122 152 123 110 96 45 46 21 64 93 119 168 192 193 170 158 115 103 101 86 79 73 51 24 56 80 104 114 126 164 156 184 148 171 165 177 194 177
37 49 36 3 29 51 51 39 37 16 84 89 139 188 155 133 78 103 84 59 87 125 178 188 168 163 145 107 92 98 89 73 64 50 47 52 76 55 138 110 152 138 197 175 188 185 206 214 229
49 60 57 29 15 13 55 38 65 47 85 56 103 141 140 137 62 99 71 66 86 114 155 173 191 154 111 81 78 72 64 50 33 42 47 49 58 10 72 160 153 168 221 121 150 201 200 226 237
40 37 59 57 53 49 74 49 38 68 103 145 102 114 129 99 107 60 51 66 75 108 114 136 149 139 82 45 49 62 55 42 31 31 32 40 49 51 -45 33 119 142 143 144 152 184 229 285 261
58 54 64 62 63 56 46 43 107 45 84 22 26 74 130 124 133 91 74 86 65 114 105 108 97 103 85 54 36 42 44 31 22 20 20 32 36 28 -1 -20 51 121 159 116 179 153 196 298 314
57 83 52 52 66 71 99 20 50 37 21 9 50 82 131 228 177 138 96 91 94 130 106 94 106 116 93 68 52 46 36 28 20 18 24 36 36 31 21 4 24 44 85 108 162 118 134 154 125
41 50 53 77 54 33 42 -20 4 43 46 13 3 77 137 179 255 280 101 132 196 192 152 124 139 148 129 109 86 63 49 37 23 13 7 6 21 39 45 48 46 59 57 54 67 81 94 136 162

GFSSGP_con_3kmhel_078.txt.gz
Helicity
65 57 63 80 103 174 161 115 87 58 72 85 90 97 60 71 60 89 6 55 55 100 103 69 49 41 79 98 118 109 129 155 162 148 156 192 191 185 172 157 149 141 146 119 90 81 96 115 143
81 94 99 155 157 149 136 76 43 59 107 68 51 50 55 27 42 45 45 40 54 73 74 51 49 40 95 124 130 125 127 137 158 146 159 188 199 190 180 167 167 154 155 131 99 108 134 135 156
109 84 130 164 132 124 110 73 64 102 104 85 70 48 109 108 36 48 77 58 54 68 61 65 78 62 80 102 115 118 121 122 140 151 163 180 194 194 187 184 190 175 128 145 125 135 163 160 162
138 156 181 176 122 141 48 37 85 94 111 113 105 80 53 53 55 34 68 66 59 61 53 109 90 67 99 84 91 100 85 104 122 147 153 166 177 185 198 208 195 144 129 126 138 154 182 175 179
123 172 162 148 104 105 125 73 45 80 118 112 108 94 57 26 26 42 71 64 59 68 60 84 94 81 83 100 92 106 80 96 110 134 156 166 172 189 176 213 181 146 123 147 169 192 182 186 182
170 204 207 148 101 121 71 37 77 73 51 33 36 66 20 104 27 52 75 71 74 100 85 94 104 105 95 98 106 109 91 83 85 90 127 145 138 163 192 149 153 128 101 127 180 180 185 197 170
115 171 139 92 104 176 56 40 40 48 83 74 150 68 72 20 56 66 93 99 91 115 114 112 109 98 99 81 99 88 95 79 66 25 59 58 38 48 80 90 77 77 116 171 190 169 174 188 170
123 155 85 99 169 88 17 44 46 53 65 155 128 115 146 96 31 66 98 97 84 122 118 120 127 115 87 88 80 98 74 79 70 57 76 89 111 182 129 109 77 45 116 172 182 161 170 189 174
114 154 122 98 142 47 54 38 31 79 70 56 89 105 130 86 33 59 76 84 76 107 118 128 136 112 89 76 90 77 63 81 131 135 181 188 150 251 133 114 93 115 106 134 171 186 202 188 167
134 128 63 61 112 58 50 30 51 30 31 66 66 64 52 71 54 59 18 42 61 84 110 108 129 107 104 82 78 63 71 72 92 110 141 145 166 183 126 184 174 286 207 101 157 196 187 104 99
118 78 71 88 92 38 43 37 30 60 61 66 70 75 40 46 41 73 -22 -14 33 59 97 93 98 95 86 106 96 62 65 89 98 104 142 165 173 156 183 215 218 276 148 187 118 123 81 67 81
114 100 78 72 56 39 36 30 41 64 59 70 48 17 -14 13 18 19 -13 -8 31 53 94 112 113 104 100 111 106 78 77 87 112 109 137 180 189 177 198 212 212 299 214 218 117 65 80 74 62
78 66 61 46 42 31 25 30 26 55 55 37 47 33 -25 -0 -5 -26 -22 -6 17 41 77 130 121 116 102 119 103 98 96 131 134 117 120 156 181 152 168 162 111 203 185 120 95 71 96 60 82
144 61 59 47 35 22 33 21 30 40 37 59 53 43 6 1 -8 -16 12 10 37 50 91 124 112 103 100 95 97 100 117 137 160 168 143 106 169 195 180 206 150 158 141 124 73 94 67 51 73
72 70 43 26 20 27 25 32 35 7 28 52 61 48 17 10 -9 -10 50 21 38 57 85 128 118 103 85 86 90 102 125 165 175 161 133 149 145 183 224 239 207 153 159 138 97 70 50 58 74
49 54 54 39 40 28 41 49 48 26 39 65 52 55 40 14 -17 7 30 25 22 62 83 114 134 117 82 106 98 99 115 156 174 145 116 140 124 169 175 178 185 204 243 207 103 83 46 50 71
43 74 46 67 17 50 46 86 76 82 108 91 81 69 65 36 10 16 34 25 30 66 100 123 141 120 105 117 113 106 93 130 141 107 88 75 61 106 191 178 179 237 245 238 143 68 56 55 72
27 29 39 33 58 75 78 70 55 41 76 137 140 100 63 34 14 74 61 35 44 58 87 139 181 152 136 120 131 109 99 105 119 76 79 91 136 140 164 194 224 209 243 205 141 75 63 60 61
56 40 26 18 17 35 49 39 42 35 59 67 103 48 16 -3 122 87 60 47 44 53 104 167 213 172 186 143 139 118 130 125 83 33 30 46 79 230 175 164 258 212 233 140 123 54 58 76 69
7 9 6 5 15 19 19 32 47 41 49 37 37 11 -27 21 118 70 47 38 40 67 112 190 204 183 159 136 123 136 172 119 34 15 25 20 35 72 300 251 234 233 235 178 132 56 74 83 73
10 4 19 32 49 13 7 28 -5 19 42 22 2 -36 -51 20 97 14 68 48 52 65 136 183 194 176 142 100 114 153 201 113 46 23 6 -33 24 105 87 270 249 216 224 175 93 94 72 103 81
50 69 43 22 4 29 37 -25 35 21 17 57 29 -11 -15 -19 22 51 98 55 37 68 116 149 158 161 128 96 121 144 146 99 12 12 52 51 90 161 123 241 232 211 193 116 109 38 92 88 62
49 94 49 15 3 16 13 3 -8 -26 23 21 23 12 18 31 36 73 85 58 47 96 115 152 146 123 125 100 107 120 106 55 18 9 14 38 85 135 255 257 243 223 171 83 40 48 55 70 48
86 28 6 -13 -5 -2 12 -0 19 3 93 138 128 118 114 104 104 84 72 62 53 110 117 123 135 115 106 108 94 111 92 60 47 25 26 32 64 90 63 94 103 130 123 97 114 128 119 122 82
20 23 21 -5 11 17 22 -8 -3 19 31 113 116 123 93 118 92 46 33 26 62 74 140 130 112 125 119 93 82 77 78 64 42 32 17 34 34 67 85 68 36 113 150 119 115 133 139 108 93
-0 -11 44 44 22 50 -6 -14 55 55 12 2 11 105 153 152 118 60 39 24 60 86 119 127 125 127 123 85 77 71 78 59 42 29 31 34 28 21 47 57 82 107 158 159 154 140 186 155 142
38 20 55 37 -5 17 9 -12 12 40 25 31 -1 66 132 218 143 85 61 84 97 94 112 110 119 123 113 92 66 70 69 57 49 44 30 18 19 29 -2 3 84 117 134 151 186 166 172 176 165
35 69 44 27 31 16 22 18 45 53 60 33 8 17 94 158 180 88 50 84 64 114 101 131 116 100 113 104 71 51 48 45 29 22 19 23 26 25 15 -48 12 93 53 68 151 141 151 185 201
39 16 37 57 56 53 52 49 66 51 57 37 26 35 24 139 193 195 148 184 97 114 118 155 110 131 153 116 52 62 50 49 36 21 9 -5 1 6 23 -11 -28 -62 41 102 95 83 131 160 180
47 36 13 55 37 46 36 29 63 70 67 32 56 59 106 144 241 282 276 107 127 137 141 163 175 161 175 128 105 83 73 60 45 30 12 -5 -9 -5 1 -0 7 24 28 124 110 101 153 112 93

GFSSGP_con_3kmhel_081.txt.gz
Helicity
67 35 19 47 89 93 79 52 3 71 82 61 134 80 38 -30 22 59 53 66 78 85 87 81 101 102 92 93 102 113 127 118 114 122 117 125 124 125 126 115 107 101 106 116 107 93 87 81 95
24 22 46 82 132 108 87 22 20 62 19 159 72 54 45 21 16 70 66 40 66 63 71 76 92 95 70 65 77 101 120 112 125 123 118 109 131 134 111 125 115 101 110 99 100 91 113 117 131
-17 16 61 117 112 113 93 -6 71 44 107 98 55 56 54 49 50 53 110 60 66 63 71 90 100 85 82 78 80 67 78 95 117 129 130 133 139 126 111 117 128 113 120 84 65 124 130 148 144
50 66 106 114 85 63 20 10 34 63 83 59 40 129 40 41 128 44 96 69 62 59 64 149 128 88 90 81 79 89 73 82 101 118 130 140 142 109 98 105 118 117 107 75 91 122 128 155 136
44 89 117 97 59 49 9 31 89 106 30 50 58 99 38 43 45 75 63 72 67 61 65 77 109 80 91 88 82 90 93 85 83 93 117 136 145 109 105 116 125 120 114 107 126 144 146 144 119
129 81 113 94 60 32 37 46 28 48 57 42 32 31 50 63 60 58 59 79 73 69 63 73 96 73 87 99 101 101 82 99 78 76 88 106 98 74 100 101 79 72 85 99 139 149 154 137 117
104 112 89 65 61 27 42 109 4 18 61 46 19 99 46 48 123 59 59 63 82 81 71 82 89 83 73 84 99 108 99 86 71 51 69 19 64 83 63 55 71 65 89 119 147 163 157 141 111
90 93 58 60 56 37 29 116 45 42 54 20 77 123 41 167 101 89 77 65 95 87 85 79 76 93 74 70 93 105 106 94 81 67 83 103 134 85 180 174 84 114 108 59 143 154 160 140 133
49 118 105 76 54 21 84 81 3 34 25 28 57 72 75 113 102 43 63 71 81 77 74 86 81 98 75 77 80 87 88 92 105 103 100 133 118 164 207 239 120 96 29 38 114 156 162 152 143
108 147 72 56 32 60 65 25 34 38 73 63 61 33 59 110 109 75 43 75 73 68 57 86 86 104 85 71 96 52 65 80 84 91 101 122 135 146 190 242 114 44 92 148 132 142 151 123 103
105 95 76 38 31 76 137 67 36 60 72 52 51 53 27 55 83 73 43 45 70 45 39 73 82 107 94 69 88 60 68 71 84 76 96 123 165 152 163 218 72 91 142 154 255 147 68 70 82
102 80 82 95 75 82 69 59 45 57 51 38 33 45 20 60 44 42 24 49 33 20 33 53 73 94 85 88 79 50 74 109 85 90 95 144 169 199 163 142 120 145 216 235 258 144 50 56 62
78 70 71 83 64 84 88 51 49 40 48 37 47 44 48 57 46 14 17 33 5 8 38 79 88 100 127 128 89 76 41 89 97 79 94 123 162 209 242 187 167 169 220 246 274 157 84 71 75
65 97 105 75 73 81 48 43 37 41 25 23 35 46 42 61 57 -0 10 25 6 9 57 96 122 104 142 115 107 110 102 120 92 102 93 84 134 174 166 152 199 204 190 197 163 109 149 103 74
92 86 73 49 37 35 21 49 40 7 -0 15 31 59 49 48 39 1 -4 16 18 19 67 121 124 94 102 87 100 105 135 150 130 127 117 98 116 108 132 106 158 149 165 176 161 84 99 91 72
60 57 80 48 13 48 31 55 59 -0 9 22 32 58 44 52 21 2 2 14 11 53 96 154 121 101 100 88 139 119 126 135 154 145 162 90 100 120 191 171 166 159 190 124 100 89 83 106 88
46 84 84 44 32 29 31 47 32 59 49 57 44 38 41 30 15 -1 8 8 37 68 111 150 125 95 101 133 148 124 131 133 141 192 157 96 110 109 146 145 209 236 187 149 153 118 86 93 163
36 31 31 45 42 70 27 48 43 44 44 42 46 45 24 19 16 12 7 41 44 76 101 139 112 109 118 162 129 134 174 144 149 154 127 65 75 101 114 194 248 208 159 143 163 135 90 110 151
71 89 63 91 69 41 40 38 10 5 15 28 30 39 64 42 15 7 3 54 63 87 112 121 122 136 162 153 134 143 147 133 127 129 108 95 65 63 90 201 251 188 131 188 241 129 96 86 131
42 45 38 18 5 -36 11 3 -11 -16 -8 -0 -2 21 28 31 16 -0 7 82 41 80 106 133 122 136 169 136 120 153 143 114 111 113 86 39 38 43 89 277 266 250 164 209 191 228 105 124 184
34 25 38 54 58 15 -21 6 -17 -36 -27 -18 4 3 11 35 13 7 14 89 46 47 95 122 126 139 153 141 137 158 150 132 121 104 74 28 16 22 60 187 263 230 187 168 123 132 133 148 136
45 16 66 50 24 9 84 63 94 34 -1 -7 -10 27 36 19 5 8 12 97 16 43 71 98 129 140 125 143 140 133 146 121 100 91 35 16 24 49 126 168 325 282 203 202 130 104 79 97 117
32 101 73 23 13 33 24 17 21 11 -15 6 27 27 20 -0 4 9 -14 40 68 72 89 114 124 119 101 95 127 87 87 96 112 109 62 47 89 92 122 150 306 244 229 227 205 133 46 61 104
12 64 11 -13 -9 14 30 -11 13 24 119 94 85 65 14 5 1 8 7 3 112 77 101 98 120 137 86 91 110 84 117 106 142 133 99 77 84 93 133 153 274 198 254 181 121 99 49 48 96
49 16 35 19 20 25 14 51 22 34 90 56 98 129 124 101 135 105 73 58 110 97 99 98 135 131 103 109 94 93 99 109 117 115 108 94 86 86 97 111 229 231 241 200 114 75 57 64 107
48 46 68 99 40 35 67 10 74 118 40 37 63 128 130 156 200 76 34 64 78 108 102 96 146 110 109 102 93 81 74 80 110 113 88 77 80 71 107 93 106 108 155 179 136 97 109 114 116
51 33 -5 21 45 34 15 21 25 190 135 97 91 128 108 120 193 299 60 73 85 122 194 170 97 168 106 100 97 88 95 89 97 105 86 61 68 90 74 88 69 57 75 112 141 160 122 119 105
8 53 60 33 36 29 -18 -38 178 141 130 50 77 77 93 120 206 361 141 60 71 141 99 141 194 177 124 114 131 91 72 69 76 77 82 76 50 55 90 64 33 91 93 61 98 119 178 149 177
40 29 55 71 48 41 69 56 86 48 11 37 69 47 63 97 181 306 433 157 171 131 91 145 191 157 172 158 135 104 81 66 77 47 48 53 79 64 42 46 24 70 91 146 123 91 190 161 132
56 20 21 51 52 49 40 22 70 34 31 55 94 70 45 72 140 246 283 372 136 74 91 148 163 194 200 178 159 118 96 76 63 61 45 50 58 45 42 19 18 35 64 103 83 120 152 119 127

GFSSGP_con_3kmhel_084.txt.gz
Helicity
52 18 26 58 83 78 54 45 -4 -14 30 82 98 156 110 26 66 87 126 133 121 115 83 86 101 106 120 113 100 92 86 82 99 105 104 112 104 90 80 82 90 94 84 85 78 83 78 87 99
19 11 47 100 112 88 70 -9 -27 -7 94 151 183 174 77 91 44 39 73 78 76 62 69 78 83 94 109 114 114 109 102 97 103 95 97 115 113 97 87 93 87 88 72 73 80 63 82 77 92
3 -2 88 127 93 84 53 1 -14 14 193 228 145 24 48 62 38 83 131 73 71 85 51 82 80 81 89 96 96 100 97 93 87 86 87 91 102 82 84 98 89 73 86 77 70 74 91 101 99
83 108 133 150 82 49 10 -8 19 -4 102 132 122 98 70 29 94 90 89 61 75 88 44 105 85 73 79 87 91 98 90 92 94 81 67 83 86 81 95 91 85 81 73 68 78 88 100 104 85
27 120 133 96 57 27 22 -43 20 23 82 64 51 73 52 45 60 94 103 131 127 161 127 81 99 78 77 76 85 94 100 102 94 96 83 67 74 73 91 104 92 85 82 80 120 106 106 103 76
144 80 118 120 41 -0 -11 -1 16 22 81 69 93 62 78 26 45 114 150 164 151 156 69 67 72 75 77 86 82 86 101 100 86 84 81 78 70 46 64 68 59 65 66 71 66 109 104 91 65
68 93 94 54 48 60 15 -9 54 56 47 35 28 48 40 90 109 97 140 156 168 141 123 81 73 68 72 80 87 89 98 105 89 85 103 67 55 107 120 162 236 84 51 82 83 121 104 80 63
43 61 50 67 65 37 1 14 75 104 98 28 42 49 34 167 147 199 98 121 144 145 123 80 82 74 72 75 86 95 104 96 82 103 98 103 108 134 116 151 226 75 59 57 79 90 104 76 61
25 104 133 74 55 42 -2 8 33 59 33 46 56 65 58 179 141 144 154 147 190 155 130 133 95 73 71 66 88 100 100 105 94 91 133 148 165 152 154 190 229 149 100 84 88 76 116 88 73
82 121 94 40 40 43 23 47 75 67 61 47 36 64 69 96 114 108 94 77 153 198 128 128 109 93 74 77 117 84 92 95 88 91 122 132 164 176 221 225 187 186 90 104 86 96 135 88 101
57 110 63 46 12 16 56 78 90 64 71 36 57 57 28 105 119 101 109 91 110 192 144 108 88 85 79 77 113 82 84 82 82 73 109 143 165 211 198 202 194 205 171 120 111 87 86 100 104
53 52 45 44 17 31 73 70 99 101 87 42 54 44 64 57 108 116 105 88 90 144 168 149 58 84 85 74 135 57 108 107 106 93 92 148 181 174 161 170 198 181 146 179 163 109 90 153 104
58 45 23 37 41 30 52 100 133 87 60 50 61 55 59 83 30 92 85 38 65 78 186 203 116 64 76 79 130 41 125 153 140 123 113 144 161 152 162 154 171 187 168 186 147 112 187 187 119
14 13 25 48 81 55 59 64 66 64 44 48 70 76 63 73 78 84 97 17 82 54 134 274 181 83 151 138 150 86 130 186 151 145 113 124 147 154 171 184 172 182 205 172 170 150 143 172 124
65 111 109 98 73 54 29 68 67 28 23 22 35 49 56 46 58 56 80 4 29 124 57 272 254 261 220 123 126 110 117 215 225 190 120 113 145 149 176 213 215 181 148 158 154 188 145 178 120
71 78 123 65 -14 -10 1 80 27 -3 -3 25 5 39 41 40 43 50 90 -17 -7 148 115 262 324 303 177 106 132 127 141 172 221 165 133 126 133 136 139 179 183 184 206 212 190 198 142 143 124
90 97 55 61 11 19 59 78 19 2 25 56 84 37 21 28 54 53 85 -11 -49 70 175 352 320 233 154 115 200 165 138 172 211 169 153 122 121 137 139 160 176 194 182 165 181 146 96 118 100
69 65 34 15 -4 49 56 65 63 47 85 64 57 38 69 57 52 58 51 -17 -25 56 224 431 399 310 175 249 222 184 165 179 220 195 153 134 103 139 132 149 200 183 194 190 153 120 114 147 68
53 72 63 58 28 65 36 33 34 14 23 41 22 20 45 36 -4 -1 29 -11 25 129 243 375 397 264 173 306 196 190 186 182 200 193 173 127 126 118 153 190 170 192 191 160 134 157 176 112 138
73 42 43 61 17 20 38 31 26 28 15 44 51 8 15 46 43 60 47 54 103 167 226 334 317 189 183 199 123 167 137 153 161 196 150 142 139 91 88 151 167 205 218 189 151 102 187 80 97
36 46 31 2 40 42 44 15 16 26 79 18 -28 13 23 40 17 31 45 29 193 181 249 307 228 184 167 147 164 216 207 190 169 161 143 110 65 47 102 131 206 219 238 172 150 225 157 220 106
38 35 20 51 43 47 43 -15 18 20 56 6 19 -45 -33 12 23 38 24 -9 187 192 267 246 210 176 174 158 203 216 208 176 198 135 140 81 43 34 74 108 178 165 189 208 211 212 136 171 129
59 26 48 89 43 20 32 28 -21 18 6 -4 50 5 19 9 40 55 26 21 205 219 280 232 227 183 195 171 225 178 170 131 135 127 136 101 115 93 129 159 175 235 257 210 164 198 275 360 178
72 56 59 62 56 9 68 14 8 33 83 100 176 206 136 30 38 61 33 40 160 247 288 238 224 170 152 170 170 102 94 147 113 177 182 165 128 116 105 113 149 170 202 204 172 216 164 111 148
57 36 13 -2 21 35 51 -11 32 71 76 74 135 253 107 134 234 282 184 21 59 270 282 264 224 165 153 131 120 99 148 197 149 189 173 145 123 114 89 111 167 218 221 173 172 206 145 94 59
37 18 52 9 29 21 37 41 35 6 158 361 349 316 231 152 182 247 233 196 70 345 325 277 181 138 182 115 138 136 211 152 131 150 152 117 103 101 102 97 146 208 126 165 181 170 172 109 44
27 49 10 -33 -7 7 41 55 66 333 289 254 204 140 98 133 168 242 271 359 50 176 233 214 139 159 172 166 158 165 185 118 115 114 123 87 111 97 102 75 97 113 179 190 121 113 114 65 40
14 54 53 98 19 11 31 29 144 129 228 92 28 63 98 157 181 187 411 545 242 248 338 319 168 191 234 190 147 149 211 178 137 132 115 114 88 91 90 94 102 68 76 119 245 222 140 116 93
28 51 42 40 50 17 -2 -29 66 1 53 42 3 31 84 117 159 198 373 523 561 247 288 288 324 269 228 208 228 241 176 131 113 98 103 113 92 100 103 99 84 77 80 80 80 121 146 129 175
-28 27 33 60 45 46 20 -6 -122 -69 -75 -10 -1 20 18 83 156 163 260 426 409 427 320 181 191 205 241 268 242 215 172 178 127 102 86 110 121 83 78 81 81 47 66 78 72 55 80 94 162

GFSSGP_con_3kmhel_087.txt.gz
Helicity
58 40 74 122 130 113 61 32 30 -38 67 42 163 187 138 91 134 68 80 154 187 66 43 64 89 90 89 97 112 95 82 95 89 91 99 100 90 82 83 82 89 95 94 85 96 91 84 87 89
54 64 126 157 138 149 99 54 -62 -36 -27 178 253 223 237 157 49 59 144 133 93 80 57 41 75 87 84 92 106 110 94 98 103 100 86 90 82 84 87 92 85 86 88 79 71 79 80 78 87
76 71 214 196 182 164 163 91 -32 -42 38 119 157 164 186 216 130 97 156 95 93 84 36 38 62 80 79 91 100 117 103 104 103 100 83 78 76 65 78 79 77 85 81 72 66 79 88 88 80
99 177 220 249 158 110 98 58 72 99 39 96 102 130 124 109 164 84 124 124 94 48 70 76 81 78 72 75 89 116 118 96 101 94 89 73 58 63 72 65 73 83 76 55 65 87 82 89 78
148 221 240 236 129 102 -7 -37 -43 57 37 49 89 76 157 106 95 54 104 168 157 154 139 103 98 91 75 76 80 99 102 89 92 86 79 73 53 59 72 59 67 80 76 60 77 90 85 84 63
250 212 292 199 122 62 54 38 10 51 44 75 111 106 133 40 165 107 188 268 209 198 166 121 101 101 85 78 75 93 109 93 92 87 80 80 52 47 60 53 50 39 59 56 44 76 78 75 51
159 207 228 151 127 88 -1 -19 50 55 -13 95 119 154 90 162 229 189 252 281 245 209 168 133 120 111 91 74 73 89 104 99 90 79 72 88 85 86 91 162 200 195 196 186 60 64 77 62 66
128 203 179 145 136 96 36 23 11 37 55 86 115 161 108 181 276 246 288 289 293 223 136 114 115 119 102 85 78 84 104 119 123 118 97 110 114 112 182 228 214 164 150 256 52 4 72 54 79
61 181 213 155 78 42 10 55 17 -74 64 101 92 88 50 111 235 282 278 313 315 253 175 112 116 120 105 92 77 85 106 124 133 127 115 125 114 132 177 190 144 174 155 141 82 22 55 66 81
151 194 168 144 83 62 39 57 -47 5 37 74 87 114 129 160 164 190 199 203 278 266 235 176 131 126 104 102 92 75 107 119 121 136 133 138 135 164 170 146 135 144 167 153 144 68 65 85 92
115 159 120 85 56 47 96 10 -43 -23 43 58 143 181 66 142 125 116 160 112 179 221 297 209 145 114 105 127 114 80 84 91 99 126 143 176 172 195 175 144 164 186 181 175 126 90 79 62 90
118 103 93 79 55 63 84 33 5 -19 29 55 9 31 57 95 141 152 119 130 137 241 309 260 171 139 112 137 140 82 93 71 62 95 167 227 190 167 161 159 170 181 195 172 119 16 53 16 75
49 47 64 70 66 58 83 70 40 32 0 51 42 73 64 56 68 103 139 130 91 198 323 301 237 147 123 161 127 101 95 89 77 115 202 241 191 155 153 153 167 166 169 142 109 58 38 58 76
108 101 94 89 55 63 150 158 128 67 74 77 42 68 68 84 99 108 136 135 101 89 278 359 301 221 131 167 132 138 106 132 171 179 218 230 191 181 144 164 160 153 148 135 117 108 101 85 109
91 113 94 109 127 114 154 112 95 80 82 56 50 54 66 61 90 161 145 148 120 96 170 375 331 281 200 230 195 157 156 159 210 215 236 205 181 172 170 165 167 152 212 166 111 102 134 172 166
137 134 132 95 77 55 108 156 118 91 67 59 65 99 91 44 51 97 147 132 114 161 142 367 405 354 334 266 240 175 164 215 237 249 244 225 183 174 182 197 194 184 201 196 109 120 171 190 164
129 131 124 85 43 27 89 90 55 90 58 5 41 34 76 85 76 56 98 145 119 116 96 427 482 487 476 253 203 195 151 182 216 221 238 233 206 195 213 189 194 194 162 137 180 149 163 205 152
134 154 145 145 72 -10 59 73 49 56 75 17 33 14 47 57 67 73 100 138 102 134 153 449 536 576 444 272 261 241 168 141 149 182 204 227 204 191 205 191 190 205 170 177 200 196 200 216 184
68 56 84 66 44 37 69 71 63 76 40 62 21 63 13 37 49 66 60 98 129 145 165 405 582 544 463 346 364 283 195 153 164 157 164 215 220 218 204 204 180 158 153 173 170 197 163 97 351
78 90 107 80 47 46 61 84 79 70 14 37 109 138 83 75 37 73 58 51 87 106 139 387 527 526 453 434 326 281 228 148 155 163 151 247 218 194 200 169 172 171 164 145 177 182 187 152 166
59 93 94 93 74 92 85 43 75 47 46 24 24 52 123 114 79 39 0 33 47 153 250 489 455 411 421 391 291 240 196 186 194 172 191 206 173 164 155 133 149 147 135 178 191 176 171 204 138
118 101 72 73 67 69 102 -50 27 19 21 39 -5 -7 64 70 73 36 49 70 88 218 406 414 362 340 372 286 247 248 218 228 183 175 161 177 131 125 98 71 111 130 136 189 169 220 261 312 189
54 53 87 90 55 19 27 62 -17 31 19 8 92 89 18 90 84 65 42 94 122 288 329 346 344 328 331 246 262 292 240 217 234 201 186 172 140 93 68 83 89 128 161 155 194 229 155 219 315
41 63 95 70 78 36 117 58 9 43 38 82 244 159 339 289 192 156 192 190 188 288 375 361 329 298 301 249 288 277 196 175 208 186 193 162 195 142 89 87 96 105 169 244 209 185 261 260 195
63 86 139 101 108 85 59 -17 58 14 87 167 156 82 147 263 305 223 246 201 310 298 372 400 401 395 321 286 283 225 145 138 132 183 205 184 190 130 96 102 100 147 156 209 174 185 211 220 162
110 134 129 110 51 -22 -16 -86 -20 10 213 198 138 6 27 132 246 250 287 323 297 199 212 424 334 352 291 269 220 149 117 137 149 181 169 161 154 93 80 70 62 86 98 146 198 173 253 219 246
138 105 155 87 27 -9 39 34 65 -53 14 144 225 100 48 117 133 185 199 319 401 242 346 384 350 300 262 191 158 162 208 196 167 175 149 152 143 108 100 79 91 110 163 154 176 149 175 281 143
112 67 110 145 37 -4 -2 -7 18 13 -52 2 80 134 87 57 203 183 154 310 498 465 336 429 275 243 229 181 213 221 198 184 170 166 118 109 104 95 89 68 70 114 88 79 95 132 207 119 94
98 83 90 72 80 4 -32 -53 -110 -139 -76 -31 94 73 52 66 125 236 185 225 341 421 510 298 248 267 231 255 236 242 182 202 180 145 120 114 94 83 92 82 69 59 61 105 149 184 144 184 224
135 39 53 49 40 66 25 0 -32 35 -52 30 26 7 19 53 108 167 154 206 294 330 380 402 482 343 373 337 255 256 268 211 162 142 135 122 94 82 78 81 68 52 45 48 87 201 184 110 81

GFSSGP_con_3kmhel_090.txt.gz
Helicity
63 75 101 145 189 185 99 44 92 3 48 81 40 24 71 91 130 167 56 73 144 89 42 11 16 61 87 121 132 154 160 145 136 125 111 114 128 122 107 103 102 100 117 116 103 104 106 101 94
80 98 155 193 235 208 115 118 38 28 98 38 -9 30 95 140 204 219 184 71 119 116 70 48 42 51 85 115 124 139 148 139 131 124 111 115 120 121 109 95 79 85 91 89 90 95 98 97 102
95 127 227 262 236 224 144 89 59 116 83 121 46 69 89 129 196 154 103 74 154 142 89 75 69 69 72 104 114 124 134 152 132 137 130 129 124 120 107 81 71 79 79 79 78 89 98 101 93
144 209 260 269 185 110 126 30 35 74 128 130 48 58 101 93 31 34 146 140 148 107 97 101 98 86 78 87 99 111 125 133 124 127 130 123 102 103 98 78 78 80 73 71 75 91 78 94 87
191 270 322 302 154 124 99 9 62 66 137 121 64 90 132 143 180 187 137 126 171 113 110 124 114 95 87 86 91 89 98 100 109 121 130 119 101 88 82 71 68 74 56 50 53 55 76 79 89
246 279 365 289 185 131 68 17 113 174 228 117 121 140 166 191 281 183 126 155 174 179 177 167 121 92 93 84 75 74 82 85 82 107 128 113 101 96 78 67 58 65 79 126 101 130 52 55 95
235 308 310 257 209 156 33 58 120 170 141 99 67 184 217 134 168 219 233 240 178 198 236 185 131 107 94 77 69 68 70 79 77 104 125 123 111 109 95 90 124 167 176 164 138 161 97 34 68
207 272 334 279 187 100 13 35 71 122 71 -2 38 52 143 93 209 353 350 325 243 224 242 222 160 147 127 91 76 74 72 81 77 98 103 135 146 133 163 159 182 214 150 137 157 248 362 25 66
184 307 331 245 168 125 28 61 13 -1 15 -14 34 88 47 109 290 405 409 397 319 236 182 212 238 195 147 117 89 86 83 81 98 112 100 164 163 178 174 157 176 180 129 147 142 181 168 57 54
233 307 254 185 123 90 61 73 54 80 91 27 -21 127 94 125 221 281 321 323 317 241 168 175 218 211 180 141 112 97 107 97 120 118 116 179 173 176 148 135 185 176 113 160 132 219 168 52 80
217 224 167 122 99 86 91 87 32 63 108 17 -7 32 63 66 70 184 199 212 191 195 234 165 208 187 195 174 138 113 116 110 113 106 130 190 208 189 156 146 132 171 163 200 207 146 233 93 56
187 124 107 103 99 121 129 165 147 86 80 -10 -21 -23 -12 53 109 57 136 180 202 250 199 205 206 207 169 204 166 118 109 100 100 107 158 216 207 179 149 133 121 162 182 213 171 165 158 140 35
159 78 92 103 119 122 124 133 120 96 22 -26 -14 -27 -32 6 26 57 77 116 184 232 211 218 279 205 225 232 209 150 110 92 67 119 142 180 181 170 154 131 137 149 158 142 148 162 54 50 30
116 138 129 91 98 109 99 42 95 75 51 16 26 22 11 -15 7 56 76 125 121 196 241 276 307 271 256 235 186 164 134 105 106 122 132 158 181 182 161 167 157 142 122 114 126 87 39 -21 -0
114 77 48 50 57 55 52 3 61 37 34 28 18 23 68 67 25 69 105 149 169 187 206 276 282 312 262 212 209 185 155 143 129 146 155 176 200 207 185 166 177 154 129 123 114 79 70 54 74
64 71 95 64 57 38 76 56 83 62 85 94 89 74 66 72 152 177 142 213 157 159 251 250 264 298 280 269 250 211 220 175 165 194 177 187 199 227 211 168 172 173 153 113 109 87 98 58 137
87 98 51 33 59 120 164 138 102 79 108 91 77 41 58 55 54 53 72 109 184 147 260 267 271 288 344 308 337 296 270 227 209 219 186 182 199 229 228 166 161 187 154 122 105 125 129 138 165
116 99 79 80 60 94 81 84 76 75 103 79 37 50 56 61 49 43 77 34 47 109 258 271 316 330 403 376 379 319 271 259 242 217 189 181 203 246 249 199 200 182 159 138 129 121 174 160 169
96 67 60 46 92 95 95 82 63 78 82 72 76 43 23 54 45 84 36 65 98 54 218 263 311 334 437 356 352 308 274 276 266 209 179 179 192 225 263 263 253 219 177 130 114 171 181 209 182
82 87 54 62 46 84 26 59 61 100 118 98 80 77 2 95 81 130 114 46 69 139 188 321 350 356 331 420 335 384 342 292 271 222 164 166 198 246 273 287 261 196 166 113 125 168 207 222 224
81 108 130 67 37 81 119 79 92 105 51 49 47 26 50 15 51 79 61 125 71 116 206 312 383 322 368 496 456 430 385 341 248 193 160 164 213 257 276 261 224 161 130 137 155 176 208 216 222
85 44 67 73 90 73 158 147 115 26 28 98 54 22 19 60 89 52 120 84 84 31 132 316 341 347 426 549 401 358 353 321 233 181 165 180 215 246 261 242 169 127 121 124 135 186 185 212 225
42 67 59 60 108 108 72 181 189 34 20 42 206 104 147 97 141 207 140 87 95 12 149 314 334 352 458 432 338 377 359 300 246 207 160 158 177 206 222 171 134 101 95 97 91 162 235 233 366
24 83 78 94 132 154 93 157 13 40 -43 41 49 51 45 48 183 301 261 212 233 204 140 312 337 353 441 324 337 361 346 270 250 220 165 132 132 163 183 126 92 85 69 93 109 126 185 292 206
74 148 153 132 173 193 63 90 4 63 -18 -69 -1 63 118 -43 141 302 294 335 312 281 205 181 252 311 278 324 313 327 242 226 228 204 166 140 129 175 131 91 72 61 74 125 172 193 221 291 313
174 182 224 145 153 105 47 10 7 26 -16 -100 -23 71 120 33 63 148 218 236 327 296 147 182 132 213 286 337 299 242 179 211 234 201 160 108 119 160 156 123 68 70 93 108 157 215 214 226 266
171 294 139 160 127 119 57 42 2 -14 -87 -174 -29 4 44 46 9 54 227 276 347 384 387 163 227 258 298 311 271 172 170 213 202 164 145 117 146 144 156 84 55 49 89 114 166 213 299 189 376
197 96 137 152 142 85 3 -55 -83 -36 -85 -53 -47 27 32 33 112 189 241 332 375 373 525 443 280 211 256 310 225 159 124 167 173 170 132 126 166 124 125 86 59 48 57 52 89 181 284 215 271
132 148 86 57 151 126 -10 -56 15 -88 -128 -35 8 75 79 45 107 167 220 281 250 296 523 473 436 298 234 213 232 185 145 161 180 145 131 141 134 103 97 71 79 82 84 90 73 168 165 164 290
64 138 83 102 109 69 -16 -27 90 7 43 91 32 1 -19 -3 40 107 155 239 287 301 428 440 364 464 135 186 195 162 187 176 143 142 156 147 93 79 81 90 95 83 64 34 78 80 132 179 225

GFSSGP_con_3kmhel_093.txt.gz
Helicity
90 94 108 141 159 186 123 76 67 53 72 104 127 168 150 59 48 51 143 71 124 122 59 37 20 23 41 99 126 157 208 220 206 187 176 168 178 167 177 146 112 103 117 104 103 112 98 85 76
96 115 189 191 226 207 102 70 35 41 49 78 101 81 106 123 65 114 171 61 67 131 77 53 53 72 72 100 96 107 193 208 212 210 189 162 171 167 167 137 128 122 121 97 94 90 82 92 88
134 159 220 236 247 256 144 64 45 31 69 123 143 102 118 93 74 85 107 123 117 129 97 64 81 103 103 108 98 86 143 183 210 213 202 186 177 166 145 121 110 112 98 89 85 82 63 90 94
167 232 281 316 274 170 141 136 82 32 99 77 107 237 80 37 55 58 140 185 204 164 123 88 99 110 114 107 91 80 106 140 173 201 207 198 184 167 149 127 98 89 84 78 92 85 79 80 85
223 285 341 323 261 158 112 2 67 44 109 234 219 193 149 36 131 145 182 196 200 155 108 111 114 124 105 94 86 80 86 107 141 167 190 186 174 157 142 126 103 84 83 67 73 77 97 97 97
281 313 356 310 242 164 87 36 20 75 142 172 161 218 188 93 173 184 197 178 133 146 142 148 149 159 145 111 80 74 69 76 99 118 152 168 164 154 144 132 115 87 82 85 93 140 123 109 89
304 376 340 307 267 197 81 65 89 126 125 176 123 227 113 100 165 185 141 160 170 174 200 214 219 194 144 104 72 69 62 64 68 79 120 157 159 143 144 147 139 138 157 152 177 151 129 127 101
275 327 343 338 279 152 47 61 19 20 45 54 9 220 246 47 98 275 261 281 285 280 249 222 215 209 167 127 85 65 57 59 57 66 91 132 140 145 129 141 158 162 155 140 140 140 173 143 258
225 357 360 367 253 213 98 47 0 -10 34 33 -5 80 59 -35 172 289 321 284 235 210 195 212 218 186 195 173 134 90 66 61 64 59 81 118 142 149 140 152 173 156 146 129 174 204 164 241 322
298 356 291 283 193 132 107 84 60 67 98 84 70 59 51 90 127 172 224 233 223 179 182 206 203 184 197 214 187 141 104 94 92 88 100 117 155 155 149 147 163 163 150 163 189 183 210 236 230
273 297 239 216 137 119 119 104 94 108 132 144 89 19 7 39 90 100 108 138 156 149 181 143 170 205 224 221 220 194 145 128 111 122 137 148 170 150 172 193 201 204 176 195 186 169 192 270 269
255 213 173 140 99 112 112 124 127 136 133 100 120 70 -8 -13 17 54 74 67 58 143 151 167 171 184 186 236 241 207 176 143 127 146 161 174 175 134 158 177 204 207 154 148 156 151 186 231 349
231 157 135 131 146 141 123 118 122 92 51 52 50 74 39 15 5 17 65 88 123 119 86 186 219 188 218 242 258 250 208 175 146 174 156 160 152 114 155 153 187 199 159 139 171 143 162 299 311
207 228 187 148 144 130 89 77 85 62 38 40 19 29 71 49 28 29 48 66 110 138 141 148 225 233 277 247 245 254 238 193 183 184 139 147 125 99 133 155 165 168 160 146 165 147 166 184 167
122 127 133 86 69 76 76 67 103 24 40 42 23 9 37 44 42 48 43 87 104 145 153 244 205 268 308 271 272 272 220 187 193 189 138 124 117 88 127 157 168 157 147 148 159 177 170 173 142
141 123 155 78 120 69 79 42 15 17 68 83 87 81 60 69 79 121 131 127 129 200 197 230 254 269 291 272 294 260 227 191 193 206 162 127 135 110 143 161 160 162 173 143 144 178 153 157 120
171 168 132 109 61 72 84 -19 22 48 30 33 58 80 92 88 68 91 102 115 128 154 200 219 260 249 284 261 279 257 227 234 208 222 190 147 148 133 155 149 160 172 183 162 163 166 155 165 163
157 188 143 89 65 95 108 -19 11 31 25 45 75 95 96 77 41 46 52 64 60 100 168 212 285 266 272 322 308 304 270 264 216 219 212 184 164 151 159 149 171 181 192 189 169 160 122 154 168
137 127 103 69 76 90 88 30 17 22 5 25 48 78 108 60 2 -57 -60 37 33 75 150 152 255 271 354 356 372 309 332 259 226 209 222 218 191 175 178 172 197 171 191 168 160 177 163 204 190
127 105 70 70 85 74 60 2 2 16 9 64 72 59 85 97 73 -24 -70 28 53 90 128 145 206 288 339 373 370 374 350 324 264 258 227 231 212 200 202 201 219 182 194 168 178 174 191 208 197
128 128 96 101 81 60 58 5 -1 25 119 167 147 99 138 142 113 42 1 34 91 82 40 127 196 261 319 367 470 427 471 366 269 224 256 211 222 224 211 216 232 231 194 194 172 143 141 173 187
117 90 100 87 60 53 45 44 60 21 123 161 95 9 -2 21 106 138 10 33 121 155 174 127 199 274 314 393 449 398 394 282 228 359 322 246 221 215 210 224 242 235 213 167 141 126 144 194 197
75 49 78 80 63 29 72 98 116 88 89 50 47 -4 -41 -68 1 134 99 18 147 218 203 82 167 257 335 419 384 424 365 320 368 306 251 237 235 216 209 215 235 219 181 136 129 127 160 189 210
44 79 113 103 100 72 54 115 125 104 73 32 -5 -14 -63 -99 -1 64 88 52 138 233 207 144 143 234 312 325 355 365 426 378 367 314 183 211 251 227 201 209 206 150 156 116 113 122 126 141 210
124 167 136 120 136 125 69 117 127 139 44 -48 -48 -35 -60 -99 44 59 87 114 160 242 298 238 143 189 280 253 322 371 371 324 308 262 206 236 246 218 192 202 172 126 130 107 111 108 122 130 173
111 141 191 115 138 103 85 149 109 95 38 -26 -33 -77 -9 27 31 73 73 167 196 210 248 249 83 153 203 236 213 254 279 291 262 215 212 217 194 155 152 143 139 135 98 100 102 105 124 181 221
85 113 100 164 146 133 128 125 108 70 0 -19 -58 -29 -12 119 25 153 85 146 170 204 212 306 135 163 183 241 233 207 211 258 216 195 199 190 158 148 121 129 157 140 123 102 92 111 159 229 210
117 145 191 286 190 218 167 138 121 75 -39 -10 -17 -31 -28 82 48 130 89 168 185 202 200 328 363 127 112 192 217 176 204 211 184 191 186 163 152 154 157 160 144 121 114 102 92 112 138 171 202
77 142 196 196 208 203 191 131 79 62 20 53 25 -32 -34 37 57 69 142 178 217 255 272 375 436 305 168 198 218 173 187 174 178 162 158 132 131 136 135 144 111 71 94 61 58 46 31 68 252
66 112 65 149 178 251 189 96 137 87 42 49 52 -1 -41 -14 -11 27 101 151 211 307 324 403 451 547 387 178 109 149 167 131 107 147 134 123 118 132 145 144 97 88 82 74 60 26 65 225 233

GFSSGP_con_3kmhel_096.txt.gz
Helicity
95 95 109 148 150 163 110 76 61 51 40 52 120 129 156 131 108 107 26 86 89 179 190 146 108 87 76 75 101 127 123 136 198 239 249 231 220 187 176 160 135 107 106 104 96 95 86 71 82
102 130 177 176 189 200 117 127 84 40 38 87 83 85 131 112 69 50 70 66 108 130 152 123 99 78 71 76 115 131 128 113 161 208 228 239 233 213 188 160 149 140 135 107 96 85 81 80 101
118 159 202 201 222 265 127 76 92 75 119 96 26 77 74 125 70 43 77 121 134 157 137 122 115 95 91 103 116 135 139 109 128 162 188 217 232 213 190 185 173 155 136 111 94 92 92 92 103
138 216 256 248 219 157 106 133 105 51 46 70 137 178 96 72 44 17 87 185 187 179 171 159 131 110 106 115 125 135 135 111 121 154 167 185 220 215 191 186 151 147 128 103 95 90 95 102 107
200 244 316 260 209 239 134 89 70 74 30 56 149 186 238 95 80 59 97 182 245 198 173 186 124 99 104 121 139 137 135 128 131 142 154 152 176 194 186 166 144 125 115 107 106 120 95 95 117
242 264 322 258 223 185 114 74 72 95 36 78 178 204 170 62 54 34 99 194 225 225 206 156 112 109 122 135 145 143 144 124 120 130 131 133 146 163 176 152 133 128 144 119 103 119 120 122 126
244 286 270 242 237 204 129 89 100 113 116 72 90 189 138 218 78 13 103 148 227 198 171 127 110 126 148 166 188 172 127 117 113 113 114 124 123 137 148 140 138 146 123 109 131 135 140 140 137
263 279 279 240 249 182 114 130 87 103 68 42 18 127 230 165 62 40 108 122 149 177 149 135 126 138 145 155 152 145 139 119 112 108 105 113 118 123 126 123 130 142 137 133 142 136 140 158 213
236 312 302 273 236 174 121 135 81 64 78 49 4 81 125 63 30 31 55 70 65 147 169 158 157 143 145 127 116 121 131 120 109 101 104 119 132 127 119 119 122 141 148 136 151 153 178 182 217
277 304 234 223 189 152 124 111 66 66 138 120 70 116 132 73 93 103 42 51 86 93 131 132 149 155 156 136 123 135 112 97 112 112 119 139 135 140 130 122 122 143 150 153 161 154 189 213 218
236 278 226 207 131 122 121 106 86 82 89 117 153 152 183 94 98 105 71 12 37 67 95 91 112 177 153 144 163 162 140 106 115 143 143 152 150 162 155 153 161 196 202 200 190 214 239 239 227
247 200 164 130 124 153 169 142 114 117 97 107 117 134 142 126 104 87 95 59 83 73 77 96 114 97 145 196 189 160 159 138 142 149 168 180 164 168 165 165 162 208 200 202 193 199 210 208 203
212 187 152 152 142 129 125 119 122 112 64 61 53 72 77 93 96 66 60 52 64 104 121 106 156 113 115 186 216 202 197 193 170 160 187 196 182 164 163 156 149 188 184 171 186 180 162 172 193
194 157 150 149 106 116 111 118 141 74 42 57 51 32 32 39 58 93 70 68 71 89 103 142 180 175 197 144 180 208 210 198 213 204 175 186 169 170 160 143 134 174 162 129 137 142 163 162 181
154 164 162 125 116 110 134 148 111 79 102 77 72 77 65 48 55 57 99 124 99 114 122 176 210 244 264 191 207 220 208 210 237 229 180 156 170 159 171 164 136 154 134 130 158 179 213 217 219
179 181 186 116 109 92 138 160 71 59 90 89 72 61 36 38 44 72 94 118 151 164 176 156 192 250 269 270 245 236 247 239 253 244 183 154 151 147 173 171 131 152 142 137 159 178 186 202 179
206 177 158 143 82 108 144 190 94 74 74 46 34 43 50 28 22 10 35 60 116 137 150 166 186 229 236 272 303 293 263 263 241 243 178 156 147 161 165 170 147 165 174 165 178 178 184 183 169
151 188 191 174 93 123 110 99 61 67 54 21 23 40 37 48 31 40 20 17 37 25 67 118 151 209 232 267 291 288 294 270 238 223 197 170 162 166 177 184 175 170 184 185 206 183 190 201 181
219 190 146 114 103 109 109 59 61 73 49 14 43 68 58 58 42 53 26 -33 22 2 62 86 151 175 235 228 264 289 328 251 223 263 215 181 170 170 190 197 193 179 195 190 194 204 228 215 225
188 175 121 91 93 93 54 13 71 59 3 43 34 55 43 49 78 49 55 55 41 45 24 91 96 174 233 234 232 325 288 245 235 288 207 231 208 188 202 211 199 192 216 210 215 218 245 219 213
167 166 114 114 137 92 70 8 -10 16 21 31 46 37 37 22 24 37 35 46 29 114 120 76 99 102 218 248 311 381 363 363 381 290 283 209 226 223 208 209 211 218 215 204 224 227 197 218 209
165 104 104 105 107 99 58 55 -53 37 -9 31 25 48 37 21 23 25 -4 40 41 58 107 129 101 113 167 249 251 273 334 333 300 340 312 257 94 193 212 184 203 203 224 206 228 181 156 175 202
97 83 100 109 104 105 78 71 31 -5 35 2 50 45 48 38 42 -12 -16 77 125 68 68 110 110 111 116 241 277 283 285 316 364 348 253 72 111 198 210 200 195 229 220 182 231 174 145 154 147
88 116 124 129 108 98 42 87 48 5 11 44 64 62 50 8 -15 -19 35 51 125 71 85 101 140 146 149 190 239 251 247 353 357 321 378 275 319 322 172 199 220 219 213 210 213 156 131 132 142
139 144 131 132 148 111 40 87 83 60 49 57 64 68 53 -13 -67 -15 12 52 119 78 108 122 181 211 149 122 137 194 246 274 347 370 261 383 377 310 220 244 246 229 201 198 199 153 125 126 146
113 112 139 127 99 43 63 99 49 51 79 88 135 66 55 -37 -78 -25 -1 98 121 90 128 190 210 272 138 142 129 167 242 282 252 247 321 306 296 280 252 240 215 201 222 169 133 123 121 106 115
119 137 124 136 156 92 95 112 86 92 46 187 111 80 36 -73 -74 1 13 164 184 135 207 198 214 202 92 140 161 188 209 223 258 220 174 150 207 254 199 176 176 173 170 169 155 121 108 115 122
161 134 144 199 164 156 146 81 86 139 155 125 98 72 14 -27 -34 9 14 68 74 125 191 207 235 287 102 136 147 177 205 231 219 213 152 186 218 201 148 136 123 161 182 166 145 113 105 111 137
114 136 160 169 206 212 166 138 236 191 110 50 75 55 -6 -23 -19 -6 11 61 68 118 163 241 300 409 328 128 110 154 191 229 201 155 169 153 155 161 133 120 184 187 173 166 156 114 117 106 135
110 164 210 246 283 282 275 196 165 113 99 86 59 21 16 -38 -52 -17 16 34 92 164 221 299 340 425 378 295 182 114 146 155 187 152 130 128 174 166 123 146 178 145 118 125 119 97 96 83 104

GFSSGP_con_3kmhel_099.txt.gz
Helicity
80 81 73 95 94 114 82 64 87 56 47 44 92 47 70 85 92 106 8 19 39 157 194 208 212 143 98 69 64 82 101 132 143 128 139 174 184 186 176 163 156 126 100 104 86 84 92 79 73
84 95 122 129 121 122 83 125 86 73 67 91 82 88 57 66 41 83 68 26 59 190 216 195 186 154 118 85 82 82 96 133 144 125 135 158 185 182 172 162 149 141 121 102 80 91 94 111 100
93 116 142 131 159 149 87 83 83 89 116 96 83 68 108 140 131 107 25 51 36 112 173 173 187 178 149 120 102 93 98 126 148 128 127 148 165 180 172 167 159 141 125 100 82 85 94 122 112
115 159 186 153 100 97 85 81 71 97 64 60 91 136 159 93 105 76 -43 -21 49 100 152 178 203 196 169 141 113 106 107 124 151 144 130 133 158 177 188 178 159 139 126 103 87 93 90 110 109
171 188 177 145 107 136 87 79 67 76 68 66 66 100 108 90 82 74 -2 8 20 30 105 175 239 207 169 135 124 127 135 151 163 144 129 127 150 178 187 177 144 130 116 99 99 106 94 98 119
203 214 178 125 77 101 57 63 69 74 74 75 90 129 99 95 140 176 45 11 33 48 51 155 199 169 141 129 131 146 165 173 176 152 130 131 146 162 167 151 142 123 109 94 98 117 93 109 126
209 219 193 160 110 74 66 65 51 65 91 101 112 118 119 178 141 132 122 60 61 102 99 125 163 123 125 113 120 142 164 177 173 160 154 137 135 148 141 124 120 111 108 106 104 99 100 114 124
245 224 192 165 134 89 75 86 106 81 78 76 57 135 156 197 91 76 136 36 56 102 110 108 111 121 97 95 122 134 139 136 142 138 146 150 139 137 132 125 127 115 120 110 100 110 112 112 118
247 244 212 201 163 125 99 99 84 115 96 87 83 125 103 106 56 76 126 71 31 70 102 109 77 78 103 116 115 114 111 113 123 121 121 141 123 122 123 127 133 114 126 117 108 117 114 140 139
249 250 189 203 164 145 128 104 77 65 89 84 80 81 116 138 121 100 111 191 23 15 46 71 77 81 100 102 107 106 91 101 142 109 92 112 119 129 125 122 130 134 122 113 114 130 142 138 133
208 246 176 201 114 122 125 107 84 69 44 64 81 83 150 195 225 162 147 110 59 2 27 64 80 86 108 114 111 104 121 120 143 123 107 104 130 140 142 142 141 130 133 121 102 130 129 144 141
209 172 139 132 102 121 99 85 61 82 47 42 64 66 72 133 184 191 186 154 120 63 27 52 73 102 104 106 110 105 106 129 120 130 119 132 145 148 161 167 164 163 151 143 122 141 137 131 122
172 146 131 118 112 97 95 75 69 81 37 50 60 68 64 62 99 126 115 101 117 99 65 56 59 66 125 129 121 127 110 108 115 143 138 169 155 146 170 165 174 165 145 141 131 129 128 124 100
154 121 121 120 75 102 97 96 121 60 53 71 94 94 100 96 79 97 129 148 141 122 88 44 79 83 156 141 153 145 134 130 134 170 154 168 171 164 175 177 172 171 159 158 149 132 123 120 106
180 165 153 126 103 110 122 132 126 45 85 116 123 103 89 85 107 95 111 130 145 156 148 89 52 85 112 152 174 205 202 144 139 156 170 194 177 169 181 173 174 163 183 175 175 137 130 118 103
186 179 167 150 110 122 102 161 107 87 129 111 97 61 66 58 56 71 98 110 130 134 155 179 145 72 97 177 205 218 222 209 179 158 185 217 204 191 187 165 161 146 201 197 176 161 140 118 120
212 183 159 183 92 129 134 179 118 72 67 70 74 60 54 51 67 70 70 80 108 118 136 136 130 125 97 103 159 200 201 230 210 192 204 225 248 202 193 167 155 137 183 186 185 182 164 144 132
174 175 156 161 122 153 140 101 80 48 59 46 54 68 72 82 81 97 97 86 70 90 128 111 82 85 81 121 150 141 217 206 209 232 209 202 270 221 196 178 159 161 171 198 183 182 167 138 148
192 176 143 127 79 123 110 115 70 52 64 52 71 75 89 99 87 96 99 71 40 71 135 127 81 98 99 97 143 153 151 200 228 262 226 217 246 232 205 206 169 177 189 198 188 173 173 197 202
143 147 116 95 87 92 106 86 21 43 64 70 68 70 85 96 84 72 68 52 38 32 15 144 107 74 129 116 143 194 186 178 207 238 228 250 234 222 238 213 199 201 207 204 209 209 215 222 234
178 148 109 109 159 90 87 72 32 86 76 51 23 43 45 53 53 34 42 20 44 65 51 29 155 91 113 153 124 163 147 184 213 247 274 211 237 248 231 184 213 230 223 231 224 224 246 246 229
140 65 66 114 154 207 125 133 38 39 55 -14 17 50 57 53 16 -19 -2 30 63 57 -3 31 90 141 92 127 109 144 197 199 243 266 259 293 314 330 286 183 157 187 221 230 226 215 245 254 228
126 81 103 112 114 138 122 122 70 63 16 21 52 61 57 34 11 -2 10 -5 27 36 102 90 68 63 74 124 82 140 195 201 196 256 362 334 355 342 395 221 98 175 210 200 206 242 241 232 219
81 137 150 163 138 182 65 85 98 37 47 20 42 58 47 35 16 10 11 17 7 7 13 27 72 67 64 135 66 83 120 157 193 211 294 318 328 288 418 411 206 135 187 196 201 210 193 194 172
146 186 219 214 227 195 77 89 90 55 49 38 64 78 51 35 33 14 26 49 16 35 36 17 93 84 150 171 48 65 111 114 95 178 250 299 302 173 127 205 148 186 212 200 171 201 179 186 153
118 138 204 245 219 166 94 105 70 132 140 126 124 69 56 40 20 32 36 22 5 56 54 99 121 144 194 169 71 106 142 124 115 132 207 251 283 259 314 281 281 267 225 214 199 199 153 153 136
130 141 141 135 129 114 84 82 145 200 173 158 108 77 63 32 24 44 12 -3 -7 55 134 118 155 181 232 225 86 115 133 152 157 120 173 231 195 200 228 270 351 252 231 193 188 184 161 134 145
143 130 149 166 156 142 92 86 107 200 200 167 133 74 37 17 17 -18 -25 -6 7 39 104 103 165 227 304 380 117 111 115 120 156 190 219 240 213 136 151 219 212 195 181 169 178 174 130 136 129
145 143 164 149 147 143 116 109 210 215 192 150 101 13 -8 1 2 -30 -34 -16 -5 46 54 79 184 275 403 347 152 128 127 149 224 209 163 191 197 250 57 132 148 137 137 141 169 146 130 126 111
112 134 169 141 125 181 168 109 264 149 107 85 63 11 6 37 22 -17 -60 -14 19 58 143 166 229 294 430 351 335 124 147 82 128 146 136 152 226 242 135 93 102 106 143 173 145 133 135 129 124

GFSSGP_con_3kmhel_102.txt.gz
Helicity
49 45 30 28 36 54 21 57 77 71 58 82 50 50 105 115 102 159 74 16 19 24 115 146 133 127 116 111 105 81 71 84 101 95 100 100 103 124 134 141 120 106 94 96 78 66 56 59 70
62 62 50 72 44 23 18 82 36 103 143 83 59 50 56 136 133 109 86 55 12 12 92 147 143 137 139 131 128 111 93 96 96 108 113 110 113 123 130 147 124 103 95 97 82 66 64 61 72
62 50 60 70 36 8 21 62 66 92 125 107 95 67 101 141 137 130 121 54 -21 -16 50 116 154 161 170 151 140 131 110 112 116 121 138 125 124 132 132 145 136 113 96 91 79 71 73 69 74
74 87 104 72 9 13 39 70 85 61 61 65 74 72 86 136 125 117 71 31 -31 -16 8 98 123 176 181 167 154 127 114 116 128 146 155 135 125 143 144 147 137 118 109 84 69 67 72 79 84
92 110 70 57 12 27 59 72 65 69 89 86 82 88 93 105 102 101 79 48 -6 -1 6 35 78 111 168 154 132 118 114 122 131 150 169 160 138 146 158 148 140 119 107 89 70 80 83 76 92
99 137 85 51 16 39 49 63 48 51 63 59 53 95 72 115 142 112 77 59 -1 2 30 43 68 79 100 129 128 120 117 115 121 137 147 159 155 162 161 149 121 124 105 93 89 89 90 81 93
70 77 59 54 26 45 50 103 57 76 93 76 176 94 108 90 141 109 101 67 36 6 34 68 95 85 100 107 120 119 116 108 109 120 142 144 158 162 154 141 121 110 94 83 89 101 105 85 80
107 133 84 85 50 24 74 53 78 63 99 201 99 113 135 158 100 86 69 79 70 23 37 79 122 119 91 68 94 105 104 101 105 114 123 130 137 135 138 147 132 104 97 87 94 104 101 90 78
149 140 97 52 81 58 83 36 97 155 100 97 94 99 103 93 80 69 82 36 54 93 42 99 128 141 138 93 72 96 95 99 107 99 124 128 102 100 111 107 160 115 110 101 93 105 103 93 87
139 104 77 118 130 74 77 43 95 102 88 82 68 62 64 75 90 118 121 106 75 96 46 63 114 144 143 130 121 90 84 80 76 75 110 103 82 84 87 107 133 146 127 115 100 98 106 100 62
124 117 81 112 77 91 82 70 69 67 89 48 58 83 97 113 122 113 121 96 102 115 74 47 52 78 91 106 115 150 139 110 94 66 91 95 82 90 103 106 110 109 125 106 108 101 78 81 64
130 94 109 98 92 69 67 65 62 88 43 49 57 65 78 92 122 138 124 144 121 131 94 74 51 45 55 81 92 117 145 131 122 114 115 121 115 88 96 106 105 111 130 93 102 103 92 81 66
85 98 104 77 94 64 70 58 53 74 35 67 75 87 86 98 98 126 159 120 114 109 109 100 61 54 56 50 75 101 110 111 99 108 111 131 122 125 102 103 102 120 109 123 127 124 107 91 73
205 114 124 115 73 52 62 59 87 73 66 78 87 80 86 102 121 115 135 130 123 121 140 129 98 66 60 51 49 78 103 92 127 122 130 125 120 114 152 162 128 103 129 152 128 151 117 95 82
160 134 104 89 75 87 76 84 90 46 58 71 78 87 106 113 106 108 118 130 118 121 124 99 92 92 66 66 56 43 63 85 100 106 131 144 147 129 146 165 154 151 135 154 132 167 143 112 108
151 120 135 160 66 96 119 116 162 100 80 65 74 82 84 93 86 100 108 114 140 129 142 140 117 118 108 66 75 60 79 81 80 91 126 121 164 143 164 172 157 189 192 169 148 194 206 170 111
184 174 107 192 95 146 102 146 140 104 91 65 64 68 91 83 89 107 106 110 114 121 122 116 122 137 147 118 89 88 85 120 104 100 101 112 173 178 206 195 156 190 210 165 152 190 204 179 119
115 101 140 150 153 115 123 135 135 44 46 44 51 86 74 80 115 92 87 81 83 86 104 125 113 121 135 145 122 118 113 134 121 127 112 106 168 217 216 209 203 199 199 166 157 155 175 161 132
232 181 124 154 157 166 121 95 74 25 41 33 52 82 101 107 103 107 108 87 70 63 70 105 137 131 117 153 190 136 123 103 138 176 135 122 156 205 228 233 230 197 192 197 168 168 176 187 176
118 138 144 142 80 123 96 84 55 32 34 74 110 107 125 111 110 113 112 105 86 59 67 81 90 158 132 132 111 181 112 115 126 153 183 143 169 195 236 265 256 196 203 191 173 164 226 213 214
120 120 106 85 93 79 95 69 61 78 126 139 143 127 104 117 114 85 70 53 41 60 94 92 103 132 195 122 107 132 157 125 125 149 173 146 181 195 260 253 271 208 183 188 158 171 194 262 248
92 61 71 107 119 115 100 163 73 93 99 93 102 85 100 92 57 33 22 13 12 25 49 89 117 135 97 128 109 90 150 76 104 127 215 214 225 247 246 279 308 238 215 174 150 154 153 189 252
44 87 48 71 96 110 76 130 106 63 111 92 66 84 80 67 52 39 31 23 -4 13 39 31 93 115 113 79 94 108 127 108 105 113 157 228 263 291 239 293 249 224 187 179 154 124 112 179 245
54 54 71 91 89 144 76 95 84 51 78 123 77 77 84 69 53 34 13 4 11 15 24 38 70 73 75 107 74 78 133 107 90 90 145 216 273 322 221 236 342 292 325 247 199 153 120 168 212
25 118 147 137 157 126 116 91 80 135 116 121 97 101 86 61 49 36 14 18 16 22 25 67 48 57 50 82 96 82 96 66 92 79 155 211 259 306 240 277 348 339 336 197 209 138 143 168 213
36 73 90 102 99 65 116 122 204 215 244 163 124 131 81 55 46 23 6 14 7 22 25 48 50 94 111 133 116 87 84 62 123 119 155 157 176 158 150 179 240 296 341 243 51 179 173 157 175
46 19 -7 108 130 202 75 110 135 174 174 144 136 81 72 65 38 12 10 10 34 28 27 19 22 94 121 131 169 197 55 51 125 121 131 133 73 82 64 152 136 101 -100 -47 171 228 180 184 204
91 87 86 91 134 118 61 71 103 103 120 144 144 117 81 54 27 12 -5 12 26 25 1 31 38 68 113 163 255 241 63 67 82 120 97 123 98 152 171 221 250 231 299 108 238 229 188 181 180
109 110 124 124 134 156 127 102 164 163 178 184 165 119 99 58 44 6 3 4 18 19 12 36 37 47 167 254 355 301 128 93 104 112 146 199 216 171 222 215 210 207 203 191 179 159 148 141 141
100 118 109 119 91 114 134 101 78 123 164 151 103 64 44 42 18 16 14 9 22 22 27 50 55 98 173 312 332 310 268 291 143 140 148 163 214 215 203 235 159 105 94 120 90 145 161 146 148

GFSSGP_con_3kmhel_105.txt.gz
Helicity
-13 4 -0 7 23 38 -2 -6 94 87 51 112 72 46 125 141 141 91 77 65 65 36 66 85 121 114 94 78 70 66 66 77 75 81 83 86 94 98 99 95 92 70 53 63 60 54 56 47 44
-20 -2 7 19 32 1 -2 34 96 38 186 81 54 40 24 54 136 145 135 84 66 38 34 29 89 101 109 95 85 75 77 72 83 86 92 103 96 92 87 94 94 73 53 61 59 48 46 48 50
-17 -14 11 47 17 -6 -10 103 172 148 92 48 56 63 121 97 124 108 109 96 79 29 11 18 92 79 106 119 106 92 84 81 90 99 102 117 125 112 101 100 96 71 66 73 56 46 48 51 51
27 47 55 48 -19 -14 24 57 86 90 45 50 78 63 88 132 132 107 84 68 55 33 7 91 119 89 88 106 123 100 95 101 102 103 102 109 130 123 114 113 101 87 64 79 55 55 58 50 52
34 49 44 35 -1 2 10 101 117 70 83 91 76 70 68 68 72 101 96 70 45 17 11 69 137 109 93 104 102 107 105 110 117 113 112 118 132 140 131 125 114 100 85 83 53 71 66 63 60
57 78 62 52 16 7 31 129 75 55 54 56 67 54 73 90 78 133 77 51 39 23 12 49 62 118 89 89 101 95 107 110 110 112 109 117 127 142 143 132 114 95 108 79 61 80 75 76 70
35 61 52 73 32 27 41 89 82 43 58 58 70 168 107 94 133 107 87 55 14 33 15 20 -3 76 106 106 102 98 99 94 94 107 101 111 121 133 136 139 117 103 106 87 74 85 78 76 74
56 74 62 58 34 37 54 101 69 52 71 132 225 116 61 78 169 95 64 58 51 21 34 24 10 67 102 107 119 114 100 86 97 103 101 106 115 116 114 124 121 101 107 83 83 91 84 81 75
91 113 85 36 36 45 68 96 45 111 126 100 79 88 138 165 136 88 83 55 52 28 34 56 59 91 119 111 116 127 112 100 103 100 104 106 89 92 99 88 135 110 104 102 73 101 97 73 86
68 92 60 32 103 91 107 85 41 92 53 58 57 57 61 88 75 97 99 100 97 51 38 28 63 82 132 155 130 96 97 87 90 94 98 84 74 83 69 85 119 114 113 105 102 94 94 89 66
72 73 38 76 91 97 73 68 86 78 69 66 56 81 95 82 95 87 77 77 104 123 63 42 44 58 79 114 172 148 107 89 95 92 99 86 86 77 74 70 90 88 90 89 113 110 91 80 59
84 74 75 66 101 100 66 59 71 84 90 61 85 82 87 98 79 82 66 64 111 92 111 57 83 68 52 70 60 65 111 99 99 92 100 92 93 97 96 70 108 95 107 77 87 116 103 79 73
102 95 92 95 82 93 89 86 68 79 80 55 81 87 110 82 104 73 53 94 78 119 132 151 107 77 81 81 71 59 56 71 84 139 130 99 88 103 90 82 66 110 90 112 75 106 125 98 89
105 187 143 84 111 103 81 74 85 102 72 79 78 107 73 86 96 113 80 94 167 159 133 134 145 178 89 92 96 92 77 61 62 82 114 137 146 147 117 108 93 51 124 110 103 58 135 121 107
109 102 117 114 111 104 120 99 96 55 76 92 85 80 75 81 93 82 175 108 126 110 134 115 105 134 162 93 75 86 97 86 74 77 105 124 155 124 120 131 170 91 125 138 122 117 98 111 124
105 94 157 109 51 59 102 105 62 49 89 64 73 74 97 64 117 116 113 91 113 113 110 129 143 130 128 144 146 80 83 99 97 102 94 68 88 126 151 148 171 135 109 191 171 112 111 114 137
145 162 141 110 40 167 117 110 -7 79 153 84 62 84 48 67 63 130 95 117 107 117 109 99 113 115 150 145 145 159 103 107 110 111 135 99 82 105 159 193 222 168 142 203 227 158 144 145 140
119 74 69 59 60 112 91 82 90 77 103 66 69 50 28 72 56 149 99 122 120 113 94 82 91 83 82 103 135 142 157 130 141 129 142 150 124 117 165 189 224 237 213 227 235 205 155 161 112
87 150 215 98 51 108 153 107 46 56 40 37 58 58 61 67 139 133 118 113 116 110 95 91 100 116 112 106 94 119 149 158 145 144 164 176 152 140 176 194 205 239 257 200 229 194 158 188 172
226 142 139 150 75 89 118 104 58 32 40 36 27 62 96 109 108 142 130 112 96 83 76 71 77 88 113 160 174 209 218 251 204 149 156 167 193 194 211 189 218 190 266 190 233 238 213 204 207
339 309 155 163 191 56 80 130 71 34 30 24 77 94 135 140 151 128 115 83 58 61 64 49 60 75 87 85 120 165 193 164 203 254 196 155 146 193 253 282 218 255 281 275 306 229 201 210 218
199 236 149 168 155 171 7 110 13 9 117 140 151 180 130 148 133 109 83 77 63 61 55 48 35 49 60 94 118 176 220 271 205 188 188 141 138 153 214 280 233 258 282 283 298 236 189 149 221
117 99 123 -12 87 181 102 157 64 71 63 62 102 90 159 125 104 83 78 61 48 50 43 34 19 27 52 88 129 145 137 161 148 197 201 154 118 153 178 222 292 334 267 289 240 172 133 145 164
224 297 98 19 3 163 116 103 47 98 47 55 129 156 118 101 88 69 59 50 43 35 28 16 16 22 51 80 96 93 90 124 117 146 232 195 164 203 191 220 276 308 318 282 250 262 87 146 155
86 204 222 193 99 158 1 43 45 90 74 107 162 176 71 90 93 82 64 39 28 23 26 26 18 24 53 68 63 59 68 72 60 63 160 166 160 181 218 256 276 301 240 273 272 183 87 103 169
-30 108 216 189 167 55 107 161 133 239 230 214 303 137 90 117 94 76 66 42 15 11 21 23 29 37 59 67 63 80 76 68 45 22 82 148 141 99 191 229 251 180 224 269 247 341 233 190 187
27 33 -17 88 121 119 79 122 197 169 207 169 155 124 144 139 87 94 64 42 8 -12 1 8 33 38 47 73 49 104 142 110 47 16 83 128 127 94 170 203 176 192 214 235 264 289 216 192 120
12 -6 -19 53 82 110 42 22 104 156 163 167 190 169 172 130 111 64 32 11 -39 -28 -8 7 29 41 12 70 36 106 210 219 161 30 70 112 135 102 97 136 202 231 182 220 272 295 212 119 96
30 25 9 72 104 96 83 93 120 92 160 145 163 194 150 120 80 45 4 -26 -29 -10 -4 9 29 40 45 51 67 115 211 205 180 133 53 80 68 70 86 201 201 179 246 288 205 151 115 9 61
103 155 67 94 49 41 93 65 33 82 113 100 88 99 93 60 34 15 8 15 22 25 24 27 53 48 39 60 65 100 195 249 187 203 196 97 68 87 128 159 157 155 189 257 262 116 -32 33 35

GFSSGP_con_3kmhel_108.txt.gz
Helicity
-36 -30 -1 12 21 20 -9 -46 -31 98 77 192 210 103 166 157 145 118 80 70 87 76 50 83 112 93 84 82 76 64 60 59 61 58 56 67 75 80 81 76 60 51 36 28 27 28 25 21 20
-25 -36 4 20 28 19 -15 -4 97 181 211 132 61 43 48 70 98 123 155 75 78 55 50 63 92 78 74 77 82 72 60 63 68 69 76 78 80 79 81 82 70 51 35 38 29 26 27 32 31
-33 -28 18 43 30 8 -17 18 118 135 110 115 92 58 113 146 174 156 129 105 77 43 56 56 99 81 74 71 76 75 71 70 82 86 85 94 93 92 89 84 81 59 46 34 36 29 23 33 38
26 41 47 70 -2 -25 -16 26 127 111 66 83 84 130 66 126 143 136 98 76 64 82 64 119 105 95 80 76 71 63 70 81 89 99 92 94 95 94 92 86 82 63 48 68 57 34 29 43 40
11 30 29 33 10 -9 2 13 131 130 113 50 45 53 77 77 115 125 112 70 76 88 93 72 120 111 92 84 78 72 71 77 80 94 91 91 98 94 94 98 86 70 56 63 67 51 44 40 45
30 33 41 38 14 2 7 45 119 120 79 51 53 50 49 24 75 159 145 31 34 62 42 71 102 107 105 79 83 78 76 72 75 84 90 94 98 99 99 96 97 81 61 60 69 53 58 48 48
16 36 31 30 48 16 42 59 65 109 103 45 44 87 112 51 216 201 164 41 22 5 74 31 34 71 92 100 89 101 92 76 75 78 83 97 100 98 91 95 95 94 74 71 72 83 71 51 47
28 57 46 55 38 16 15 38 100 147 110 94 131 180 113 72 141 167 151 76 70 29 47 82 -1 39 82 122 110 113 109 94 87 77 82 96 94 91 83 86 89 84 82 78 76 79 92 86 56
5 85 65 13 5 0 -4 45 115 140 140 149 105 73 102 72 121 142 127 94 68 76 3 44 117 13 78 113 119 130 119 116 111 96 90 115 110 102 87 79 86 78 76 72 74 84 82 88 98
57 99 71 3 0 28 53 100 83 65 66 87 13 58 73 63 92 116 155 128 104 79 129 7 83 103 54 106 120 133 133 131 125 112 117 114 102 106 88 93 93 103 93 74 81 88 95 104 94
43 108 39 15 36 56 126 75 119 111 110 97 117 92 88 116 167 117 91 71 77 105 92 40 1 90 93 99 167 144 159 145 131 112 122 121 121 99 104 119 121 127 110 88 87 96 113 117 86
43 61 60 34 37 73 140 129 43 61 83 83 131 159 183 195 167 142 67 63 68 80 74 69 42 30 48 98 156 153 98 113 124 125 124 127 133 130 127 113 171 145 144 126 104 110 111 108 107
97 94 76 62 55 58 94 72 54 51 79 86 82 89 121 143 176 93 114 48 67 116 176 191 149 62 54 69 104 98 98 120 98 101 98 117 151 133 123 129 141 164 115 142 113 115 117 103 106
100 121 139 150 183 99 101 99 68 61 57 81 101 94 108 142 89 97 58 86 162 188 226 192 205 198 226 89 97 102 115 104 124 126 130 103 117 125 120 123 141 168 171 173 119 99 126 120 108
85 83 116 120 108 115 61 85 118 75 62 72 82 77 86 116 69 130 147 205 197 190 202 226 114 136 174 197 194 101 107 114 114 122 118 127 124 209 182 174 178 132 198 170 150 99 163 120 136
137 141 174 134 96 88 26 123 94 28 33 76 35 92 76 80 59 111 204 277 216 194 197 180 163 150 163 186 161 140 180 113 121 124 117 167 148 139 211 187 200 230 237 239 231 171 196 175 172
184 239 187 109 110 87 29 58 89 44 13 81 54 53 82 76 82 163 255 178 209 191 182 136 104 123 139 150 148 144 116 151 140 121 125 185 194 186 159 168 214 203 223 313 234 215 236 219 203
167 173 161 149 91 35 54 49 101 34 32 155 67 37 62 40 121 243 177 289 179 170 142 140 124 105 90 88 102 124 138 127 139 142 141 139 222 185 143 161 212 244 250 263 314 250 272 245 206
87 129 178 184 117 116 87 141 58 68 31 81 62 31 60 56 198 205 260 229 179 135 133 135 112 106 93 67 70 87 116 173 186 161 143 173 210 207 165 191 187 289 294 284 335 311 319 310 266
140 158 158 88 120 112 76 166 167 60 25 97 74 38 76 96 182 190 187 167 107 105 96 97 96 94 86 84 85 61 36 68 138 212 274 211 170 213 212 177 241 297 310 301 309 328 310 307 290
102 162 119 106 132 208 278 122 228 131 40 29 68 52 111 230 211 191 197 122 85 72 66 77 78 73 67 77 67 70 88 98 88 117 95 183 199 247 284 224 245 297 255 171 183 230 259 315 312
110 61 60 104 100 169 240 119 168 165 56 31 48 106 291 301 299 324 177 102 76 76 71 73 72 66 56 56 58 81 66 67 101 119 210 232 210 284 296 300 278 318 294 317 224 137 270 291 306
120 276 230 151 131 157 118 206 191 62 36 98 167 219 265 321 331 241 129 118 110 76 55 44 49 53 47 41 40 43 62 84 91 103 86 169 278 235 287 328 277 287 318 314 381 331 186 256 317
246 293 281 207 135 142 91 186 64 13 37 147 200 375 319 345 200 140 107 108 86 61 41 29 30 32 35 35 38 43 49 53 62 63 52 24 104 226 233 324 276 264 295 319 317 354 182 309 251
336 242 196 166 159 188 84 45 56 64 76 184 445 229 242 264 224 116 107 106 82 66 38 2 9 18 12 17 22 43 58 56 53 24 47 -4 -10 133 102 213 260 296 335 341 290 286 181 216 204
177 206 255 96 84 62 108 43 92 221 185 465 423 188 192 199 149 133 107 91 73 38 -12 -20 -13 6 8 16 27 57 63 75 68 58 63 31 -43 105 243 76 164 229 288 323 349 201 245 325 232
125 139 -16 -6 -29 -44 21 59 -7 5 198 226 243 147 77 137 159 135 106 51 39 6 -38 -66 -12 12 10 16 33 78 86 85 76 60 66 82 37 23 142 142 153 170 239 273 341 249 201 164 240
73 58 75 93 37 22 41 59 110 124 151 66 64 143 180 174 165 115 60 30 18 -14 -40 -40 -16 -3 12 23 42 70 103 110 63 33 63 123 75 53 102 115 116 168 206 278 263 208 187 196 244
87 60 66 55 70 44 86 14 76 230 388 284 186 143 120 102 106 74 47 28 10 -3 -6 -5 -8 -4 9 31 58 72 113 131 77 29 67 140 142 47 89 137 157 166 231 216 253 198 211 218 190
151 113 52 78 47 74 79 -1 39 8 -217 -54 22 52 12 56 65 60 55 44 36 16 19 12 2 13 23 33 48 76 90 143 132 59 91 187 205 170 58 87 150 169 213 238 220 277 261 215 261

GFSSGP_con_3kmhel_111.txt.gz
Helicity
-6 5 49 49 72 72 24 -18 63 59 147 115 89 111 93 107 168 118 67 84 32 44 68 86 105 105 96 92 85 77 68 70 70 53 70 87 88 73 67 70 65 63 57 41 29 21 12 9 13
6 14 63 73 82 68 25 61 26 65 68 92 117 104 126 159 130 121 117 94 31 42 67 101 91 110 102 106 94 81 71 66 69 62 68 91 97 85 74 72 63 55 51 45 36 27 16 14 15
16 31 73 64 59 64 24 4 -3 69 105 141 121 70 76 184 227 147 134 142 96 51 65 75 116 105 102 91 95 80 65 66 67 68 71 80 94 86 75 72 66 51 39 42 37 29 27 28 23
51 71 69 86 20 -23 39 86 39 103 108 114 131 178 142 54 83 115 117 106 89 140 62 60 121 122 102 94 82 80 68 65 64 68 71 72 82 82 74 72 70 55 37 30 46 37 30 31 29
81 94 88 76 31 35 26 50 59 134 112 96 109 88 140 83 185 180 122 67 69 103 106 36 86 122 113 97 84 77 72 67 73 68 67 72 72 77 73 66 67 61 43 40 58 42 31 31 22
98 107 92 46 42 53 42 28 84 117 100 121 132 122 110 186 311 246 180 61 6 46 76 78 44 79 113 97 91 89 87 78 71 75 73 73 68 73 73 72 62 59 56 55 52 51 45 44 36
56 99 48 35 1 -24 -5 50 20 103 161 175 160 158 181 332 258 240 217 134 81 69 66 59 54 69 94 113 104 99 95 84 71 70 74 72 74 75 74 72 70 65 60 56 62 57 53 47 42
81 120 62 27 11 -8 10 115 16 79 71 126 162 203 247 194 146 136 148 141 146 113 40 31 47 53 97 130 134 130 111 98 90 81 79 75 75 76 78 71 74 73 66 63 65 65 63 48 48
66 157 38 26 38 34 62 -41 26 33 91 104 177 210 154 124 159 156 161 178 168 145 106 41 27 25 77 120 132 133 128 120 111 103 95 98 101 84 86 81 78 78 75 82 83 83 75 66 50
125 132 94 76 31 21 -10 -47 33 76 105 133 117 94 87 107 108 138 140 143 162 182 150 78 46 48 34 94 133 155 146 142 142 141 133 125 113 107 95 87 76 79 76 84 89 93 87 92 78
70 106 67 46 32 13 30 -23 66 89 89 133 162 84 74 134 181 207 161 111 85 126 100 111 72 31 -5 60 133 146 170 161 144 136 145 135 114 115 109 127 109 114 98 101 119 119 114 112 99
81 53 64 39 55 70 67 55 17 73 71 52 71 89 92 174 217 205 175 120 60 119 82 119 124 99 58 49 112 149 166 173 157 143 146 151 136 110 135 144 150 150 149 141 148 153 135 125 102
93 93 87 96 87 108 103 87 79 54 68 108 75 61 84 89 135 170 161 107 73 156 230 291 216 147 119 93 111 119 115 137 141 150 140 167 153 136 137 153 173 171 165 155 160 170 155 136 130
83 54 53 87 79 102 113 54 132 144 75 93 108 86 121 124 160 193 138 146 193 209 248 226 261 221 189 184 145 111 110 115 139 154 138 145 170 149 140 159 211 184 192 192 163 181 178 156 132
131 98 83 138 169 182 121 35 139 97 100 100 107 111 126 109 163 147 231 325 238 235 294 301 270 296 233 194 178 140 117 125 103 115 134 124 166 143 115 139 185 203 195 211 190 160 180 172 157
111 133 97 132 110 111 89 81 155 140 128 103 76 143 105 133 143 226 363 319 300 334 368 366 261 204 215 212 173 138 124 119 129 117 121 117 143 161 162 165 172 231 243 256 223 190 197 175 197
146 133 112 29 66 69 51 141 116 85 97 127 120 66 184 162 327 398 397 409 380 382 425 342 221 162 164 154 173 183 161 125 106 114 100 121 123 147 172 170 185 197 268 306 285 278 250 243 230
153 141 107 98 106 138 147 177 137 109 -27 113 82 128 157 185 346 496 531 531 487 380 349 261 146 116 100 118 133 138 150 166 164 154 132 120 150 149 168 165 162 191 240 323 371 312 310 300 303
55 89 97 77 94 92 96 124 54 36 25 -33 79 156 194 331 514 558 562 498 432 310 196 153 114 89 70 74 94 111 106 103 108 132 169 168 193 167 163 202 204 185 209 249 366 408 349 392 358
52 96 98 80 63 139 122 127 96 2 -42 49 99 133 103 422 502 520 465 421 320 204 165 141 86 59 64 50 44 26 45 41 66 54 61 93 126 177 199 237 243 241 229 247 309 391 462 438 390
92 196 107 99 89 93 127 101 67 68 48 32 -8 58 297 483 520 451 363 386 287 215 172 81 66 74 58 68 30 19 8 14 -4 29 58 49 108 159 189 169 226 276 304 286 363 407 342 649 246
73 170 253 181 184 177 273 156 120 85 7 66 87 41 606 853 552 529 511 385 207 196 107 48 48 53 52 34 21 29 12 32 39 32 55 55 54 61 164 294 172 243 296 268 301 434 340 497 216
116 165 255 199 170 195 146 201 243 97 41 57 200 190 487 471 498 499 473 275 232 165 57 31 43 35 39 25 9 8 24 21 28 33 26 33 38 64 71 221 324 203 294 282 381 445 381 324 530
133 141 93 112 190 215 176 208 96 82 100 81 213 353 694 574 498 437 317 224 201 131 53 15 41 45 25 19 24 21 23 27 30 39 20 20 62 59 48 98 318 207 217 267 323 344 286 382 338
264 231 161 124 139 224 78 133 238 88 96 23 124 431 518 561 525 357 252 192 263 89 7 -14 -24 -0 17 27 22 29 17 14 20 27 27 18 48 58 55 44 177 230 177 175 210 252 311 360 368
225 202 137 152 137 109 100 101 68 139 407 531 643 751 524 391 302 222 145 139 107 45 -29 -53 -53 -34 -15 30 52 39 31 10 9 20 27 49 91 93 87 60 49 132 200 218 163 166 268 389 299
142 138 107 82 47 90 108 67 145 187 194 299 428 432 406 402 311 169 36 55 54 1 -19 -33 -38 -40 -12 21 41 55 50 37 33 44 58 75 74 100 65 116 36 112 158 187 -56 72 250 287 355
73 81 122 121 104 74 32 40 31 169 225 382 275 317 210 230 72 17 3 40 -1 -2 -29 -34 -23 -11 9 16 19 25 41 43 43 53 59 70 58 58 69 74 118 99 144 102 56 66 281 351 303
107 30 91 93 84 87 53 38 -17 9 20 63 101 92 115 104 87 55 43 29 5 11 27 13 18 26 26 26 27 28 45 56 67 72 108 90 69 67 78 84 58 55 83 127 40 193 296 294 309
80 95 125 124 41 122 91 91 3 -82 -64 17 -0 83 73 83 39 27 13 18 17 30 49 42 43 54 43 38 26 30 50 60 80 90 129 125 97 119 154 147 93 68 78 79 118 181 187 259 237

GFSSGP_con_3kmhel_114.txt.gz
Helicity
27 25 25 56 77 57 22 19 20 65 27 50 55 74 85 132 121 113 62 97 76 23 42 53 90 81 102 114 107 90 83 84 99 100 115 123 119 103 88 77 73 71 61 47 42 42 44 52 48
41 29 49 61 95 70 37 73 57 37 13 45 65 79 104 98 117 129 186 62 38 27 37 82 99 97 88 110 107 100 88 75 80 86 94 108 126 113 95 81 73 69 61 50 41 38 39 44 43
54 44 77 80 75 59 31 16 33 28 2 35 61 56 67 87 113 121 58 60 52 44 41 59 113 106 94 96 97 97 98 85 73 63 74 91 106 107 99 86 79 69 59 49 36 29 35 32 33
68 82 97 99 43 33 42 53 66 37 40 72 101 143 145 92 150 89 59 107 85 29 52 75 95 131 106 99 100 96 97 91 77 66 61 74 94 95 94 85 83 70 61 47 40 32 35 35 37
75 109 123 95 43 31 29 30 68 86 12 92 127 109 142 149 155 144 128 102 96 59 62 76 90 114 128 107 105 107 100 96 87 71 62 73 79 90 81 72 71 64 67 59 50 46 40 40 36
109 110 111 78 53 25 -29 111 47 91 32 87 139 115 179 169 231 171 161 142 119 74 46 73 48 79 111 113 103 109 107 105 95 79 70 71 75 81 79 68 61 61 65 64 65 47 45 46 39
89 117 94 83 35 -7 14 50 78 195 32 95 125 150 177 272 259 231 181 151 146 111 68 67 60 52 79 111 113 105 107 105 103 94 84 71 77 77 78 71 67 61 68 62 68 64 61 54 45
108 120 65 56 55 -3 27 8 18 82 224 19 59 110 134 176 151 163 193 133 144 128 88 61 72 52 76 104 122 119 113 108 101 102 89 78 73 77 80 76 73 72 75 76 66 72 71 67 65
110 113 83 64 62 12 41 22 -27 -49 68 110 52 48 62 71 88 134 150 179 131 95 107 122 64 42 52 103 127 134 127 125 120 115 101 98 99 88 85 84 67 67 72 78 81 85 83 74 67
125 121 65 78 55 28 37 34 13 66 102 84 142 114 38 59 120 157 147 128 104 106 118 139 125 51 51 85 132 160 171 171 162 148 135 133 114 108 99 88 69 67 71 80 90 98 94 97 85
99 122 89 31 35 51 33 8 -8 -23 50 63 79 114 99 135 76 147 142 126 103 81 176 159 133 93 54 43 112 155 172 182 181 166 149 146 129 125 116 110 95 94 70 93 95 113 126 130 113
124 84 61 37 50 20 7 -1 -48 -33 -19 43 60 96 93 93 156 144 151 165 182 147 177 238 180 145 79 71 80 109 153 157 161 168 163 159 152 145 133 139 128 132 127 125 130 136 145 148 134
105 84 93 76 47 26 -4 -20 4 2 5 37 61 81 107 97 126 176 150 186 275 299 318 310 265 220 131 96 84 114 135 134 134 138 140 165 157 147 159 147 158 154 163 161 156 154 148 146 143
105 67 62 69 77 38 32 -6 56 61 17 -18 8 58 83 102 124 181 221 321 394 440 497 448 426 343 321 250 144 125 134 132 138 146 136 143 157 157 168 169 174 178 182 176 175 173 160 156 156
86 61 52 64 61 97 75 23 116 54 74 84 77 61 120 142 128 132 263 442 555 612 598 531 439 391 360 320 267 194 126 112 153 150 133 142 140 155 165 184 205 191 198 188 183 166 168 170 174
102 87 104 -3 45 57 138 22 100 75 136 169 113 84 40 35 139 203 460 639 683 687 711 585 396 353 303 288 240 216 172 133 120 134 93 108 135 143 153 186 170 171 217 216 193 196 213 176 183
102 85 81 77 20 119 169 93 183 106 91 101 69 27 22 -73 206 507 729 777 767 696 588 455 353 308 247 183 145 194 195 131 115 110 128 132 122 103 134 138 172 196 126 226 229 215 235 241 213
52 64 70 92 101 106 139 89 61 69 61 33 6 -37 -14 -39 315 751 841 814 750 685 578 408 278 223 170 162 164 100 89 131 86 76 97 121 148 170 143 123 148 189 231 223 256 238 271 284 236
129 87 51 99 89 118 118 103 104 93 70 13 -16 -57 -76 37 551 829 906 810 754 670 531 422 324 201 121 103 142 99 51 74 91 83 71 84 88 140 175 147 122 145 170 191 235 265 297 337 358
81 77 109 115 117 114 80 129 100 93 100 90 53 -47 70 211 478 773 712 670 641 542 443 370 283 218 147 69 53 44 88 39 56 56 90 81 65 96 134 151 172 141 149 171 226 219 242 247 336
96 115 129 125 150 88 84 130 109 146 159 113 81 62 130 279 316 481 571 548 558 479 334 216 175 191 199 119 37 24 11 11 7 43 59 99 107 86 85 97 113 151 189 166 175 232 202 209 380
112 187 163 148 148 164 203 143 200 16 22 18 38 87 428 560 512 647 490 559 521 402 297 243 200 215 142 88 45 29 2 11 26 28 35 61 104 110 85 78 98 140 174 166 162 227 244 343 389
191 143 123 111 125 142 138 159 245 87 49 58 46 263 474 603 486 454 422 379 429 339 270 222 186 220 126 71 34 4 31 26 27 22 15 28 51 80 114 106 94 138 187 204 157 253 340 367 449
151 154 89 87 100 168 154 134 165 21 39 35 212 276 554 753 719 591 433 404 318 263 228 173 106 135 87 20 5 4 9 26 31 21 33 17 28 52 87 130 143 158 188 261 192 240 264 335 385
225 202 164 155 145 177 172 142 105 75 109 36 417 528 472 501 502 490 444 408 324 232 216 140 168 128 65 -2 -12 10 23 9 10 19 4 47 25 44 95 137 157 155 143 186 246 296 320 291 311
176 188 209 167 206 129 129 104 138 190 254 630 602 672 502 322 511 410 376 268 217 164 110 113 92 63 54 33 21 18 24 1 7 21 11 14 14 24 63 64 107 128 140 108 167 233 311 301 243
193 187 131 166 98 135 105 106 176 161 304 378 387 427 350 296 276 382 382 203 115 8 25 33 32 34 50 49 32 25 29 30 26 46 29 10 13 -5 13 50 63 111 104 104 104 168 206 276 273
146 85 196 189 145 149 135 128 107 24 30 84 11 4 21 104 156 130 98 68 -45 -15 -14 15 18 7 -1 2 13 31 35 41 26 21 24 33 37 30 34 47 46 67 89 124 99 158 145 223 266
188 168 155 117 138 150 140 81 90 32 50 55 39 -8 -33 74 54 4 -13 -22 -41 -44 -14 19 81 84 84 85 82 76 65 54 42 28 30 29 44 48 54 81 69 52 51 91 135 144 105 125 120
145 118 182 179 107 140 141 92 -17 -52 -3 12 17 4 18 37 -1 -17 -8 -5 -7 10 31 45 73 69 56 65 74 76 65 55 40 21 41 60 55 63 76 93 95 65 83 109 89 169 105 112 112

GFSSGP_con_3kmhel_117.txt.gz
Helicity
35 27 23 48 73 65 76 78 74 167 86 17 -2 8 4 48 53 50 37 71 59 51 47 52 90 106 102 117 130 127 115 127 128 131 133 145 152 129 109 97 92 87 76 61 56 57 55 60 64
50 33 46 61 90 79 96 68 80 144 98 -6 11 35 52 49 29 10 48 20 30 26 37 75 108 137 123 107 114 124 117 107 110 122 125 124 142 131 113 98 87 84 77 67 63 60 55 63 65
45 45 74 85 81 65 60 67 108 168 113 19 17 36 45 18 11 1 2 44 62 34 15 38 107 152 141 125 107 112 118 110 104 108 119 120 125 137 125 110 95 86 82 71 64 63 67 66 64
68 80 88 91 54 34 41 77 65 173 156 46 21 51 101 51 26 23 50 92 75 49 32 43 70 133 143 121 117 106 107 107 102 99 107 115 120 126 129 113 104 94 84 77 69 68 68 63 61
76 100 117 91 40 37 33 37 83 165 125 42 35 69 112 99 74 131 105 93 86 44 24 56 71 95 126 118 102 96 97 98 101 91 99 107 117 120 128 118 104 97 92 81 75 66 71 69 62
113 105 138 76 60 30 9 55 55 128 168 171 116 73 105 105 133 110 120 128 114 92 54 44 51 73 99 122 120 93 86 87 87 92 95 102 107 113 115 117 106 96 97 87 78 79 73 71 68
106 125 91 73 36 20 7 59 95 152 212 198 182 176 65 95 98 122 115 142 127 103 100 70 49 49 77 101 115 126 99 84 82 91 96 95 95 93 96 97 103 96 92 88 85 83 77 71 68
115 114 90 64 70 30 8 27 12 57 247 158 115 265 174 51 65 97 96 92 97 90 100 97 87 68 70 90 104 114 119 98 89 95 100 104 93 87 82 85 90 100 90 94 89 86 83 84 77
108 122 93 68 51 11 10 27 13 67 122 137 97 109 54 61 62 85 143 138 137 117 82 83 90 72 66 63 89 107 101 107 100 98 103 117 124 109 94 94 91 98 95 98 97 94 87 85 83
106 119 32 47 48 10 6 3 1 21 105 106 152 116 50 59 69 89 115 149 138 123 91 88 114 116 115 94 77 109 122 129 137 130 134 143 127 132 123 96 79 82 88 94 95 94 92 104 95
118 105 76 78 39 26 -36 -26 -7 -1 3 58 82 71 86 43 43 73 101 151 174 112 183 147 168 168 149 127 104 108 147 157 147 138 124 130 144 148 134 125 111 110 96 118 104 111 122 126 110
140 99 88 49 75 17 -4 -28 -24 -11 47 41 56 60 69 80 67 75 96 113 210 168 106 215 229 240 219 173 103 87 102 147 139 141 135 145 148 144 132 141 134 132 153 147 152 147 139 136 127
120 108 129 82 32 17 21 36 23 6 24 7 0 36 66 79 92 113 117 185 201 325 364 390 376 386 336 266 152 80 74 128 146 114 109 109 120 120 125 136 140 143 176 170 173 168 168 156 149
149 112 56 23 24 51 41 58 115 72 45 35 27 21 17 9 69 113 156 163 309 426 541 568 609 546 480 396 311 205 171 157 143 130 119 117 114 115 123 122 122 130 176 179 193 188 183 171 169
136 81 56 45 63 54 89 74 88 152 118 120 119 69 77 100 98 101 149 239 416 554 601 681 653 531 461 391 339 263 205 180 179 166 213 143 89 90 113 124 134 143 178 189 183 192 198 168 165
133 130 77 89 52 38 40 110 124 113 218 174 94 79 61 5 48 30 -20 273 553 689 761 747 651 572 490 409 319 256 223 195 178 142 140 148 149 223 139 144 150 136 184 192 180 178 180 157 144
152 109 84 98 89 110 105 43 100 128 46 69 71 41 14 9 -51 18 159 389 599 760 778 781 697 569 445 356 254 224 217 212 166 135 114 110 92 103 134 191 140 145 180 191 198 123 176 165 156
59 78 85 88 76 106 73 50 85 96 85 83 124 85 40 55 74 222 412 624 805 833 836 759 675 558 426 315 224 207 216 230 205 181 127 104 80 75 59 81 122 172 144 158 204 141 156 193 90
161 117 111 109 89 110 79 91 92 83 79 111 73 93 84 185 260 412 584 711 839 841 810 731 603 509 399 331 232 151 107 163 189 186 166 129 87 98 78 48 61 88 125 124 161 177 157 189 191
130 102 87 87 42 78 89 89 114 28 13 48 75 98 160 270 402 508 727 763 693 710 677 587 492 390 308 200 98 100 113 82 78 136 163 124 107 93 92 82 70 89 111 151 127 143 173 189 243
95 109 98 94 73 58 123 79 78 -11 17 -3 -6 58 152 292 465 570 693 675 604 508 470 438 415 348 296 208 146 85 96 83 53 80 90 127 135 107 70 77 69 68 100 127 160 161 154 171 209
110 98 117 121 125 104 126 107 88 58 88 123 101 221 381 593 656 674 705 564 625 412 327 364 381 348 317 230 128 122 40 37 49 70 60 65 72 94 111 89 76 64 67 117 133 155 171 175 217
109 158 156 145 147 153 130 137 114 125 99 30 79 199 400 541 562 615 550 455 429 585 362 294 348 345 284 253 160 71 72 40 14 19 44 49 48 82 93 97 122 100 87 94 134 163 178 195 211
178 218 163 151 182 223 110 109 146 66 21 64 79 299 501 617 615 576 544 462 547 382 360 412 310 300 235 205 170 147 94 70 35 28 9 1 16 40 82 102 98 111 124 105 111 143 192 198 244
274 215 205 223 215 180 155 132 205 134 145 252 347 490 643 630 685 760 608 568 414 255 131 155 237 157 139 152 145 128 120 91 62 36 5 30 2 3 44 84 101 105 100 113 125 131 145 216 263
228 184 234 216 221 189 188 126 171 98 73 204 313 408 369 305 235 272 440 477 321 260 143 105 111 101 143 130 90 72 71 64 49 50 34 14 6 12 25 38 61 81 91 90 104 107 106 140 214
147 217 174 229 207 187 143 185 119 117 112 83 76 28 -6 -19 67 159 113 83 176 78 83 59 91 76 67 40 46 74 72 88 90 87 54 43 29 29 31 29 23 47 81 74 94 105 131 143 198
150 158 217 271 238 226 171 170 152 109 110 120 62 28 19 28 10 84 67 19 -16 16 3 41 59 85 80 60 64 78 85 84 79 74 81 62 47 44 37 32 25 33 46 69 85 87 128 125 161
280 275 265 238 241 216 200 127 119 128 88 57 24 38 35 30 29 -4 -18 -23 -28 -26 -4 -5 -19 -1 45 40 40 54 82 84 84 74 64 63 50 48 46 40 26 25 49 63 74 105 82 135 131
234 257 363 288 214 216 205 154 160 129 42 51 58 89 63 43 13 0 41 -9 -19 -10 16 40 59 63 57 61 62 81 96 92 103 102 84 74 74 66 45 35 33 48 64 74 78 107 132 85 128

GFSSGP_con_3kmhel_120.txt.gz
Helicity
22 25 27 34 71 71 81 128 117 204 166 80 15 0 -8 18 39 31 14 49 74 70 63 88 124 113 108 95 102 115 124 136 152 162 161 157 134 113 109 102 96 91 87 88 74 67 61 61 58
28 28 41 41 80 79 88 121 216 147 160 60 23 29 8 5 14 4 -15 -3 28 51 71 90 110 137 134 125 114 108 113 125 134 141 150 158 155 147 124 109 97 94 96 97 87 75 72 69 63
27 37 67 81 76 70 106 121 123 161 67 27 25 31 1 -9 -14 -29 -47 40 48 25 25 59 115 137 132 129 122 117 112 107 118 128 136 133 153 153 141 123 105 96 97 99 95 90 93 77 68
51 73 83 103 70 50 84 123 46 100 103 124 92 32 37 29 7 -10 15 43 55 45 24 36 79 116 142 120 119 121 108 98 101 116 127 127 130 133 136 137 118 101 92 89 91 101 112 91 71
64 91 132 98 63 65 58 79 61 97 130 209 177 181 61 35 15 51 75 71 72 55 35 18 33 67 110 140 135 115 108 99 92 97 114 127 127 137 132 135 128 110 100 94 92 103 108 99 85
108 100 132 74 62 62 56 70 70 72 109 256 200 229 90 42 58 80 80 72 57 56 51 34 23 34 77 104 125 133 123 109 95 90 100 117 127 130 135 129 130 130 117 107 104 102 104 98 88
107 119 79 67 50 57 50 97 91 95 118 118 166 191 139 124 52 61 51 31 37 50 47 35 47 52 61 81 111 111 116 108 92 88 93 101 109 111 116 122 119 126 128 119 108 107 104 103 92
103 109 77 41 52 46 63 74 73 100 95 84 129 204 214 145 55 53 52 49 54 54 48 60 86 100 88 83 85 109 109 102 96 85 79 84 89 85 96 105 107 109 119 120 116 115 104 104 103
85 122 78 50 44 17 55 33 13 54 79 91 74 122 140 112 67 91 93 71 75 67 69 84 97 99 91 107 98 95 98 114 117 117 105 98 109 103 99 104 97 97 101 108 118 115 110 110 108
106 118 29 54 67 51 10 -5 -1 36 89 79 109 94 87 95 89 95 77 73 96 100 101 125 126 122 132 132 113 116 123 122 130 132 132 132 123 126 122 112 95 91 87 87 99 110 106 125 132
113 114 92 84 83 75 9 6 -6 7 31 66 68 93 70 54 82 90 86 82 73 141 117 139 148 147 160 174 164 146 144 145 131 121 140 137 143 143 137 132 131 132 114 120 112 122 141 144 140
109 101 114 107 105 59 28 7 29 56 66 30 31 54 68 98 103 104 133 146 157 162 123 143 164 174 173 202 194 206 174 137 139 146 135 153 152 152 142 137 127 120 132 141 142 142 147 152 147
98 115 141 87 46 32 38 42 60 74 54 42 62 108 100 114 115 124 118 145 169 157 175 189 225 232 260 255 262 248 171 115 105 135 162 164 134 131 134 133 128 125 127 131 135 135 138 137 157
165 116 69 47 41 71 70 66 71 72 117 136 113 75 73 86 94 82 115 140 156 198 241 313 349 352 394 391 352 340 306 212 143 123 161 190 169 149 141 137 130 128 127 120 140 148 145 138 143
113 97 72 85 105 104 101 90 66 143 150 124 87 32 41 43 43 27 59 80 101 241 380 451 495 505 486 429 373 376 346 280 206 174 193 212 206 207 196 137 139 130 128 121 130 165 183 168 155
139 122 99 73 127 76 87 49 142 102 130 107 60 97 114 120 41 19 42 163 251 327 471 560 604 570 510 446 405 374 354 283 235 205 187 180 184 185 143 158 184 126 138 160 154 167 167 182 180
198 125 131 123 122 86 115 45 15 65 69 81 140 132 107 109 102 69 155 257 357 404 483 565 603 578 500 444 404 358 333 287 227 208 218 229 199 194 155 137 110 135 189 167 161 193 184 175 204
130 138 121 87 78 112 83 59 64 74 91 111 140 148 102 129 133 167 272 354 441 507 551 605 616 574 500 402 362 339 288 235 204 212 223 242 223 187 149 142 165 169 151 127 128 168 293 268 194
204 160 125 105 87 103 50 71 76 102 84 94 124 103 119 204 223 322 400 439 476 540 589 647 647 599 497 399 311 278 256 234 198 177 207 213 168 136 114 98 109 137 158 159 177 145 147 173 233
154 162 122 112 63 78 52 63 35 40 140 143 131 125 105 224 317 372 442 486 493 493 554 572 587 525 458 400 327 238 203 196 170 162 164 184 157 132 111 81 78 94 116 137 150 177 149 146 148
170 165 136 108 107 98 79 7 99 116 253 200 155 239 293 301 353 392 438 476 461 460 522 513 447 498 432 404 338 272 187 145 125 165 172 196 151 120 111 91 70 86 95 110 150 179 192 193 170
148 95 112 119 116 70 99 38 96 149 226 158 137 188 243 314 376 412 420 505 532 444 446 447 433 348 337 399 295 253 183 191 196 161 116 105 129 137 132 113 103 81 68 81 102 144 185 214 214
113 134 147 167 168 166 177 140 100 194 218 165 159 180 271 393 418 430 456 452 415 466 423 427 321 426 40 207 236 201 150 184 158 159 144 101 104 114 125 128 117 102 94 89 92 106 135 169 197
160 194 174 206 211 198 144 145 200 160 92 91 129 181 232 289 344 428 348 384 447 377 422 324 383 280 343 160 138 131 99 145 161 174 118 114 72 102 104 115 109 119 99 93 89 94 98 126 164
187 181 210 212 230 187 177 179 214 159 82 73 59 50 76 141 196 201 294 259 219 295 415 529 570 464 238 76 100 143 109 128 121 100 65 83 63 80 84 109 109 106 115 112 97 79 81 92 122
209 211 246 230 212 167 158 181 192 164 98 30 19 33 45 67 83 85 45 24 59 145 232 272 164 133 132 77 45 65 91 89 81 97 103 76 48 61 87 70 91 94 102 104 99 89 78 78 100
164 177 129 196 196 239 204 231 222 194 142 72 43 24 1 22 49 50 47 17 16 38 -5 50 50 31 15 20 29 52 62 62 85 129 110 102 99 76 72 54 80 87 92 100 106 96 94 91 87
158 117 219 205 245 256 177 211 204 134 95 72 66 35 52 44 61 55 28 26 -3 -13 20 11 28 -2 9 18 17 29 57 76 89 105 125 118 112 112 97 73 67 69 89 95 106 95 115 93 102
233 227 223 203 237 239 232 192 153 141 70 59 61 102 87 73 56 31 10 16 30 25 31 24 49 42 12 -11 -21 3 45 60 54 60 80 88 102 104 109 92 66 74 74 94 107 117 120 125 126
212 166 217 199 186 279 318 206 166 158 125 118 110 133 135 102 58 43 23 27 31 33 53 42 40 55 61 49 52 55 52 62 76 94 99 96 80 70 58 66 73 73 93 85 82 104 140 149 155

GFSSGP_con_3kmhel_123.txt.gz
Helicity
9 15 19 23 33 64 122 160 139 166 116 39 21 19 -16 -12 11 55 2 2 33 48 65 105 144 166 152 129 101 87 89 86 110 115 116 113 101 107 104 97 102 99 112 107 102 92 86 71 53
13 12 28 44 66 91 136 120 184 138 78 41 3 -7 11 18 -1 -6 -25 -18 4 33 54 84 128 169 178 155 133 109 98 101 98 111 110 110 107 96 108 105 103 104 116 120 104 98 84 66 55
19 22 54 84 84 83 141 112 126 90 22 89 40 20 23 28 2 -4 -37 -3 23 21 20 45 99 142 178 173 145 121 110 102 99 101 109 114 111 89 104 113 105 103 115 121 108 96 87 64 54
38 52 72 92 85 88 87 94 49 82 74 135 104 60 33 2 4 -18 -16 10 32 31 24 35 61 99 134 151 145 132 115 101 95 99 110 119 118 108 102 109 112 110 110 112 100 91 103 74 52
50 67 92 83 90 80 80 77 51 107 75 135 142 126 90 26 22 31 32 25 32 33 22 14 31 45 74 111 134 138 121 105 101 96 103 114 123 121 113 99 105 110 110 102 96 97 110 82 57
73 68 79 54 62 66 66 84 74 102 122 148 173 169 157 81 43 43 57 44 31 15 5 6 24 36 47 74 110 134 142 129 102 97 100 102 109 112 104 93 89 95 101 101 99 115 108 84 60
55 67 45 36 45 55 58 92 146 133 142 145 147 172 168 259 154 64 35 35 28 7 -7 -6 1 12 28 45 81 130 166 149 130 111 100 99 99 101 99 92 86 85 88 94 104 107 105 89 70
59 68 44 25 41 44 85 109 111 105 122 112 121 189 192 242 243 142 121 89 62 39 19 23 22 27 40 44 63 89 96 126 150 143 122 106 101 97 100 98 89 82 84 86 101 106 101 90 71
58 69 33 33 49 67 110 87 50 37 38 82 86 145 159 180 158 163 173 161 121 76 47 58 60 60 62 54 54 76 92 108 137 146 147 148 124 106 95 97 106 90 86 83 94 111 108 101 80
76 82 35 50 64 102 73 44 20 40 44 62 75 111 134 161 166 181 177 158 153 146 108 63 67 69 86 88 74 74 72 77 109 136 153 152 142 142 129 121 106 99 91 87 91 106 112 119 95
92 77 69 89 98 103 46 43 30 26 38 65 93 110 145 101 152 163 187 143 136 117 99 78 100 96 109 120 114 120 112 122 134 113 128 161 164 148 152 152 143 128 118 109 105 110 104 108 113
84 82 86 84 100 64 45 43 53 32 50 70 66 81 77 148 176 175 179 177 170 155 134 93 83 132 131 152 164 143 172 153 139 128 121 120 163 169 164 156 146 146 144 128 122 119 118 115 109
79 100 104 82 58 35 44 31 33 24 51 74 99 102 89 87 115 124 147 148 150 158 157 162 135 137 164 172 165 169 169 140 120 119 120 151 137 143 156 147 152 137 120 129 134 112 114 131 136
118 110 78 57 55 66 70 68 44 59 97 115 116 84 69 70 69 41 74 87 121 151 186 200 263 323 229 182 219 200 205 194 182 174 152 99 142 138 148 168 170 169 166 155 117 107 112 129 155
110 104 80 91 113 130 76 106 104 93 156 144 96 58 79 44 57 82 102 135 192 197 216 250 285 298 341 341 300 262 278 244 243 227 218 196 190 209 175 133 138 162 150 150 146 133 135 129 147
124 115 106 138 158 144 120 122 110 148 175 140 104 133 132 76 78 86 117 124 179 259 358 361 344 384 394 403 351 313 279 272 261 256 224 198 178 168 166 167 170 189 198 142 142 159 161 155 157
135 130 159 157 159 164 172 122 126 122 107 97 96 106 117 91 119 137 130 135 177 239 316 387 419 405 385 354 334 305 279 259 262 235 202 187 173 163 163 167 158 157 173 188 206 152 171 163 168
119 147 165 124 118 108 102 85 82 76 115 111 110 143 112 136 140 126 156 171 215 265 313 352 365 404 336 290 274 254 232 233 245 218 205 208 177 175 158 160 151 130 131 135 144 155 163 168 182
174 150 129 115 65 91 74 84 73 127 233 214 204 170 162 165 151 183 182 189 236 291 327 371 390 356 317 311 283 262 258 241 222 213 214 196 180 173 177 174 167 162 136 138 146 142 151 192 244
130 139 103 104 93 97 88 80 132 227 197 189 168 170 156 175 207 214 223 218 225 249 302 325 325 368 317 241 260 228 267 207 165 179 177 190 185 178 173 171 158 150 149 145 144 156 178 172 192
167 112 115 108 107 76 99 65 127 246 185 207 174 165 156 163 176 197 230 241 237 235 217 248 269 299 335 325 215 204 255 283 198 171 164 177 180 173 188 158 145 128 107 120 148 165 171 185 206
135 56 74 95 108 103 127 96 147 238 298 208 171 137 141 136 147 165 171 181 194 219 284 203 249 259 321 344 338 248 121 249 185 159 152 140 145 161 207 185 160 131 108 97 107 138 165 202 193
119 111 113 136 130 119 109 83 152 212 179 150 89 98 102 90 67 58 73 73 70 126 172 263 209 218 209 241 252 255 374 125 106 108 133 104 107 158 188 188 175 159 129 116 117 125 129 146 178
138 172 174 169 156 150 87 48 132 81 81 63 40 25 37 62 88 91 91 109 172 221 225 259 215 146 192 261 243 236 153 24 4 89 64 80 138 143 159 191 174 141 137 132 125 120 109 117 125
161 162 197 179 204 201 143 134 141 147 86 41 36 33 24 31 51 60 70 87 103 156 181 205 211 186 189 188 230 260 169 96 -47 -19 -26 82 98 86 102 140 150 132 132 127 119 122 107 98 92
171 145 239 214 204 193 147 169 163 164 165 139 83 47 33 39 8 -9 -12 2 4 -6 32 67 92 160 213 202 117 103 57 54 -66 -13 18 56 38 49 85 106 126 137 124 123 114 105 96 99 90
149 174 91 194 197 204 194 183 184 239 184 161 62 27 35 22 17 20 20 33 36 30 24 27 8 75 100 76 57 59 68 88 96 86 51 46 55 75 87 115 142 125 113 114 114 98 104 83 89
150 135 223 232 257 270 209 183 202 153 154 125 48 48 64 46 51 38 42 41 42 34 45 45 46 62 48 45 52 52 44 51 62 56 40 55 109 122 125 144 143 123 106 103 102 88 94 92 86
203 206 203 181 236 268 234 206 108 145 179 84 69 102 106 91 77 61 49 47 46 50 55 64 63 60 62 70 73 68 78 84 55 82 73 98 114 138 143 130 121 128 133 123 131 116 109 113 128
138 144 175 215 158 226 202 158 148 129 117 135 147 151 137 118 125 93 75 65 59 57 61 67 67 57 59 68 67 72 61 57 69 81 83 86 97 99 134 154 154 174 176 159 113 124 147 166 192